<?xml version="1.0" encoding="UTF-8" standalone="no" ?>
<gpx xmlns="http://www.topografix.com/GPX/1/1" xmlns:xsi="http://www.w3.org/2001/XMLSchema-instance" xsi:schemaLocation="http://www.topografix.com/GPX/1/1 http://www.topografix.com/GPX/1/1/gpx.xsd" version="1.1" creator="VisuGPX - https://www.visugpx.com">
  <metadata>
    <name>ski rando Le Trelod</name>
    <desc><![CDATA[
]]></desc>
  </metadata>
  <trk>
    <name><![CDATA[ski rando Le Trelod]]></name>
    <trkseg>
      <trkpt lat="45.69348" lon="6.17016">
        <ele>1039.8000488281</ele>
        <time>2013-01-25T07:56:24.000Z</time>
      </trkpt>
      <trkpt lat="45.69348" lon="6.17016">
        <ele>1019.5999755859</ele>
        <time>2013-01-25T07:56:30.000Z</time>
      </trkpt>
      <trkpt lat="45.69348" lon="6.17016">
        <ele>1019.4000244141</ele>
        <time>2013-01-25T07:56:31.000Z</time>
      </trkpt>
      <trkpt lat="45.69346" lon="6.17013">
        <ele>1016</ele>
        <time>2013-01-25T07:56:56.000Z</time>
      </trkpt>
      <trkpt lat="45.69348" lon="6.17015">
        <ele>1015.5999755859</ele>
        <time>2013-01-25T07:57:40.000Z</time>
      </trkpt>
      <trkpt lat="45.6935" lon="6.17017">
        <ele>1015.5999755859</ele>
        <time>2013-01-25T07:57:47.000Z</time>
      </trkpt>
      <trkpt lat="45.6935" lon="6.17015">
        <ele>1016.4000244141</ele>
        <time>2013-01-25T07:57:52.000Z</time>
      </trkpt>
      <trkpt lat="45.69355" lon="6.1702">
        <ele>1016.4000244141</ele>
        <time>2013-01-25T07:57:58.000Z</time>
      </trkpt>
      <trkpt lat="45.69362" lon="6.17026">
        <ele>1016</ele>
        <time>2013-01-25T07:58:06.000Z</time>
      </trkpt>
      <trkpt lat="45.69362" lon="6.17029">
        <ele>1015.799987793</ele>
        <time>2013-01-25T07:58:12.000Z</time>
      </trkpt>
      <trkpt lat="45.69363" lon="6.1703">
        <ele>1015.5999755859</ele>
        <time>2013-01-25T07:58:18.000Z</time>
      </trkpt>
      <trkpt lat="45.69372" lon="6.17035">
        <ele>1016.200012207</ele>
        <time>2013-01-25T07:58:28.000Z</time>
      </trkpt>
      <trkpt lat="45.6938" lon="6.17038">
        <ele>1015.799987793</ele>
        <time>2013-01-25T07:58:36.000Z</time>
      </trkpt>
      <trkpt lat="45.69388" lon="6.17041">
        <ele>1015.4000244141</ele>
        <time>2013-01-25T07:58:44.000Z</time>
      </trkpt>
      <trkpt lat="45.69398" lon="6.17046">
        <ele>1016.200012207</ele>
        <time>2013-01-25T07:58:53.000Z</time>
      </trkpt>
      <trkpt lat="45.69406" lon="6.1705">
        <ele>1016.200012207</ele>
        <time>2013-01-25T07:59:01.000Z</time>
      </trkpt>
      <trkpt lat="45.69416" lon="6.17054">
        <ele>1017.799987793</ele>
        <time>2013-01-25T07:59:10.000Z</time>
      </trkpt>
      <trkpt lat="45.69428" lon="6.17058">
        <ele>1018.799987793</ele>
        <time>2013-01-25T07:59:20.000Z</time>
      </trkpt>
      <trkpt lat="45.6944" lon="6.17062">
        <ele>1019.200012207</ele>
        <time>2013-01-25T07:59:29.000Z</time>
      </trkpt>
      <trkpt lat="45.69441" lon="6.17062">
        <ele>1019.4000244141</ele>
        <time>2013-01-25T07:59:30.000Z</time>
      </trkpt>
      <trkpt lat="45.69451" lon="6.17062">
        <ele>1021.200012207</ele>
        <time>2013-01-25T07:59:38.000Z</time>
      </trkpt>
      <trkpt lat="45.69459" lon="6.17061">
        <ele>1022.200012207</ele>
        <time>2013-01-25T07:59:45.000Z</time>
      </trkpt>
      <trkpt lat="45.69468" lon="6.17057">
        <ele>1019.799987793</ele>
        <time>2013-01-25T07:59:52.000Z</time>
      </trkpt>
      <trkpt lat="45.69476" lon="6.17056">
        <ele>1021.4000244141</ele>
        <time>2013-01-25T07:59:58.000Z</time>
      </trkpt>
      <trkpt lat="45.69483" lon="6.17056">
        <ele>1023.200012207</ele>
        <time>2013-01-25T08:00:03.000Z</time>
      </trkpt>
      <trkpt lat="45.69487" lon="6.17056">
        <ele>1023.5999755859</ele>
        <time>2013-01-25T08:00:06.000Z</time>
      </trkpt>
      <trkpt lat="45.69493" lon="6.17057">
        <ele>1024.8000488281</ele>
        <time>2013-01-25T08:00:12.000Z</time>
      </trkpt>
      <trkpt lat="45.69505" lon="6.17059">
        <ele>1026</ele>
        <time>2013-01-25T08:00:20.000Z</time>
      </trkpt>
      <trkpt lat="45.6951" lon="6.17057">
        <ele>1024.1999511719</ele>
        <time>2013-01-25T08:00:25.000Z</time>
      </trkpt>
      <trkpt lat="45.6952" lon="6.17055">
        <ele>1027</ele>
        <time>2013-01-25T08:00:33.000Z</time>
      </trkpt>
      <trkpt lat="45.69531" lon="6.17049">
        <ele>1025</ele>
        <time>2013-01-25T08:00:43.000Z</time>
      </trkpt>
      <trkpt lat="45.69542" lon="6.17045">
        <ele>1027.5999755859</ele>
        <time>2013-01-25T08:00:53.000Z</time>
      </trkpt>
      <trkpt lat="45.6955" lon="6.17043">
        <ele>1028.1999511719</ele>
        <time>2013-01-25T08:01:01.000Z</time>
      </trkpt>
      <trkpt lat="45.69552" lon="6.17044">
        <ele>1029.1999511719</ele>
        <time>2013-01-25T08:01:06.000Z</time>
      </trkpt>
      <trkpt lat="45.69555" lon="6.17045">
        <ele>1027.5999755859</ele>
        <time>2013-01-25T08:01:11.000Z</time>
      </trkpt>
      <trkpt lat="45.69556" lon="6.17045">
        <ele>1029.8000488281</ele>
        <time>2013-01-25T08:01:14.000Z</time>
      </trkpt>
      <trkpt lat="45.69556" lon="6.17046">
        <ele>1031.1999511719</ele>
        <time>2013-01-25T08:01:16.000Z</time>
      </trkpt>
      <trkpt lat="45.69555" lon="6.17048">
        <ele>1030.4000244141</ele>
        <time>2013-01-25T08:02:01.000Z</time>
      </trkpt>
      <trkpt lat="45.69554" lon="6.17047">
        <ele>1029.5999755859</ele>
        <time>2013-01-25T08:02:09.000Z</time>
      </trkpt>
      <trkpt lat="45.69562" lon="6.17048">
        <ele>1030.1999511719</ele>
        <time>2013-01-25T08:03:05.000Z</time>
      </trkpt>
      <trkpt lat="45.69568" lon="6.17048">
        <ele>1031</ele>
        <time>2013-01-25T08:03:13.000Z</time>
      </trkpt>
      <trkpt lat="45.69575" lon="6.1705">
        <ele>1031.8000488281</ele>
        <time>2013-01-25T08:03:22.000Z</time>
      </trkpt>
      <trkpt lat="45.6958" lon="6.17051">
        <ele>1032.1999511719</ele>
        <time>2013-01-25T08:03:29.000Z</time>
      </trkpt>
      <trkpt lat="45.69586" lon="6.17052">
        <ele>1032.5999755859</ele>
        <time>2013-01-25T08:03:36.000Z</time>
      </trkpt>
      <trkpt lat="45.6959" lon="6.17054">
        <ele>1033.1999511719</ele>
        <time>2013-01-25T08:03:42.000Z</time>
      </trkpt>
      <trkpt lat="45.69596" lon="6.17057">
        <ele>1033.5999755859</ele>
        <time>2013-01-25T08:03:50.000Z</time>
      </trkpt>
      <trkpt lat="45.69603" lon="6.1706">
        <ele>1034.4000244141</ele>
        <time>2013-01-25T08:03:58.000Z</time>
      </trkpt>
      <trkpt lat="45.69609" lon="6.17064">
        <ele>1034.5999755859</ele>
        <time>2013-01-25T08:04:05.000Z</time>
      </trkpt>
      <trkpt lat="45.69618" lon="6.17068">
        <ele>1035.8000488281</ele>
        <time>2013-01-25T08:04:14.000Z</time>
      </trkpt>
      <trkpt lat="45.69623" lon="6.17072">
        <ele>1036.5999755859</ele>
        <time>2013-01-25T08:04:21.000Z</time>
      </trkpt>
      <trkpt lat="45.69633" lon="6.17074">
        <ele>1037.5999755859</ele>
        <time>2013-01-25T08:04:30.000Z</time>
      </trkpt>
      <trkpt lat="45.69633" lon="6.17074">
        <ele>1038</ele>
        <time>2013-01-25T08:04:31.000Z</time>
      </trkpt>
      <trkpt lat="45.69641" lon="6.17077">
        <ele>1039.4000244141</ele>
        <time>2013-01-25T08:04:40.000Z</time>
      </trkpt>
      <trkpt lat="45.69647" lon="6.17075">
        <ele>1039.8000488281</ele>
        <time>2013-01-25T08:04:47.000Z</time>
      </trkpt>
      <trkpt lat="45.69651" lon="6.17075">
        <ele>1040.8000488281</ele>
        <time>2013-01-25T08:04:52.000Z</time>
      </trkpt>
      <trkpt lat="45.69658" lon="6.17074">
        <ele>1042</ele>
        <time>2013-01-25T08:04:59.000Z</time>
      </trkpt>
      <trkpt lat="45.69663" lon="6.17073">
        <ele>1042.4000244141</ele>
        <time>2013-01-25T08:05:05.000Z</time>
      </trkpt>
      <trkpt lat="45.69668" lon="6.17071">
        <ele>1043.8000488281</ele>
        <time>2013-01-25T08:05:10.000Z</time>
      </trkpt>
      <trkpt lat="45.69673" lon="6.1707">
        <ele>1043</ele>
        <time>2013-01-25T08:05:16.000Z</time>
      </trkpt>
      <trkpt lat="45.6968" lon="6.17071">
        <ele>1044.4000244141</ele>
        <time>2013-01-25T08:05:24.000Z</time>
      </trkpt>
      <trkpt lat="45.69687" lon="6.17072">
        <ele>1046.1999511719</ele>
        <time>2013-01-25T08:05:30.000Z</time>
      </trkpt>
      <trkpt lat="45.69693" lon="6.17071">
        <ele>1046.5999755859</ele>
        <time>2013-01-25T08:05:38.000Z</time>
      </trkpt>
      <trkpt lat="45.69699" lon="6.17072">
        <ele>1047.4000244141</ele>
        <time>2013-01-25T08:05:45.000Z</time>
      </trkpt>
      <trkpt lat="45.69707" lon="6.17071">
        <ele>1049.1999511719</ele>
        <time>2013-01-25T08:05:53.000Z</time>
      </trkpt>
      <trkpt lat="45.69714" lon="6.17071">
        <ele>1049.4000244141</ele>
        <time>2013-01-25T08:05:59.000Z</time>
      </trkpt>
      <trkpt lat="45.69722" lon="6.17068">
        <ele>1050.1999511719</ele>
        <time>2013-01-25T08:06:07.000Z</time>
      </trkpt>
      <trkpt lat="45.69729" lon="6.17067">
        <ele>1052</ele>
        <time>2013-01-25T08:06:14.000Z</time>
      </trkpt>
      <trkpt lat="45.69736" lon="6.17065">
        <ele>1052.1999511719</ele>
        <time>2013-01-25T08:06:21.000Z</time>
      </trkpt>
      <trkpt lat="45.69743" lon="6.17062">
        <ele>1053.1999511719</ele>
        <time>2013-01-25T08:06:28.000Z</time>
      </trkpt>
      <trkpt lat="45.69751" lon="6.17058">
        <ele>1053.5999755859</ele>
        <time>2013-01-25T08:06:35.000Z</time>
      </trkpt>
      <trkpt lat="45.69759" lon="6.17054">
        <ele>1054.1999511719</ele>
        <time>2013-01-25T08:06:44.000Z</time>
      </trkpt>
      <trkpt lat="45.69768" lon="6.17051">
        <ele>1055.4000244141</ele>
        <time>2013-01-25T08:06:52.000Z</time>
      </trkpt>
      <trkpt lat="45.69773" lon="6.17049">
        <ele>1056.8000488281</ele>
        <time>2013-01-25T08:06:59.000Z</time>
      </trkpt>
      <trkpt lat="45.69777" lon="6.17052">
        <ele>1057.8000488281</ele>
        <time>2013-01-25T08:07:04.000Z</time>
      </trkpt>
      <trkpt lat="45.6978" lon="6.17055">
        <ele>1058.4000244141</ele>
        <time>2013-01-25T08:07:07.000Z</time>
      </trkpt>
      <trkpt lat="45.69787" lon="6.17058">
        <ele>1059.1999511719</ele>
        <time>2013-01-25T08:07:14.000Z</time>
      </trkpt>
      <trkpt lat="45.69793" lon="6.17061">
        <ele>1060.4000244141</ele>
        <time>2013-01-25T08:07:21.000Z</time>
      </trkpt>
      <trkpt lat="45.69796" lon="6.17065">
        <ele>1060.5999755859</ele>
        <time>2013-01-25T08:07:28.000Z</time>
      </trkpt>
      <trkpt lat="45.69799" lon="6.17066">
        <ele>1061.5999755859</ele>
        <time>2013-01-25T08:07:34.000Z</time>
      </trkpt>
      <trkpt lat="45.69802" lon="6.17069">
        <ele>1061.1999511719</ele>
        <time>2013-01-25T08:07:39.000Z</time>
      </trkpt>
      <trkpt lat="45.69807" lon="6.17073">
        <ele>1062.1999511719</ele>
        <time>2013-01-25T08:07:47.000Z</time>
      </trkpt>
      <trkpt lat="45.69812" lon="6.17077">
        <ele>1063.8000488281</ele>
        <time>2013-01-25T08:07:55.000Z</time>
      </trkpt>
      <trkpt lat="45.69813" lon="6.17081">
        <ele>1064</ele>
        <time>2013-01-25T08:07:59.000Z</time>
      </trkpt>
      <trkpt lat="45.69817" lon="6.17085">
        <ele>1066.1999511719</ele>
        <time>2013-01-25T08:08:04.000Z</time>
      </trkpt>
      <trkpt lat="45.69821" lon="6.1709">
        <ele>1067.4000244141</ele>
        <time>2013-01-25T08:08:11.000Z</time>
      </trkpt>
      <trkpt lat="45.69825" lon="6.17096">
        <ele>1068.1999511719</ele>
        <time>2013-01-25T08:08:19.000Z</time>
      </trkpt>
      <trkpt lat="45.6983" lon="6.17105">
        <ele>1071</ele>
        <time>2013-01-25T08:08:28.000Z</time>
      </trkpt>
      <trkpt lat="45.69834" lon="6.17111">
        <ele>1072.4000244141</ele>
        <time>2013-01-25T08:08:35.000Z</time>
      </trkpt>
      <trkpt lat="45.69834" lon="6.17112">
        <ele>1072.5999755859</ele>
        <time>2013-01-25T08:08:36.000Z</time>
      </trkpt>
      <trkpt lat="45.6984" lon="6.17118">
        <ele>1072.1999511719</ele>
        <time>2013-01-25T08:08:45.000Z</time>
      </trkpt>
      <trkpt lat="45.69844" lon="6.17122">
        <ele>1074.8000488281</ele>
        <time>2013-01-25T08:08:51.000Z</time>
      </trkpt>
      <trkpt lat="45.69849" lon="6.17126">
        <ele>1076.8000488281</ele>
        <time>2013-01-25T08:08:59.000Z</time>
      </trkpt>
      <trkpt lat="45.69855" lon="6.17129">
        <ele>1078</ele>
        <time>2013-01-25T08:09:05.000Z</time>
      </trkpt>
      <trkpt lat="45.69858" lon="6.17135">
        <ele>1080</ele>
        <time>2013-01-25T08:09:13.000Z</time>
      </trkpt>
      <trkpt lat="45.6986" lon="6.17139">
        <ele>1081</ele>
        <time>2013-01-25T08:09:19.000Z</time>
      </trkpt>
      <trkpt lat="45.69865" lon="6.1714">
        <ele>1081.1999511719</ele>
        <time>2013-01-25T08:09:28.000Z</time>
      </trkpt>
      <trkpt lat="45.6987" lon="6.1714">
        <ele>1082.4000244141</ele>
        <time>2013-01-25T08:09:33.000Z</time>
      </trkpt>
      <trkpt lat="45.69876" lon="6.17139">
        <ele>1082.4000244141</ele>
        <time>2013-01-25T08:09:41.000Z</time>
      </trkpt>
      <trkpt lat="45.69882" lon="6.17139">
        <ele>1083</ele>
        <time>2013-01-25T08:09:48.000Z</time>
      </trkpt>
      <trkpt lat="45.69889" lon="6.17138">
        <ele>1084.1999511719</ele>
        <time>2013-01-25T08:09:55.000Z</time>
      </trkpt>
      <trkpt lat="45.69891" lon="6.17139">
        <ele>1084.8000488281</ele>
        <time>2013-01-25T08:09:58.000Z</time>
      </trkpt>
      <trkpt lat="45.69899" lon="6.17141">
        <ele>1085</ele>
        <time>2013-01-25T08:10:05.000Z</time>
      </trkpt>
      <trkpt lat="45.69904" lon="6.17145">
        <ele>1086.4000244141</ele>
        <time>2013-01-25T08:10:12.000Z</time>
      </trkpt>
      <trkpt lat="45.69907" lon="6.1715">
        <ele>1089</ele>
        <time>2013-01-25T08:10:19.000Z</time>
      </trkpt>
      <trkpt lat="45.69908" lon="6.17151">
        <ele>1088.5999755859</ele>
        <time>2013-01-25T08:10:20.000Z</time>
      </trkpt>
      <trkpt lat="45.69913" lon="6.17156">
        <ele>1089</ele>
        <time>2013-01-25T08:10:28.000Z</time>
      </trkpt>
      <trkpt lat="45.69916" lon="6.17163">
        <ele>1092.1999511719</ele>
        <time>2013-01-25T08:10:35.000Z</time>
      </trkpt>
      <trkpt lat="45.69919" lon="6.17167">
        <ele>1092.8000488281</ele>
        <time>2013-01-25T08:10:42.000Z</time>
      </trkpt>
      <trkpt lat="45.69921" lon="6.1717">
        <ele>1094.5999755859</ele>
        <time>2013-01-25T08:10:45.000Z</time>
      </trkpt>
      <trkpt lat="45.69921" lon="6.17175">
        <ele>1095.1999511719</ele>
        <time>2013-01-25T08:10:52.000Z</time>
      </trkpt>
      <trkpt lat="45.69925" lon="6.17176">
        <ele>1095.5999755859</ele>
        <time>2013-01-25T08:11:23.000Z</time>
      </trkpt>
      <trkpt lat="45.69927" lon="6.1718">
        <ele>1096</ele>
        <time>2013-01-25T08:11:53.000Z</time>
      </trkpt>
      <trkpt lat="45.69928" lon="6.17182">
        <ele>1097.1999511719</ele>
        <time>2013-01-25T08:11:58.000Z</time>
      </trkpt>
      <trkpt lat="45.69932" lon="6.17184">
        <ele>1097.1999511719</ele>
        <time>2013-01-25T08:12:03.000Z</time>
      </trkpt>
      <trkpt lat="45.69936" lon="6.17186">
        <ele>1098</ele>
        <time>2013-01-25T08:12:10.000Z</time>
      </trkpt>
      <trkpt lat="45.69938" lon="6.1719">
        <ele>1099.8000488281</ele>
        <time>2013-01-25T08:12:16.000Z</time>
      </trkpt>
      <trkpt lat="45.69938" lon="6.17192">
        <ele>1100.5999755859</ele>
        <time>2013-01-25T08:12:24.000Z</time>
      </trkpt>
      <trkpt lat="45.69939" lon="6.17195">
        <ele>1100.5999755859</ele>
        <time>2013-01-25T08:12:30.000Z</time>
      </trkpt>
      <trkpt lat="45.6994" lon="6.17201">
        <ele>1102.4000244141</ele>
        <time>2013-01-25T08:12:36.000Z</time>
      </trkpt>
      <trkpt lat="45.6994" lon="6.17203">
        <ele>1100.5999755859</ele>
        <time>2013-01-25T08:12:39.000Z</time>
      </trkpt>
      <trkpt lat="45.6994" lon="6.17206">
        <ele>1102</ele>
        <time>2013-01-25T08:12:42.000Z</time>
      </trkpt>
      <trkpt lat="45.69941" lon="6.17208">
        <ele>1104.5999755859</ele>
        <time>2013-01-25T08:12:45.000Z</time>
      </trkpt>
      <trkpt lat="45.69944" lon="6.1721">
        <ele>1106.8000488281</ele>
        <time>2013-01-25T08:12:49.000Z</time>
      </trkpt>
      <trkpt lat="45.69947" lon="6.17217">
        <ele>1108.4000244141</ele>
        <time>2013-01-25T08:12:56.000Z</time>
      </trkpt>
      <trkpt lat="45.69949" lon="6.17227">
        <ele>1107.5999755859</ele>
        <time>2013-01-25T08:13:07.000Z</time>
      </trkpt>
      <trkpt lat="45.69951" lon="6.17229">
        <ele>1108</ele>
        <time>2013-01-25T08:13:09.000Z</time>
      </trkpt>
      <trkpt lat="45.69957" lon="6.17232">
        <ele>1112.4000244141</ele>
        <time>2013-01-25T08:13:17.000Z</time>
      </trkpt>
      <trkpt lat="45.69963" lon="6.17235">
        <ele>1112.1999511719</ele>
        <time>2013-01-25T08:13:25.000Z</time>
      </trkpt>
      <trkpt lat="45.69967" lon="6.17239">
        <ele>1113.8000488281</ele>
        <time>2013-01-25T08:13:32.000Z</time>
      </trkpt>
      <trkpt lat="45.69972" lon="6.17241">
        <ele>1112.4000244141</ele>
        <time>2013-01-25T08:13:37.000Z</time>
      </trkpt>
      <trkpt lat="45.69979" lon="6.17247">
        <ele>1115.4000244141</ele>
        <time>2013-01-25T08:13:46.000Z</time>
      </trkpt>
      <trkpt lat="45.69982" lon="6.17251">
        <ele>1117.1999511719</ele>
        <time>2013-01-25T08:13:51.000Z</time>
      </trkpt>
      <trkpt lat="45.69988" lon="6.17256">
        <ele>1118</ele>
        <time>2013-01-25T08:13:59.000Z</time>
      </trkpt>
      <trkpt lat="45.69993" lon="6.17263">
        <ele>1119.4000244141</ele>
        <time>2013-01-25T08:14:07.000Z</time>
      </trkpt>
      <trkpt lat="45.69994" lon="6.17263">
        <ele>1119.5999755859</ele>
        <time>2013-01-25T08:14:08.000Z</time>
      </trkpt>
      <trkpt lat="45.69999" lon="6.17269">
        <ele>1120</ele>
        <time>2013-01-25T08:14:16.000Z</time>
      </trkpt>
      <trkpt lat="45.70002" lon="6.17272">
        <ele>1121.1999511719</ele>
        <time>2013-01-25T08:14:20.000Z</time>
      </trkpt>
      <trkpt lat="45.70004" lon="6.1728">
        <ele>1123.8000488281</ele>
        <time>2013-01-25T08:14:30.000Z</time>
      </trkpt>
      <trkpt lat="45.70005" lon="6.17283">
        <ele>1124</ele>
        <time>2013-01-25T08:14:37.000Z</time>
      </trkpt>
      <trkpt lat="45.70008" lon="6.17288">
        <ele>1124</ele>
        <time>2013-01-25T08:14:46.000Z</time>
      </trkpt>
      <trkpt lat="45.70012" lon="6.17292">
        <ele>1124.1999511719</ele>
        <time>2013-01-25T08:14:55.000Z</time>
      </trkpt>
      <trkpt lat="45.70017" lon="6.17297">
        <ele>1125.5999755859</ele>
        <time>2013-01-25T08:15:03.000Z</time>
      </trkpt>
      <trkpt lat="45.70021" lon="6.17301">
        <ele>1125.4000244141</ele>
        <time>2013-01-25T08:15:10.000Z</time>
      </trkpt>
      <trkpt lat="45.70026" lon="6.17305">
        <ele>1126.5999755859</ele>
        <time>2013-01-25T08:15:17.000Z</time>
      </trkpt>
      <trkpt lat="45.70031" lon="6.1731">
        <ele>1127.4000244141</ele>
        <time>2013-01-25T08:15:27.000Z</time>
      </trkpt>
      <trkpt lat="45.70035" lon="6.17313">
        <ele>1128</ele>
        <time>2013-01-25T08:15:34.000Z</time>
      </trkpt>
      <trkpt lat="45.70039" lon="6.17314">
        <ele>1128.5999755859</ele>
        <time>2013-01-25T08:15:41.000Z</time>
      </trkpt>
      <trkpt lat="45.70041" lon="6.17316">
        <ele>1129.1999511719</ele>
        <time>2013-01-25T08:15:46.000Z</time>
      </trkpt>
      <trkpt lat="45.70046" lon="6.17319">
        <ele>1129.4000244141</ele>
        <time>2013-01-25T08:15:53.000Z</time>
      </trkpt>
      <trkpt lat="45.70049" lon="6.17319">
        <ele>1130.1999511719</ele>
        <time>2013-01-25T08:15:59.000Z</time>
      </trkpt>
      <trkpt lat="45.70053" lon="6.1732">
        <ele>1130</ele>
        <time>2013-01-25T08:16:04.000Z</time>
      </trkpt>
      <trkpt lat="45.70061" lon="6.17324">
        <ele>1131.5999755859</ele>
        <time>2013-01-25T08:16:10.000Z</time>
      </trkpt>
      <trkpt lat="45.70068" lon="6.17325">
        <ele>1132</ele>
        <time>2013-01-25T08:16:16.000Z</time>
      </trkpt>
      <trkpt lat="45.70077" lon="6.17326">
        <ele>1132.8000488281</ele>
        <time>2013-01-25T08:16:24.000Z</time>
      </trkpt>
      <trkpt lat="45.70078" lon="6.17326">
        <ele>1132.8000488281</ele>
        <time>2013-01-25T08:16:25.000Z</time>
      </trkpt>
      <trkpt lat="45.70081" lon="6.17328">
        <ele>1133.5999755859</ele>
        <time>2013-01-25T08:16:31.000Z</time>
      </trkpt>
      <trkpt lat="45.70089" lon="6.17332">
        <ele>1133.8000488281</ele>
        <time>2013-01-25T08:16:39.000Z</time>
      </trkpt>
      <trkpt lat="45.70091" lon="6.17335">
        <ele>1134.8000488281</ele>
        <time>2013-01-25T08:16:44.000Z</time>
      </trkpt>
      <trkpt lat="45.70098" lon="6.17339">
        <ele>1135.4000244141</ele>
        <time>2013-01-25T08:16:51.000Z</time>
      </trkpt>
      <trkpt lat="45.70103" lon="6.17344">
        <ele>1136.1999511719</ele>
        <time>2013-01-25T08:16:58.000Z</time>
      </trkpt>
      <trkpt lat="45.70108" lon="6.17349">
        <ele>1137.4000244141</ele>
        <time>2013-01-25T08:17:06.000Z</time>
      </trkpt>
      <trkpt lat="45.70114" lon="6.17352">
        <ele>1138</ele>
        <time>2013-01-25T08:17:14.000Z</time>
      </trkpt>
      <trkpt lat="45.70123" lon="6.17352">
        <ele>1138.8000488281</ele>
        <time>2013-01-25T08:17:22.000Z</time>
      </trkpt>
      <trkpt lat="45.7013" lon="6.17352">
        <ele>1140.5999755859</ele>
        <time>2013-01-25T08:17:30.000Z</time>
      </trkpt>
      <trkpt lat="45.70133" lon="6.17352">
        <ele>1140</ele>
        <time>2013-01-25T08:17:36.000Z</time>
      </trkpt>
      <trkpt lat="45.70138" lon="6.17349">
        <ele>1140.8000488281</ele>
        <time>2013-01-25T08:17:43.000Z</time>
      </trkpt>
      <trkpt lat="45.70144" lon="6.1735">
        <ele>1142</ele>
        <time>2013-01-25T08:17:49.000Z</time>
      </trkpt>
      <trkpt lat="45.70151" lon="6.17352">
        <ele>1142.8000488281</ele>
        <time>2013-01-25T08:17:57.000Z</time>
      </trkpt>
      <trkpt lat="45.70159" lon="6.17355">
        <ele>1143.8000488281</ele>
        <time>2013-01-25T08:18:06.000Z</time>
      </trkpt>
      <trkpt lat="45.70166" lon="6.17358">
        <ele>1144.8000488281</ele>
        <time>2013-01-25T08:18:13.000Z</time>
      </trkpt>
      <trkpt lat="45.70172" lon="6.1736">
        <ele>1144.8000488281</ele>
        <time>2013-01-25T08:18:20.000Z</time>
      </trkpt>
      <trkpt lat="45.7018" lon="6.1736">
        <ele>1145.5999755859</ele>
        <time>2013-01-25T08:18:26.000Z</time>
      </trkpt>
      <trkpt lat="45.70188" lon="6.1736">
        <ele>1145.8000488281</ele>
        <time>2013-01-25T08:18:33.000Z</time>
      </trkpt>
      <trkpt lat="45.70192" lon="6.17358">
        <ele>1147.1999511719</ele>
        <time>2013-01-25T08:18:38.000Z</time>
      </trkpt>
      <trkpt lat="45.70195" lon="6.17356">
        <ele>1147.5999755859</ele>
        <time>2013-01-25T08:18:42.000Z</time>
      </trkpt>
      <trkpt lat="45.702" lon="6.17353">
        <ele>1149</ele>
        <time>2013-01-25T08:18:50.000Z</time>
      </trkpt>
      <trkpt lat="45.70207" lon="6.17349">
        <ele>1149.5999755859</ele>
        <time>2013-01-25T08:18:58.000Z</time>
      </trkpt>
      <trkpt lat="45.70211" lon="6.17346">
        <ele>1150.1999511719</ele>
        <time>2013-01-25T08:19:04.000Z</time>
      </trkpt>
      <trkpt lat="45.70216" lon="6.17342">
        <ele>1151.4000244141</ele>
        <time>2013-01-25T08:19:11.000Z</time>
      </trkpt>
      <trkpt lat="45.70219" lon="6.17338">
        <ele>1151.4000244141</ele>
        <time>2013-01-25T08:19:15.000Z</time>
      </trkpt>
      <trkpt lat="45.70224" lon="6.17335">
        <ele>1151.8000488281</ele>
        <time>2013-01-25T08:19:20.000Z</time>
      </trkpt>
      <trkpt lat="45.70232" lon="6.17335">
        <ele>1151.8000488281</ele>
        <time>2013-01-25T08:19:27.000Z</time>
      </trkpt>
      <trkpt lat="45.70237" lon="6.17335">
        <ele>1154.4000244141</ele>
        <time>2013-01-25T08:19:33.000Z</time>
      </trkpt>
      <trkpt lat="45.70238" lon="6.17335">
        <ele>1154</ele>
        <time>2013-01-25T08:19:34.000Z</time>
      </trkpt>
      <trkpt lat="45.70247" lon="6.17338">
        <ele>1154.1999511719</ele>
        <time>2013-01-25T08:19:43.000Z</time>
      </trkpt>
      <trkpt lat="45.70255" lon="6.17341">
        <ele>1155.1999511719</ele>
        <time>2013-01-25T08:19:51.000Z</time>
      </trkpt>
      <trkpt lat="45.70262" lon="6.17341">
        <ele>1155.4000244141</ele>
        <time>2013-01-25T08:19:58.000Z</time>
      </trkpt>
      <trkpt lat="45.70268" lon="6.17341">
        <ele>1156.4000244141</ele>
        <time>2013-01-25T08:20:05.000Z</time>
      </trkpt>
      <trkpt lat="45.70277" lon="6.1734">
        <ele>1157.8000488281</ele>
        <time>2013-01-25T08:20:13.000Z</time>
      </trkpt>
      <trkpt lat="45.70282" lon="6.17335">
        <ele>1158</ele>
        <time>2013-01-25T08:20:20.000Z</time>
      </trkpt>
      <trkpt lat="45.70284" lon="6.17333">
        <ele>1159.5999755859</ele>
        <time>2013-01-25T08:20:23.000Z</time>
      </trkpt>
      <trkpt lat="45.7029" lon="6.17328">
        <ele>1158.4000244141</ele>
        <time>2013-01-25T08:20:31.000Z</time>
      </trkpt>
      <trkpt lat="45.70292" lon="6.17324">
        <ele>1160.5999755859</ele>
        <time>2013-01-25T08:20:35.000Z</time>
      </trkpt>
      <trkpt lat="45.70297" lon="6.17318">
        <ele>1161</ele>
        <time>2013-01-25T08:20:43.000Z</time>
      </trkpt>
      <trkpt lat="45.703" lon="6.17314">
        <ele>1160</ele>
        <time>2013-01-25T08:20:49.000Z</time>
      </trkpt>
      <trkpt lat="45.70307" lon="6.1731">
        <ele>1162</ele>
        <time>2013-01-25T08:20:57.000Z</time>
      </trkpt>
      <trkpt lat="45.70307" lon="6.1731">
        <ele>1162.1999511719</ele>
        <time>2013-01-25T08:20:58.000Z</time>
      </trkpt>
      <trkpt lat="45.70312" lon="6.17309">
        <ele>1162.5999755859</ele>
        <time>2013-01-25T08:21:04.000Z</time>
      </trkpt>
      <trkpt lat="45.70316" lon="6.17308">
        <ele>1161.5999755859</ele>
        <time>2013-01-25T08:21:10.000Z</time>
      </trkpt>
      <trkpt lat="45.70322" lon="6.17307">
        <ele>1163</ele>
        <time>2013-01-25T08:21:17.000Z</time>
      </trkpt>
      <trkpt lat="45.70328" lon="6.17309">
        <ele>1162.8000488281</ele>
        <time>2013-01-25T08:21:24.000Z</time>
      </trkpt>
      <trkpt lat="45.70335" lon="6.17309">
        <ele>1164</ele>
        <time>2013-01-25T08:21:30.000Z</time>
      </trkpt>
      <trkpt lat="45.70342" lon="6.17309">
        <ele>1164.1999511719</ele>
        <time>2013-01-25T08:21:36.000Z</time>
      </trkpt>
      <trkpt lat="45.70343" lon="6.17309">
        <ele>1164.4000244141</ele>
        <time>2013-01-25T08:21:37.000Z</time>
      </trkpt>
      <trkpt lat="45.70349" lon="6.17307">
        <ele>1164.8000488281</ele>
        <time>2013-01-25T08:21:44.000Z</time>
      </trkpt>
      <trkpt lat="45.70357" lon="6.17307">
        <ele>1165.5999755859</ele>
        <time>2013-01-25T08:21:52.000Z</time>
      </trkpt>
      <trkpt lat="45.70365" lon="6.17309">
        <ele>1165.5999755859</ele>
        <time>2013-01-25T08:22:01.000Z</time>
      </trkpt>
      <trkpt lat="45.70372" lon="6.17308">
        <ele>1167.1999511719</ele>
        <time>2013-01-25T08:22:08.000Z</time>
      </trkpt>
      <trkpt lat="45.70378" lon="6.17306">
        <ele>1168.1999511719</ele>
        <time>2013-01-25T08:22:16.000Z</time>
      </trkpt>
      <trkpt lat="45.70383" lon="6.17305">
        <ele>1167.8000488281</ele>
        <time>2013-01-25T08:22:22.000Z</time>
      </trkpt>
      <trkpt lat="45.7039" lon="6.17304">
        <ele>1168</ele>
        <time>2013-01-25T08:22:30.000Z</time>
      </trkpt>
      <trkpt lat="45.70398" lon="6.17302">
        <ele>1169.5999755859</ele>
        <time>2013-01-25T08:22:39.000Z</time>
      </trkpt>
      <trkpt lat="45.70411" lon="6.173">
        <ele>1170.1999511719</ele>
        <time>2013-01-25T08:22:50.000Z</time>
      </trkpt>
      <trkpt lat="45.70418" lon="6.17299">
        <ele>1171.4000244141</ele>
        <time>2013-01-25T08:22:59.000Z</time>
      </trkpt>
      <trkpt lat="45.70423" lon="6.17298">
        <ele>1172.1999511719</ele>
        <time>2013-01-25T08:23:07.000Z</time>
      </trkpt>
      <trkpt lat="45.70429" lon="6.17296">
        <ele>1173.4000244141</ele>
        <time>2013-01-25T08:23:15.000Z</time>
      </trkpt>
      <trkpt lat="45.70437" lon="6.17291">
        <ele>1174</ele>
        <time>2013-01-25T08:23:24.000Z</time>
      </trkpt>
      <trkpt lat="45.7044" lon="6.17289">
        <ele>1175.5999755859</ele>
        <time>2013-01-25T08:23:27.000Z</time>
      </trkpt>
      <trkpt lat="45.70443" lon="6.17288">
        <ele>1175</ele>
        <time>2013-01-25T08:23:30.000Z</time>
      </trkpt>
      <trkpt lat="45.70447" lon="6.17284">
        <ele>1176.5999755859</ele>
        <time>2013-01-25T08:23:35.000Z</time>
      </trkpt>
      <trkpt lat="45.70453" lon="6.17279">
        <ele>1177.1999511719</ele>
        <time>2013-01-25T08:23:42.000Z</time>
      </trkpt>
      <trkpt lat="45.70456" lon="6.17277">
        <ele>1176.4000244141</ele>
        <time>2013-01-25T08:23:46.000Z</time>
      </trkpt>
      <trkpt lat="45.70464" lon="6.17272">
        <ele>1178</ele>
        <time>2013-01-25T08:23:55.000Z</time>
      </trkpt>
      <trkpt lat="45.7047" lon="6.17268">
        <ele>1178</ele>
        <time>2013-01-25T08:24:04.000Z</time>
      </trkpt>
      <trkpt lat="45.70473" lon="6.1727">
        <ele>1178.8000488281</ele>
        <time>2013-01-25T08:24:25.000Z</time>
      </trkpt>
      <trkpt lat="45.70476" lon="6.17271">
        <ele>1179.4000244141</ele>
        <time>2013-01-25T08:24:32.000Z</time>
      </trkpt>
      <trkpt lat="45.70483" lon="6.1727">
        <ele>1180.1999511719</ele>
        <time>2013-01-25T08:24:40.000Z</time>
      </trkpt>
      <trkpt lat="45.70487" lon="6.1727">
        <ele>1180.8000488281</ele>
        <time>2013-01-25T08:24:44.000Z</time>
      </trkpt>
      <trkpt lat="45.70492" lon="6.17269">
        <ele>1181.1999511719</ele>
        <time>2013-01-25T08:24:51.000Z</time>
      </trkpt>
      <trkpt lat="45.70499" lon="6.17267">
        <ele>1182.4000244141</ele>
        <time>2013-01-25T08:25:00.000Z</time>
      </trkpt>
      <trkpt lat="45.70507" lon="6.17267">
        <ele>1183</ele>
        <time>2013-01-25T08:25:09.000Z</time>
      </trkpt>
      <trkpt lat="45.70514" lon="6.17273">
        <ele>1186.4000244141</ele>
        <time>2013-01-25T08:25:19.000Z</time>
      </trkpt>
      <trkpt lat="45.70515" lon="6.17275">
        <ele>1187</ele>
        <time>2013-01-25T08:25:21.000Z</time>
      </trkpt>
      <trkpt lat="45.70519" lon="6.1728">
        <ele>1185.5999755859</ele>
        <time>2013-01-25T08:25:28.000Z</time>
      </trkpt>
      <trkpt lat="45.70524" lon="6.17285">
        <ele>1188</ele>
        <time>2013-01-25T08:25:36.000Z</time>
      </trkpt>
      <trkpt lat="45.7053" lon="6.17289">
        <ele>1189.8000488281</ele>
        <time>2013-01-25T08:25:46.000Z</time>
      </trkpt>
      <trkpt lat="45.70534" lon="6.17293">
        <ele>1191.8000488281</ele>
        <time>2013-01-25T08:25:54.000Z</time>
      </trkpt>
      <trkpt lat="45.70535" lon="6.17294">
        <ele>1192</ele>
        <time>2013-01-25T08:25:58.000Z</time>
      </trkpt>
      <trkpt lat="45.70536" lon="6.17295">
        <ele>1192.4000244141</ele>
        <time>2013-01-25T08:25:59.000Z</time>
      </trkpt>
      <trkpt lat="45.70542" lon="6.17301">
        <ele>1192.4000244141</ele>
        <time>2013-01-25T08:26:09.000Z</time>
      </trkpt>
      <trkpt lat="45.70546" lon="6.17303">
        <ele>1193.8000488281</ele>
        <time>2013-01-25T08:26:14.000Z</time>
      </trkpt>
      <trkpt lat="45.70548" lon="6.17309">
        <ele>1196.5999755859</ele>
        <time>2013-01-25T08:26:22.000Z</time>
      </trkpt>
      <trkpt lat="45.70548" lon="6.17317">
        <ele>1197.5999755859</ele>
        <time>2013-01-25T08:26:30.000Z</time>
      </trkpt>
      <trkpt lat="45.70547" lon="6.17325">
        <ele>1197.5999755859</ele>
        <time>2013-01-25T08:26:39.000Z</time>
      </trkpt>
      <trkpt lat="45.70548" lon="6.17331">
        <ele>1202.1999511719</ele>
        <time>2013-01-25T08:26:46.000Z</time>
      </trkpt>
      <trkpt lat="45.70554" lon="6.17336">
        <ele>1204</ele>
        <time>2013-01-25T08:26:55.000Z</time>
      </trkpt>
      <trkpt lat="45.7056" lon="6.17339">
        <ele>1205.1999511719</ele>
        <time>2013-01-25T08:27:04.000Z</time>
      </trkpt>
      <trkpt lat="45.70567" lon="6.17341">
        <ele>1205.4000244141</ele>
        <time>2013-01-25T08:27:13.000Z</time>
      </trkpt>
      <trkpt lat="45.70571" lon="6.17342">
        <ele>1207.5999755859</ele>
        <time>2013-01-25T08:27:18.000Z</time>
      </trkpt>
      <trkpt lat="45.70578" lon="6.17346">
        <ele>1208.1999511719</ele>
        <time>2013-01-25T08:27:28.000Z</time>
      </trkpt>
      <trkpt lat="45.70583" lon="6.17349">
        <ele>1211</ele>
        <time>2013-01-25T08:27:36.000Z</time>
      </trkpt>
      <trkpt lat="45.70583" lon="6.17349">
        <ele>1211.1999511719</ele>
        <time>2013-01-25T08:27:37.000Z</time>
      </trkpt>
      <trkpt lat="45.70581" lon="6.17351">
        <ele>1211.4000244141</ele>
        <time>2013-01-25T08:27:44.000Z</time>
      </trkpt>
      <trkpt lat="45.70575" lon="6.17354">
        <ele>1212.5999755859</ele>
        <time>2013-01-25T08:27:53.000Z</time>
      </trkpt>
      <trkpt lat="45.70572" lon="6.17355">
        <ele>1212.5999755859</ele>
        <time>2013-01-25T08:28:03.000Z</time>
      </trkpt>
      <trkpt lat="45.70571" lon="6.17355">
        <ele>1212.4000244141</ele>
        <time>2013-01-25T08:28:09.000Z</time>
      </trkpt>
      <trkpt lat="45.70569" lon="6.17363">
        <ele>1213</ele>
        <time>2013-01-25T08:28:51.000Z</time>
      </trkpt>
      <trkpt lat="45.70565" lon="6.17367">
        <ele>1212.4000244141</ele>
        <time>2013-01-25T08:28:59.000Z</time>
      </trkpt>
      <trkpt lat="45.70559" lon="6.17374">
        <ele>1216.1999511719</ele>
        <time>2013-01-25T08:29:09.000Z</time>
      </trkpt>
      <trkpt lat="45.70558" lon="6.17379">
        <ele>1218.1999511719</ele>
        <time>2013-01-25T08:29:18.000Z</time>
      </trkpt>
      <trkpt lat="45.70562" lon="6.17381">
        <ele>1219.1999511719</ele>
        <time>2013-01-25T08:29:24.000Z</time>
      </trkpt>
      <trkpt lat="45.70565" lon="6.17382">
        <ele>1220.4000244141</ele>
        <time>2013-01-25T08:29:30.000Z</time>
      </trkpt>
      <trkpt lat="45.70571" lon="6.17385">
        <ele>1222.4000244141</ele>
        <time>2013-01-25T08:29:39.000Z</time>
      </trkpt>
      <trkpt lat="45.70572" lon="6.17386">
        <ele>1222.1999511719</ele>
        <time>2013-01-25T08:29:40.000Z</time>
      </trkpt>
      <trkpt lat="45.70577" lon="6.17388">
        <ele>1222.8000488281</ele>
        <time>2013-01-25T08:29:47.000Z</time>
      </trkpt>
      <trkpt lat="45.70581" lon="6.17391">
        <ele>1224.4000244141</ele>
        <time>2013-01-25T08:29:53.000Z</time>
      </trkpt>
      <trkpt lat="45.70583" lon="6.17393">
        <ele>1226.4000244141</ele>
        <time>2013-01-25T08:29:57.000Z</time>
      </trkpt>
      <trkpt lat="45.70587" lon="6.17396">
        <ele>1226.1999511719</ele>
        <time>2013-01-25T08:30:05.000Z</time>
      </trkpt>
      <trkpt lat="45.70587" lon="6.17397">
        <ele>1227</ele>
        <time>2013-01-25T08:30:10.000Z</time>
      </trkpt>
      <trkpt lat="45.70586" lon="6.17399">
        <ele>1227.8000488281</ele>
        <time>2013-01-25T08:30:13.000Z</time>
      </trkpt>
      <trkpt lat="45.70583" lon="6.17399">
        <ele>1227.5999755859</ele>
        <time>2013-01-25T08:30:17.000Z</time>
      </trkpt>
      <trkpt lat="45.70579" lon="6.17404">
        <ele>1231</ele>
        <time>2013-01-25T08:30:24.000Z</time>
      </trkpt>
      <trkpt lat="45.70576" lon="6.1741">
        <ele>1232.5999755859</ele>
        <time>2013-01-25T08:30:33.000Z</time>
      </trkpt>
      <trkpt lat="45.70575" lon="6.17411">
        <ele>1232.5999755859</ele>
        <time>2013-01-25T08:30:34.000Z</time>
      </trkpt>
      <trkpt lat="45.70572" lon="6.17417">
        <ele>1233.1999511719</ele>
        <time>2013-01-25T08:30:43.000Z</time>
      </trkpt>
      <trkpt lat="45.70571" lon="6.17425">
        <ele>1234.4000244141</ele>
        <time>2013-01-25T08:30:52.000Z</time>
      </trkpt>
      <trkpt lat="45.70576" lon="6.1743">
        <ele>1235.8000488281</ele>
        <time>2013-01-25T08:31:00.000Z</time>
      </trkpt>
      <trkpt lat="45.70578" lon="6.17432">
        <ele>1234.5999755859</ele>
        <time>2013-01-25T08:31:03.000Z</time>
      </trkpt>
      <trkpt lat="45.70582" lon="6.17436">
        <ele>1239.5999755859</ele>
        <time>2013-01-25T08:31:09.000Z</time>
      </trkpt>
      <trkpt lat="45.7059" lon="6.17443">
        <ele>1240.5999755859</ele>
        <time>2013-01-25T08:31:19.000Z</time>
      </trkpt>
      <trkpt lat="45.70591" lon="6.17447">
        <ele>1241.5999755859</ele>
        <time>2013-01-25T08:31:23.000Z</time>
      </trkpt>
      <trkpt lat="45.70586" lon="6.17454">
        <ele>1243</ele>
        <time>2013-01-25T08:31:31.000Z</time>
      </trkpt>
      <trkpt lat="45.70586" lon="6.17464">
        <ele>1244.5999755859</ele>
        <time>2013-01-25T08:31:40.000Z</time>
      </trkpt>
      <trkpt lat="45.7059" lon="6.17472">
        <ele>1245.8000488281</ele>
        <time>2013-01-25T08:31:47.000Z</time>
      </trkpt>
      <trkpt lat="45.70591" lon="6.17475">
        <ele>1245.8000488281</ele>
        <time>2013-01-25T08:31:49.000Z</time>
      </trkpt>
      <trkpt lat="45.70595" lon="6.17484">
        <ele>1248.4000244141</ele>
        <time>2013-01-25T08:31:57.000Z</time>
      </trkpt>
      <trkpt lat="45.70596" lon="6.17487">
        <ele>1249.8000488281</ele>
        <time>2013-01-25T08:32:00.000Z</time>
      </trkpt>
      <trkpt lat="45.70599" lon="6.17493">
        <ele>1250</ele>
        <time>2013-01-25T08:32:06.000Z</time>
      </trkpt>
      <trkpt lat="45.70604" lon="6.17497">
        <ele>1251.4000244141</ele>
        <time>2013-01-25T08:32:12.000Z</time>
      </trkpt>
      <trkpt lat="45.70611" lon="6.17503">
        <ele>1252.5999755859</ele>
        <time>2013-01-25T08:32:21.000Z</time>
      </trkpt>
      <trkpt lat="45.70611" lon="6.17504">
        <ele>1253</ele>
        <time>2013-01-25T08:32:22.000Z</time>
      </trkpt>
      <trkpt lat="45.70612" lon="6.17509">
        <ele>1253.4000244141</ele>
        <time>2013-01-25T08:32:26.000Z</time>
      </trkpt>
      <trkpt lat="45.70612" lon="6.1752">
        <ele>1254.1999511719</ele>
        <time>2013-01-25T08:32:34.000Z</time>
      </trkpt>
      <trkpt lat="45.70612" lon="6.17529">
        <ele>1253.8000488281</ele>
        <time>2013-01-25T08:32:41.000Z</time>
      </trkpt>
      <trkpt lat="45.70612" lon="6.17539">
        <ele>1254.1999511719</ele>
        <time>2013-01-25T08:32:49.000Z</time>
      </trkpt>
      <trkpt lat="45.70615" lon="6.17547">
        <ele>1255.8000488281</ele>
        <time>2013-01-25T08:32:56.000Z</time>
      </trkpt>
      <trkpt lat="45.7062" lon="6.17552">
        <ele>1257.1999511719</ele>
        <time>2013-01-25T08:33:04.000Z</time>
      </trkpt>
      <trkpt lat="45.70621" lon="6.17554">
        <ele>1258.5999755859</ele>
        <time>2013-01-25T08:33:07.000Z</time>
      </trkpt>
      <trkpt lat="45.70624" lon="6.17557">
        <ele>1257.4000244141</ele>
        <time>2013-01-25T08:33:12.000Z</time>
      </trkpt>
      <trkpt lat="45.70628" lon="6.17562">
        <ele>1259.1999511719</ele>
        <time>2013-01-25T08:33:19.000Z</time>
      </trkpt>
      <trkpt lat="45.70629" lon="6.17564">
        <ele>1261</ele>
        <time>2013-01-25T08:33:22.000Z</time>
      </trkpt>
      <trkpt lat="45.70632" lon="6.17565">
        <ele>1260.4000244141</ele>
        <time>2013-01-25T08:33:31.000Z</time>
      </trkpt>
      <trkpt lat="45.70635" lon="6.17569">
        <ele>1261.1999511719</ele>
        <time>2013-01-25T08:33:58.000Z</time>
      </trkpt>
      <trkpt lat="45.70634" lon="6.17573">
        <ele>1261.1999511719</ele>
        <time>2013-01-25T08:34:04.000Z</time>
      </trkpt>
      <trkpt lat="45.70633" lon="6.17577">
        <ele>1261.4000244141</ele>
        <time>2013-01-25T08:34:44.000Z</time>
      </trkpt>
      <trkpt lat="45.70633" lon="6.17574">
        <ele>1262</ele>
        <time>2013-01-25T08:34:49.000Z</time>
      </trkpt>
      <trkpt lat="45.70634" lon="6.17571">
        <ele>1261.1999511719</ele>
        <time>2013-01-25T08:34:58.000Z</time>
      </trkpt>
      <trkpt lat="45.7064" lon="6.17569">
        <ele>1261.8000488281</ele>
        <time>2013-01-25T08:36:30.000Z</time>
      </trkpt>
      <trkpt lat="45.70642" lon="6.17572">
        <ele>1262</ele>
        <time>2013-01-25T08:36:35.000Z</time>
      </trkpt>
      <trkpt lat="45.70645" lon="6.17577">
        <ele>1261.8000488281</ele>
        <time>2013-01-25T08:36:42.000Z</time>
      </trkpt>
      <trkpt lat="45.70649" lon="6.17581">
        <ele>1264.8000488281</ele>
        <time>2013-01-25T08:36:49.000Z</time>
      </trkpt>
      <trkpt lat="45.70655" lon="6.17585">
        <ele>1266.8000488281</ele>
        <time>2013-01-25T08:36:57.000Z</time>
      </trkpt>
      <trkpt lat="45.70658" lon="6.17589">
        <ele>1267.4000244141</ele>
        <time>2013-01-25T08:37:04.000Z</time>
      </trkpt>
      <trkpt lat="45.70662" lon="6.17596">
        <ele>1268.8000488281</ele>
        <time>2013-01-25T08:37:20.000Z</time>
      </trkpt>
      <trkpt lat="45.70665" lon="6.17599">
        <ele>1269</ele>
        <time>2013-01-25T08:37:26.000Z</time>
      </trkpt>
      <trkpt lat="45.70667" lon="6.17602">
        <ele>1271.1999511719</ele>
        <time>2013-01-25T08:37:32.000Z</time>
      </trkpt>
      <trkpt lat="45.70673" lon="6.17604">
        <ele>1271.5999755859</ele>
        <time>2013-01-25T08:37:44.000Z</time>
      </trkpt>
      <trkpt lat="45.70677" lon="6.17607">
        <ele>1272.1999511719</ele>
        <time>2013-01-25T08:37:52.000Z</time>
      </trkpt>
      <trkpt lat="45.7068" lon="6.17609">
        <ele>1272.1999511719</ele>
        <time>2013-01-25T08:37:59.000Z</time>
      </trkpt>
      <trkpt lat="45.70683" lon="6.17614">
        <ele>1273.4000244141</ele>
        <time>2013-01-25T08:38:06.000Z</time>
      </trkpt>
      <trkpt lat="45.70686" lon="6.17617">
        <ele>1273.5999755859</ele>
        <time>2013-01-25T08:38:11.000Z</time>
      </trkpt>
      <trkpt lat="45.70688" lon="6.1762">
        <ele>1274.5999755859</ele>
        <time>2013-01-25T08:38:15.000Z</time>
      </trkpt>
      <trkpt lat="45.7069" lon="6.17627">
        <ele>1276</ele>
        <time>2013-01-25T08:38:24.000Z</time>
      </trkpt>
      <trkpt lat="45.70691" lon="6.17633">
        <ele>1276</ele>
        <time>2013-01-25T08:38:31.000Z</time>
      </trkpt>
      <trkpt lat="45.70693" lon="6.1764">
        <ele>1278.8000488281</ele>
        <time>2013-01-25T08:38:38.000Z</time>
      </trkpt>
      <trkpt lat="45.70695" lon="6.17647">
        <ele>1280</ele>
        <time>2013-01-25T08:38:46.000Z</time>
      </trkpt>
      <trkpt lat="45.70697" lon="6.17656">
        <ele>1281.8000488281</ele>
        <time>2013-01-25T08:38:54.000Z</time>
      </trkpt>
      <trkpt lat="45.70697" lon="6.17657">
        <ele>1282</ele>
        <time>2013-01-25T08:38:55.000Z</time>
      </trkpt>
      <trkpt lat="45.70697" lon="6.17666">
        <ele>1282.1999511719</ele>
        <time>2013-01-25T08:39:03.000Z</time>
      </trkpt>
      <trkpt lat="45.70696" lon="6.17675">
        <ele>1282</ele>
        <time>2013-01-25T08:39:10.000Z</time>
      </trkpt>
      <trkpt lat="45.70696" lon="6.17682">
        <ele>1283.4000244141</ele>
        <time>2013-01-25T08:39:19.000Z</time>
      </trkpt>
      <trkpt lat="45.70697" lon="6.1769">
        <ele>1284</ele>
        <time>2013-01-25T08:39:31.000Z</time>
      </trkpt>
      <trkpt lat="45.70699" lon="6.17701">
        <ele>1285</ele>
        <time>2013-01-25T08:39:40.000Z</time>
      </trkpt>
      <trkpt lat="45.70702" lon="6.1771">
        <ele>1285.8000488281</ele>
        <time>2013-01-25T08:39:48.000Z</time>
      </trkpt>
      <trkpt lat="45.70705" lon="6.17718">
        <ele>1288.5999755859</ele>
        <time>2013-01-25T08:39:56.000Z</time>
      </trkpt>
      <trkpt lat="45.70707" lon="6.17725">
        <ele>1287.8000488281</ele>
        <time>2013-01-25T08:40:04.000Z</time>
      </trkpt>
      <trkpt lat="45.70709" lon="6.17732">
        <ele>1290.1999511719</ele>
        <time>2013-01-25T08:40:13.000Z</time>
      </trkpt>
      <trkpt lat="45.70712" lon="6.17741">
        <ele>1290.5999755859</ele>
        <time>2013-01-25T08:40:22.000Z</time>
      </trkpt>
      <trkpt lat="45.70714" lon="6.17748">
        <ele>1291.1999511719</ele>
        <time>2013-01-25T08:40:30.000Z</time>
      </trkpt>
      <trkpt lat="45.70715" lon="6.17755">
        <ele>1293.1999511719</ele>
        <time>2013-01-25T08:40:36.000Z</time>
      </trkpt>
      <trkpt lat="45.70718" lon="6.17763">
        <ele>1293.4000244141</ele>
        <time>2013-01-25T08:40:43.000Z</time>
      </trkpt>
      <trkpt lat="45.70719" lon="6.17766">
        <ele>1294.1999511719</ele>
        <time>2013-01-25T08:40:45.000Z</time>
      </trkpt>
      <trkpt lat="45.70721" lon="6.17773">
        <ele>1293.4000244141</ele>
        <time>2013-01-25T08:40:53.000Z</time>
      </trkpt>
      <trkpt lat="45.70722" lon="6.17776">
        <ele>1295</ele>
        <time>2013-01-25T08:40:57.000Z</time>
      </trkpt>
      <trkpt lat="45.70724" lon="6.17784">
        <ele>1296.8000488281</ele>
        <time>2013-01-25T08:41:04.000Z</time>
      </trkpt>
      <trkpt lat="45.70728" lon="6.17784">
        <ele>1294.5999755859</ele>
        <time>2013-01-25T08:41:15.000Z</time>
      </trkpt>
      <trkpt lat="45.70731" lon="6.17791">
        <ele>1298.8000488281</ele>
        <time>2013-01-25T08:41:25.000Z</time>
      </trkpt>
      <trkpt lat="45.70732" lon="6.17794">
        <ele>1299.1999511719</ele>
        <time>2013-01-25T08:41:31.000Z</time>
      </trkpt>
      <trkpt lat="45.70733" lon="6.17799">
        <ele>1300.1999511719</ele>
        <time>2013-01-25T08:41:37.000Z</time>
      </trkpt>
      <trkpt lat="45.70736" lon="6.17808">
        <ele>1300.4000244141</ele>
        <time>2013-01-25T08:41:47.000Z</time>
      </trkpt>
      <trkpt lat="45.70739" lon="6.17814">
        <ele>1302</ele>
        <time>2013-01-25T08:41:54.000Z</time>
      </trkpt>
      <trkpt lat="45.70739" lon="6.17816">
        <ele>1303.1999511719</ele>
        <time>2013-01-25T08:41:56.000Z</time>
      </trkpt>
      <trkpt lat="45.7074" lon="6.17823">
        <ele>1304.8000488281</ele>
        <time>2013-01-25T08:42:03.000Z</time>
      </trkpt>
      <trkpt lat="45.70742" lon="6.17829">
        <ele>1305.4000244141</ele>
        <time>2013-01-25T08:42:11.000Z</time>
      </trkpt>
      <trkpt lat="45.70743" lon="6.17836">
        <ele>1307</ele>
        <time>2013-01-25T08:42:18.000Z</time>
      </trkpt>
      <trkpt lat="45.70747" lon="6.17842">
        <ele>1308.8000488281</ele>
        <time>2013-01-25T08:42:26.000Z</time>
      </trkpt>
      <trkpt lat="45.7075" lon="6.17848">
        <ele>1310.1999511719</ele>
        <time>2013-01-25T08:42:34.000Z</time>
      </trkpt>
      <trkpt lat="45.70754" lon="6.17855">
        <ele>1310.5999755859</ele>
        <time>2013-01-25T08:42:44.000Z</time>
      </trkpt>
      <trkpt lat="45.70755" lon="6.1786">
        <ele>1312</ele>
        <time>2013-01-25T08:42:49.000Z</time>
      </trkpt>
      <trkpt lat="45.70758" lon="6.17868">
        <ele>1314.1999511719</ele>
        <time>2013-01-25T08:42:57.000Z</time>
      </trkpt>
      <trkpt lat="45.70758" lon="6.1787">
        <ele>1315.5999755859</ele>
        <time>2013-01-25T08:42:59.000Z</time>
      </trkpt>
      <trkpt lat="45.7076" lon="6.17878">
        <ele>1315.4000244141</ele>
        <time>2013-01-25T08:43:07.000Z</time>
      </trkpt>
      <trkpt lat="45.70761" lon="6.17887">
        <ele>1318.8000488281</ele>
        <time>2013-01-25T08:43:15.000Z</time>
      </trkpt>
      <trkpt lat="45.70763" lon="6.17895">
        <ele>1318.8000488281</ele>
        <time>2013-01-25T08:43:23.000Z</time>
      </trkpt>
      <trkpt lat="45.70767" lon="6.17902">
        <ele>1321</ele>
        <time>2013-01-25T08:43:31.000Z</time>
      </trkpt>
      <trkpt lat="45.70769" lon="6.17905">
        <ele>1323</ele>
        <time>2013-01-25T08:43:37.000Z</time>
      </trkpt>
      <trkpt lat="45.70774" lon="6.17907">
        <ele>1323.1999511719</ele>
        <time>2013-01-25T08:43:44.000Z</time>
      </trkpt>
      <trkpt lat="45.70775" lon="6.17908">
        <ele>1323.4000244141</ele>
        <time>2013-01-25T08:43:45.000Z</time>
      </trkpt>
      <trkpt lat="45.70779" lon="6.17912">
        <ele>1324.8000488281</ele>
        <time>2013-01-25T08:43:53.000Z</time>
      </trkpt>
      <trkpt lat="45.70782" lon="6.17916">
        <ele>1326.8000488281</ele>
        <time>2013-01-25T08:43:58.000Z</time>
      </trkpt>
      <trkpt lat="45.70786" lon="6.1792">
        <ele>1327.4000244141</ele>
        <time>2013-01-25T08:44:04.000Z</time>
      </trkpt>
      <trkpt lat="45.70787" lon="6.17926">
        <ele>1328.4000244141</ele>
        <time>2013-01-25T08:44:11.000Z</time>
      </trkpt>
      <trkpt lat="45.70789" lon="6.17928">
        <ele>1330.5999755859</ele>
        <time>2013-01-25T08:44:16.000Z</time>
      </trkpt>
      <trkpt lat="45.7079" lon="6.17934">
        <ele>1329.4000244141</ele>
        <time>2013-01-25T08:44:22.000Z</time>
      </trkpt>
      <trkpt lat="45.70792" lon="6.17936">
        <ele>1332.1999511719</ele>
        <time>2013-01-25T08:44:27.000Z</time>
      </trkpt>
      <trkpt lat="45.70794" lon="6.17942">
        <ele>1333.8000488281</ele>
        <time>2013-01-25T08:44:34.000Z</time>
      </trkpt>
      <trkpt lat="45.70795" lon="6.17947">
        <ele>1335.1999511719</ele>
        <time>2013-01-25T08:44:41.000Z</time>
      </trkpt>
      <trkpt lat="45.70797" lon="6.17954">
        <ele>1334.5999755859</ele>
        <time>2013-01-25T08:44:48.000Z</time>
      </trkpt>
      <trkpt lat="45.70796" lon="6.1796">
        <ele>1337.4000244141</ele>
        <time>2013-01-25T08:44:53.000Z</time>
      </trkpt>
      <trkpt lat="45.70797" lon="6.17964">
        <ele>1337.5999755859</ele>
        <time>2013-01-25T08:44:58.000Z</time>
      </trkpt>
      <trkpt lat="45.708" lon="6.17967">
        <ele>1337.4000244141</ele>
        <time>2013-01-25T08:45:05.000Z</time>
      </trkpt>
      <trkpt lat="45.70802" lon="6.17967">
        <ele>1339</ele>
        <time>2013-01-25T08:45:07.000Z</time>
      </trkpt>
      <trkpt lat="45.70805" lon="6.17969">
        <ele>1340.1999511719</ele>
        <time>2013-01-25T08:45:12.000Z</time>
      </trkpt>
      <trkpt lat="45.70807" lon="6.17972">
        <ele>1341.8000488281</ele>
        <time>2013-01-25T08:45:19.000Z</time>
      </trkpt>
      <trkpt lat="45.70811" lon="6.17975">
        <ele>1342.4000244141</ele>
        <time>2013-01-25T08:45:32.000Z</time>
      </trkpt>
      <trkpt lat="45.7081" lon="6.17976">
        <ele>1343.8000488281</ele>
        <time>2013-01-25T08:45:35.000Z</time>
      </trkpt>
      <trkpt lat="45.7081" lon="6.1798">
        <ele>1344.1999511719</ele>
        <time>2013-01-25T08:45:41.000Z</time>
      </trkpt>
      <trkpt lat="45.70812" lon="6.17985">
        <ele>1344.8000488281</ele>
        <time>2013-01-25T08:45:46.000Z</time>
      </trkpt>
      <trkpt lat="45.70812" lon="6.17991">
        <ele>1347.4000244141</ele>
        <time>2013-01-25T08:45:56.000Z</time>
      </trkpt>
      <trkpt lat="45.70814" lon="6.17994">
        <ele>1348.1999511719</ele>
        <time>2013-01-25T08:46:01.000Z</time>
      </trkpt>
      <trkpt lat="45.70817" lon="6.18001">
        <ele>1349.1999511719</ele>
        <time>2013-01-25T08:46:14.000Z</time>
      </trkpt>
      <trkpt lat="45.7082" lon="6.18006">
        <ele>1352</ele>
        <time>2013-01-25T08:46:21.000Z</time>
      </trkpt>
      <trkpt lat="45.70818" lon="6.18011">
        <ele>1353</ele>
        <time>2013-01-25T08:46:27.000Z</time>
      </trkpt>
      <trkpt lat="45.70819" lon="6.18015">
        <ele>1353.8000488281</ele>
        <time>2013-01-25T08:46:33.000Z</time>
      </trkpt>
      <trkpt lat="45.70822" lon="6.18019">
        <ele>1355</ele>
        <time>2013-01-25T08:46:40.000Z</time>
      </trkpt>
      <trkpt lat="45.70822" lon="6.18021">
        <ele>1355.8000488281</ele>
        <time>2013-01-25T08:46:42.000Z</time>
      </trkpt>
      <trkpt lat="45.70821" lon="6.18026">
        <ele>1357.8000488281</ele>
        <time>2013-01-25T08:46:48.000Z</time>
      </trkpt>
      <trkpt lat="45.7082" lon="6.1803">
        <ele>1357.1999511719</ele>
        <time>2013-01-25T08:46:53.000Z</time>
      </trkpt>
      <trkpt lat="45.70817" lon="6.18033">
        <ele>1359</ele>
        <time>2013-01-25T08:46:59.000Z</time>
      </trkpt>
      <trkpt lat="45.70813" lon="6.18038">
        <ele>1360.1999511719</ele>
        <time>2013-01-25T08:47:04.000Z</time>
      </trkpt>
      <trkpt lat="45.70811" lon="6.18039">
        <ele>1360.1999511719</ele>
        <time>2013-01-25T08:47:12.000Z</time>
      </trkpt>
      <trkpt lat="45.70809" lon="6.18041">
        <ele>1360.1999511719</ele>
        <time>2013-01-25T08:47:19.000Z</time>
      </trkpt>
      <trkpt lat="45.7081" lon="6.18049">
        <ele>1359.8000488281</ele>
        <time>2013-01-25T08:47:44.000Z</time>
      </trkpt>
      <trkpt lat="45.70807" lon="6.18056">
        <ele>1359.5999755859</ele>
        <time>2013-01-25T08:47:51.000Z</time>
      </trkpt>
      <trkpt lat="45.70805" lon="6.18063">
        <ele>1359.8000488281</ele>
        <time>2013-01-25T08:47:58.000Z</time>
      </trkpt>
      <trkpt lat="45.70801" lon="6.18069">
        <ele>1361.4000244141</ele>
        <time>2013-01-25T08:48:06.000Z</time>
      </trkpt>
      <trkpt lat="45.70798" lon="6.18073">
        <ele>1360</ele>
        <time>2013-01-25T08:48:11.000Z</time>
      </trkpt>
      <trkpt lat="45.70797" lon="6.18079">
        <ele>1362</ele>
        <time>2013-01-25T08:48:15.000Z</time>
      </trkpt>
      <trkpt lat="45.70799" lon="6.18082">
        <ele>1363.5999755859</ele>
        <time>2013-01-25T08:48:23.000Z</time>
      </trkpt>
      <trkpt lat="45.70797" lon="6.18089">
        <ele>1365.5999755859</ele>
        <time>2013-01-25T08:48:30.000Z</time>
      </trkpt>
      <trkpt lat="45.70797" lon="6.1809">
        <ele>1365.5999755859</ele>
        <time>2013-01-25T08:48:31.000Z</time>
      </trkpt>
      <trkpt lat="45.70797" lon="6.18096">
        <ele>1364.8000488281</ele>
        <time>2013-01-25T08:48:35.000Z</time>
      </trkpt>
      <trkpt lat="45.70796" lon="6.18102">
        <ele>1365.4000244141</ele>
        <time>2013-01-25T08:48:41.000Z</time>
      </trkpt>
      <trkpt lat="45.70789" lon="6.18109">
        <ele>1365.1999511719</ele>
        <time>2013-01-25T08:48:49.000Z</time>
      </trkpt>
      <trkpt lat="45.70784" lon="6.18113">
        <ele>1365.4000244141</ele>
        <time>2013-01-25T08:48:55.000Z</time>
      </trkpt>
      <trkpt lat="45.70777" lon="6.18115">
        <ele>1366.4000244141</ele>
        <time>2013-01-25T08:49:01.000Z</time>
      </trkpt>
      <trkpt lat="45.70776" lon="6.1812">
        <ele>1365.4000244141</ele>
        <time>2013-01-25T08:49:07.000Z</time>
      </trkpt>
      <trkpt lat="45.70774" lon="6.18127">
        <ele>1366.5999755859</ele>
        <time>2013-01-25T08:49:12.000Z</time>
      </trkpt>
      <trkpt lat="45.70773" lon="6.18132">
        <ele>1367.8000488281</ele>
        <time>2013-01-25T08:49:17.000Z</time>
      </trkpt>
      <trkpt lat="45.70769" lon="6.18136">
        <ele>1368.4000244141</ele>
        <time>2013-01-25T08:49:24.000Z</time>
      </trkpt>
      <trkpt lat="45.70767" lon="6.18143">
        <ele>1369.8000488281</ele>
        <time>2013-01-25T08:49:32.000Z</time>
      </trkpt>
      <trkpt lat="45.70774" lon="6.18147">
        <ele>1371</ele>
        <time>2013-01-25T08:49:41.000Z</time>
      </trkpt>
      <trkpt lat="45.70778" lon="6.18144">
        <ele>1372.8000488281</ele>
        <time>2013-01-25T08:49:46.000Z</time>
      </trkpt>
      <trkpt lat="45.70784" lon="6.18142">
        <ele>1373.8000488281</ele>
        <time>2013-01-25T08:49:52.000Z</time>
      </trkpt>
      <trkpt lat="45.70788" lon="6.18141">
        <ele>1374.1999511719</ele>
        <time>2013-01-25T08:49:56.000Z</time>
      </trkpt>
      <trkpt lat="45.70791" lon="6.18141">
        <ele>1376</ele>
        <time>2013-01-25T08:50:01.000Z</time>
      </trkpt>
      <trkpt lat="45.70792" lon="6.18136">
        <ele>1376.1999511719</ele>
        <time>2013-01-25T08:50:06.000Z</time>
      </trkpt>
      <trkpt lat="45.70796" lon="6.18135">
        <ele>1379</ele>
        <time>2013-01-25T08:50:13.000Z</time>
      </trkpt>
      <trkpt lat="45.70796" lon="6.18135">
        <ele>1379</ele>
        <time>2013-01-25T08:50:14.000Z</time>
      </trkpt>
      <trkpt lat="45.70801" lon="6.18135">
        <ele>1377.1999511719</ele>
        <time>2013-01-25T08:50:21.000Z</time>
      </trkpt>
      <trkpt lat="45.70804" lon="6.18132">
        <ele>1379.4000244141</ele>
        <time>2013-01-25T08:50:26.000Z</time>
      </trkpt>
      <trkpt lat="45.70807" lon="6.18129">
        <ele>1379.8000488281</ele>
        <time>2013-01-25T08:50:31.000Z</time>
      </trkpt>
      <trkpt lat="45.70809" lon="6.18136">
        <ele>1381.1999511719</ele>
        <time>2013-01-25T08:50:37.000Z</time>
      </trkpt>
      <trkpt lat="45.7081" lon="6.18141">
        <ele>1381</ele>
        <time>2013-01-25T08:50:53.000Z</time>
      </trkpt>
      <trkpt lat="45.70815" lon="6.18137">
        <ele>1384</ele>
        <time>2013-01-25T08:51:00.000Z</time>
      </trkpt>
      <trkpt lat="45.70818" lon="6.18134">
        <ele>1385</ele>
        <time>2013-01-25T08:51:06.000Z</time>
      </trkpt>
      <trkpt lat="45.70823" lon="6.18133">
        <ele>1385.4000244141</ele>
        <time>2013-01-25T08:51:12.000Z</time>
      </trkpt>
      <trkpt lat="45.70824" lon="6.18133">
        <ele>1385.4000244141</ele>
        <time>2013-01-25T08:51:13.000Z</time>
      </trkpt>
      <trkpt lat="45.7083" lon="6.18136">
        <ele>1386.1999511719</ele>
        <time>2013-01-25T08:51:19.000Z</time>
      </trkpt>
      <trkpt lat="45.70833" lon="6.18137">
        <ele>1386.1999511719</ele>
        <time>2013-01-25T08:51:24.000Z</time>
      </trkpt>
      <trkpt lat="45.70837" lon="6.18141">
        <ele>1389.1999511719</ele>
        <time>2013-01-25T08:51:30.000Z</time>
      </trkpt>
      <trkpt lat="45.70841" lon="6.18144">
        <ele>1389.4000244141</ele>
        <time>2013-01-25T08:51:36.000Z</time>
      </trkpt>
      <trkpt lat="45.70836" lon="6.18148">
        <ele>1389.1999511719</ele>
        <time>2013-01-25T08:52:00.000Z</time>
      </trkpt>
      <trkpt lat="45.70831" lon="6.1815">
        <ele>1390.4000244141</ele>
        <time>2013-01-25T08:52:08.000Z</time>
      </trkpt>
      <trkpt lat="45.70829" lon="6.18152">
        <ele>1391.8000488281</ele>
        <time>2013-01-25T08:52:16.000Z</time>
      </trkpt>
      <trkpt lat="45.70836" lon="6.18154">
        <ele>1393</ele>
        <time>2013-01-25T08:52:25.000Z</time>
      </trkpt>
      <trkpt lat="45.70841" lon="6.18162">
        <ele>1394</ele>
        <time>2013-01-25T08:52:34.000Z</time>
      </trkpt>
      <trkpt lat="45.70841" lon="6.18164">
        <ele>1395</ele>
        <time>2013-01-25T08:52:36.000Z</time>
      </trkpt>
      <trkpt lat="45.70848" lon="6.18169">
        <ele>1396.8000488281</ele>
        <time>2013-01-25T08:52:44.000Z</time>
      </trkpt>
      <trkpt lat="45.70849" lon="6.18175">
        <ele>1397.5999755859</ele>
        <time>2013-01-25T08:52:53.000Z</time>
      </trkpt>
      <trkpt lat="45.70847" lon="6.18178">
        <ele>1399.1999511719</ele>
        <time>2013-01-25T08:52:57.000Z</time>
      </trkpt>
      <trkpt lat="45.70851" lon="6.18174">
        <ele>1400.4000244141</ele>
        <time>2013-01-25T08:53:03.000Z</time>
      </trkpt>
      <trkpt lat="45.70856" lon="6.18179">
        <ele>1400.1999511719</ele>
        <time>2013-01-25T08:53:12.000Z</time>
      </trkpt>
      <trkpt lat="45.70862" lon="6.18179">
        <ele>1400.1999511719</ele>
        <time>2013-01-25T08:53:24.000Z</time>
      </trkpt>
      <trkpt lat="45.70859" lon="6.18188">
        <ele>1406</ele>
        <time>2013-01-25T08:53:33.000Z</time>
      </trkpt>
      <trkpt lat="45.70857" lon="6.18193">
        <ele>1406</ele>
        <time>2013-01-25T08:53:39.000Z</time>
      </trkpt>
      <trkpt lat="45.70854" lon="6.182">
        <ele>1407.4000244141</ele>
        <time>2013-01-25T08:53:46.000Z</time>
      </trkpt>
      <trkpt lat="45.70855" lon="6.18209">
        <ele>1409</ele>
        <time>2013-01-25T08:53:59.000Z</time>
      </trkpt>
      <trkpt lat="45.70849" lon="6.18212">
        <ele>1411</ele>
        <time>2013-01-25T08:54:09.000Z</time>
      </trkpt>
      <trkpt lat="45.7085" lon="6.18213">
        <ele>1412.4000244141</ele>
        <time>2013-01-25T08:54:12.000Z</time>
      </trkpt>
      <trkpt lat="45.70863" lon="6.18223">
        <ele>1417</ele>
        <time>2013-01-25T08:54:45.000Z</time>
      </trkpt>
      <trkpt lat="45.70864" lon="6.18216">
        <ele>1418.4000244141</ele>
        <time>2013-01-25T08:54:57.000Z</time>
      </trkpt>
      <trkpt lat="45.70872" lon="6.18226">
        <ele>1419.5999755859</ele>
        <time>2013-01-25T08:55:07.000Z</time>
      </trkpt>
      <trkpt lat="45.70875" lon="6.18228">
        <ele>1420.8000488281</ele>
        <time>2013-01-25T08:55:09.000Z</time>
      </trkpt>
      <trkpt lat="45.7088" lon="6.18231">
        <ele>1420.5999755859</ele>
        <time>2013-01-25T08:55:16.000Z</time>
      </trkpt>
      <trkpt lat="45.70894" lon="6.18218">
        <ele>1423.5999755859</ele>
        <time>2013-01-25T08:55:40.000Z</time>
      </trkpt>
      <trkpt lat="45.70903" lon="6.1824">
        <ele>1427.1999511719</ele>
        <time>2013-01-25T08:55:59.000Z</time>
      </trkpt>
      <trkpt lat="45.70899" lon="6.18239">
        <ele>1426.8000488281</ele>
        <time>2013-01-25T08:56:02.000Z</time>
      </trkpt>
      <trkpt lat="45.70894" lon="6.18241">
        <ele>1428.4000244141</ele>
        <time>2013-01-25T08:56:07.000Z</time>
      </trkpt>
      <trkpt lat="45.70896" lon="6.18247">
        <ele>1430.4000244141</ele>
        <time>2013-01-25T08:56:14.000Z</time>
      </trkpt>
      <trkpt lat="45.70901" lon="6.18244">
        <ele>1430.1999511719</ele>
        <time>2013-01-25T08:56:23.000Z</time>
      </trkpt>
      <trkpt lat="45.70906" lon="6.18247">
        <ele>1433</ele>
        <time>2013-01-25T08:56:29.000Z</time>
      </trkpt>
      <trkpt lat="45.7091" lon="6.18247">
        <ele>1432.1999511719</ele>
        <time>2013-01-25T08:56:35.000Z</time>
      </trkpt>
      <trkpt lat="45.7092" lon="6.18254">
        <ele>1434.1999511719</ele>
        <time>2013-01-25T08:56:43.000Z</time>
      </trkpt>
      <trkpt lat="45.70922" lon="6.18256">
        <ele>1434</ele>
        <time>2013-01-25T08:56:49.000Z</time>
      </trkpt>
      <trkpt lat="45.70918" lon="6.18256">
        <ele>1436</ele>
        <time>2013-01-25T08:56:55.000Z</time>
      </trkpt>
      <trkpt lat="45.70917" lon="6.18257">
        <ele>1437.8000488281</ele>
        <time>2013-01-25T08:57:02.000Z</time>
      </trkpt>
      <trkpt lat="45.70921" lon="6.18264">
        <ele>1437.5999755859</ele>
        <time>2013-01-25T08:57:09.000Z</time>
      </trkpt>
      <trkpt lat="45.70921" lon="6.18265">
        <ele>1439.1999511719</ele>
        <time>2013-01-25T08:57:16.000Z</time>
      </trkpt>
      <trkpt lat="45.70922" lon="6.1827">
        <ele>1440.4000244141</ele>
        <time>2013-01-25T08:57:19.000Z</time>
      </trkpt>
      <trkpt lat="45.70923" lon="6.18277">
        <ele>1440.4000244141</ele>
        <time>2013-01-25T08:57:25.000Z</time>
      </trkpt>
      <trkpt lat="45.70919" lon="6.1828">
        <ele>1442.5999755859</ele>
        <time>2013-01-25T08:57:32.000Z</time>
      </trkpt>
      <trkpt lat="45.70916" lon="6.18285">
        <ele>1444.5999755859</ele>
        <time>2013-01-25T08:57:39.000Z</time>
      </trkpt>
      <trkpt lat="45.70912" lon="6.18287">
        <ele>1444.5999755859</ele>
        <time>2013-01-25T08:57:45.000Z</time>
      </trkpt>
      <trkpt lat="45.7091" lon="6.18286">
        <ele>1446.1999511719</ele>
        <time>2013-01-25T08:57:47.000Z</time>
      </trkpt>
      <trkpt lat="45.70906" lon="6.18289">
        <ele>1446.4000244141</ele>
        <time>2013-01-25T08:57:53.000Z</time>
      </trkpt>
      <trkpt lat="45.709" lon="6.18294">
        <ele>1448.4000244141</ele>
        <time>2013-01-25T08:58:03.000Z</time>
      </trkpt>
      <trkpt lat="45.70907" lon="6.18302">
        <ele>1449.4000244141</ele>
        <time>2013-01-25T08:58:09.000Z</time>
      </trkpt>
      <trkpt lat="45.70915" lon="6.18305">
        <ele>1449.8000488281</ele>
        <time>2013-01-25T08:58:24.000Z</time>
      </trkpt>
      <trkpt lat="45.70928" lon="6.18313">
        <ele>1452.1999511719</ele>
        <time>2013-01-25T08:58:41.000Z</time>
      </trkpt>
      <trkpt lat="45.70931" lon="6.18312">
        <ele>1452.8000488281</ele>
        <time>2013-01-25T08:58:46.000Z</time>
      </trkpt>
      <trkpt lat="45.70934" lon="6.18314">
        <ele>1453.8000488281</ele>
        <time>2013-01-25T08:58:52.000Z</time>
      </trkpt>
      <trkpt lat="45.70935" lon="6.18316">
        <ele>1455.4000244141</ele>
        <time>2013-01-25T08:58:55.000Z</time>
      </trkpt>
      <trkpt lat="45.70937" lon="6.18321">
        <ele>1455.4000244141</ele>
        <time>2013-01-25T08:59:06.000Z</time>
      </trkpt>
      <trkpt lat="45.70941" lon="6.18319">
        <ele>1458</ele>
        <time>2013-01-25T08:59:14.000Z</time>
      </trkpt>
      <trkpt lat="45.70942" lon="6.18327">
        <ele>1459.1999511719</ele>
        <time>2013-01-25T08:59:21.000Z</time>
      </trkpt>
      <trkpt lat="45.70942" lon="6.18331">
        <ele>1460.8000488281</ele>
        <time>2013-01-25T08:59:27.000Z</time>
      </trkpt>
      <trkpt lat="45.70941" lon="6.18332">
        <ele>1461</ele>
        <time>2013-01-25T08:59:28.000Z</time>
      </trkpt>
      <trkpt lat="45.70937" lon="6.18336">
        <ele>1462.8000488281</ele>
        <time>2013-01-25T08:59:36.000Z</time>
      </trkpt>
      <trkpt lat="45.70934" lon="6.1834">
        <ele>1463.5999755859</ele>
        <time>2013-01-25T08:59:43.000Z</time>
      </trkpt>
      <trkpt lat="45.70934" lon="6.18344">
        <ele>1465.5999755859</ele>
        <time>2013-01-25T08:59:49.000Z</time>
      </trkpt>
      <trkpt lat="45.70939" lon="6.18346">
        <ele>1465.1999511719</ele>
        <time>2013-01-25T08:59:56.000Z</time>
      </trkpt>
      <trkpt lat="45.70941" lon="6.18347">
        <ele>1466.1999511719</ele>
        <time>2013-01-25T09:00:22.000Z</time>
      </trkpt>
      <trkpt lat="45.70942" lon="6.1835">
        <ele>1467.8000488281</ele>
        <time>2013-01-25T09:00:34.000Z</time>
      </trkpt>
      <trkpt lat="45.70946" lon="6.18354">
        <ele>1467.8000488281</ele>
        <time>2013-01-25T09:00:39.000Z</time>
      </trkpt>
      <trkpt lat="45.70949" lon="6.18357">
        <ele>1471</ele>
        <time>2013-01-25T09:00:48.000Z</time>
      </trkpt>
      <trkpt lat="45.70945" lon="6.18365">
        <ele>1473.1999511719</ele>
        <time>2013-01-25T09:00:57.000Z</time>
      </trkpt>
      <trkpt lat="45.7094" lon="6.18366">
        <ele>1472.5999755859</ele>
        <time>2013-01-25T09:01:03.000Z</time>
      </trkpt>
      <trkpt lat="45.70939" lon="6.18368">
        <ele>1474.5999755859</ele>
        <time>2013-01-25T09:01:06.000Z</time>
      </trkpt>
      <trkpt lat="45.70935" lon="6.18374">
        <ele>1476</ele>
        <time>2013-01-25T09:01:13.000Z</time>
      </trkpt>
      <trkpt lat="45.70935" lon="6.18375">
        <ele>1476.1999511719</ele>
        <time>2013-01-25T09:01:14.000Z</time>
      </trkpt>
      <trkpt lat="45.70945" lon="6.18385">
        <ele>1477.4000244141</ele>
        <time>2013-01-25T09:01:29.000Z</time>
      </trkpt>
      <trkpt lat="45.70938" lon="6.18393">
        <ele>1482</ele>
        <time>2013-01-25T09:01:52.000Z</time>
      </trkpt>
      <trkpt lat="45.70936" lon="6.18394">
        <ele>1483.8000488281</ele>
        <time>2013-01-25T09:01:55.000Z</time>
      </trkpt>
      <trkpt lat="45.70932" lon="6.184">
        <ele>1485.4000244141</ele>
        <time>2013-01-25T09:02:06.000Z</time>
      </trkpt>
      <trkpt lat="45.70935" lon="6.18408">
        <ele>1486.5999755859</ele>
        <time>2013-01-25T09:02:12.000Z</time>
      </trkpt>
      <trkpt lat="45.70941" lon="6.18413">
        <ele>1487</ele>
        <time>2013-01-25T09:02:19.000Z</time>
      </trkpt>
      <trkpt lat="45.70945" lon="6.18416">
        <ele>1487.8000488281</ele>
        <time>2013-01-25T09:02:26.000Z</time>
      </trkpt>
      <trkpt lat="45.70935" lon="6.18418">
        <ele>1490</ele>
        <time>2013-01-25T09:02:42.000Z</time>
      </trkpt>
      <trkpt lat="45.70933" lon="6.18418">
        <ele>1490</ele>
        <time>2013-01-25T09:02:43.000Z</time>
      </trkpt>
      <trkpt lat="45.70928" lon="6.18416">
        <ele>1491.5999755859</ele>
        <time>2013-01-25T09:02:49.000Z</time>
      </trkpt>
      <trkpt lat="45.70926" lon="6.18417">
        <ele>1493.4000244141</ele>
        <time>2013-01-25T09:02:54.000Z</time>
      </trkpt>
      <trkpt lat="45.70927" lon="6.18426">
        <ele>1495</ele>
        <time>2013-01-25T09:03:02.000Z</time>
      </trkpt>
      <trkpt lat="45.70932" lon="6.18434">
        <ele>1495.1999511719</ele>
        <time>2013-01-25T09:03:07.000Z</time>
      </trkpt>
      <trkpt lat="45.70935" lon="6.18436">
        <ele>1495.4000244141</ele>
        <time>2013-01-25T09:03:13.000Z</time>
      </trkpt>
      <trkpt lat="45.70937" lon="6.18437">
        <ele>1495.8000488281</ele>
        <time>2013-01-25T09:03:17.000Z</time>
      </trkpt>
      <trkpt lat="45.70938" lon="6.18437">
        <ele>1497.4000244141</ele>
        <time>2013-01-25T09:03:19.000Z</time>
      </trkpt>
      <trkpt lat="45.70944" lon="6.18438">
        <ele>1499.8000488281</ele>
        <time>2013-01-25T09:03:30.000Z</time>
      </trkpt>
      <trkpt lat="45.70951" lon="6.18439">
        <ele>1500.5999755859</ele>
        <time>2013-01-25T09:03:40.000Z</time>
      </trkpt>
      <trkpt lat="45.70956" lon="6.18439">
        <ele>1501.4000244141</ele>
        <time>2013-01-25T09:03:46.000Z</time>
      </trkpt>
      <trkpt lat="45.70959" lon="6.1844">
        <ele>1503.5999755859</ele>
        <time>2013-01-25T09:03:54.000Z</time>
      </trkpt>
      <trkpt lat="45.70957" lon="6.18446">
        <ele>1504.5999755859</ele>
        <time>2013-01-25T09:04:04.000Z</time>
      </trkpt>
      <trkpt lat="45.70956" lon="6.18448">
        <ele>1505.8000488281</ele>
        <time>2013-01-25T09:04:06.000Z</time>
      </trkpt>
      <trkpt lat="45.70953" lon="6.18452">
        <ele>1506.4000244141</ele>
        <time>2013-01-25T09:04:12.000Z</time>
      </trkpt>
      <trkpt lat="45.70948" lon="6.18458">
        <ele>1507.1999511719</ele>
        <time>2013-01-25T09:04:20.000Z</time>
      </trkpt>
      <trkpt lat="45.70945" lon="6.18459">
        <ele>1507.8000488281</ele>
        <time>2013-01-25T09:04:22.000Z</time>
      </trkpt>
      <trkpt lat="45.7094" lon="6.1846">
        <ele>1508.8000488281</ele>
        <time>2013-01-25T09:04:28.000Z</time>
      </trkpt>
      <trkpt lat="45.70933" lon="6.18462">
        <ele>1508.8000488281</ele>
        <time>2013-01-25T09:04:35.000Z</time>
      </trkpt>
      <trkpt lat="45.70929" lon="6.18462">
        <ele>1510.5999755859</ele>
        <time>2013-01-25T09:04:39.000Z</time>
      </trkpt>
      <trkpt lat="45.70927" lon="6.18463">
        <ele>1510.5999755859</ele>
        <time>2013-01-25T09:04:44.000Z</time>
      </trkpt>
      <trkpt lat="45.70924" lon="6.18465">
        <ele>1512</ele>
        <time>2013-01-25T09:04:52.000Z</time>
      </trkpt>
      <trkpt lat="45.70926" lon="6.18472">
        <ele>1512.8000488281</ele>
        <time>2013-01-25T09:04:59.000Z</time>
      </trkpt>
      <trkpt lat="45.70927" lon="6.18473">
        <ele>1513.1999511719</ele>
        <time>2013-01-25T09:05:00.000Z</time>
      </trkpt>
      <trkpt lat="45.70935" lon="6.18483">
        <ele>1514.1999511719</ele>
        <time>2013-01-25T09:05:07.000Z</time>
      </trkpt>
      <trkpt lat="45.70941" lon="6.18486">
        <ele>1514.4000244141</ele>
        <time>2013-01-25T09:05:12.000Z</time>
      </trkpt>
      <trkpt lat="45.70944" lon="6.18488">
        <ele>1516.5999755859</ele>
        <time>2013-01-25T09:05:18.000Z</time>
      </trkpt>
      <trkpt lat="45.70942" lon="6.18497">
        <ele>1523</ele>
        <time>2013-01-25T09:05:52.000Z</time>
      </trkpt>
      <trkpt lat="45.70936" lon="6.185">
        <ele>1523.5999755859</ele>
        <time>2013-01-25T09:05:59.000Z</time>
      </trkpt>
      <trkpt lat="45.70933" lon="6.18502">
        <ele>1525.5999755859</ele>
        <time>2013-01-25T09:06:04.000Z</time>
      </trkpt>
      <trkpt lat="45.70929" lon="6.18504">
        <ele>1526.1999511719</ele>
        <time>2013-01-25T09:06:09.000Z</time>
      </trkpt>
      <trkpt lat="45.70926" lon="6.18513">
        <ele>1529</ele>
        <time>2013-01-25T09:06:21.000Z</time>
      </trkpt>
      <trkpt lat="45.70935" lon="6.1852">
        <ele>1529.5999755859</ele>
        <time>2013-01-25T09:06:29.000Z</time>
      </trkpt>
      <trkpt lat="45.70941" lon="6.18523">
        <ele>1531.1999511719</ele>
        <time>2013-01-25T09:06:35.000Z</time>
      </trkpt>
      <trkpt lat="45.70947" lon="6.18529">
        <ele>1531.8000488281</ele>
        <time>2013-01-25T09:06:44.000Z</time>
      </trkpt>
      <trkpt lat="45.7095" lon="6.18531">
        <ele>1533.4000244141</ele>
        <time>2013-01-25T09:06:49.000Z</time>
      </trkpt>
      <trkpt lat="45.70952" lon="6.18536">
        <ele>1533.4000244141</ele>
        <time>2013-01-25T09:06:54.000Z</time>
      </trkpt>
      <trkpt lat="45.70953" lon="6.18535">
        <ele>1534.5999755859</ele>
        <time>2013-01-25T09:06:56.000Z</time>
      </trkpt>
      <trkpt lat="45.70955" lon="6.18539">
        <ele>1535.8000488281</ele>
        <time>2013-01-25T09:07:13.000Z</time>
      </trkpt>
      <trkpt lat="45.70947" lon="6.18536">
        <ele>1537.1999511719</ele>
        <time>2013-01-25T09:07:20.000Z</time>
      </trkpt>
      <trkpt lat="45.70941" lon="6.18542">
        <ele>1540.5999755859</ele>
        <time>2013-01-25T09:07:31.000Z</time>
      </trkpt>
      <trkpt lat="45.7093" lon="6.18548">
        <ele>1543.5999755859</ele>
        <time>2013-01-25T09:07:47.000Z</time>
      </trkpt>
      <trkpt lat="45.70929" lon="6.18558">
        <ele>1545.4000244141</ele>
        <time>2013-01-25T09:08:01.000Z</time>
      </trkpt>
      <trkpt lat="45.70926" lon="6.1856">
        <ele>1545.8000488281</ele>
        <time>2013-01-25T09:08:08.000Z</time>
      </trkpt>
      <trkpt lat="45.70934" lon="6.18568">
        <ele>1547.5999755859</ele>
        <time>2013-01-25T09:08:26.000Z</time>
      </trkpt>
      <trkpt lat="45.70941" lon="6.18577">
        <ele>1548.8000488281</ele>
        <time>2013-01-25T09:08:32.000Z</time>
      </trkpt>
      <trkpt lat="45.70946" lon="6.18583">
        <ele>1549.4000244141</ele>
        <time>2013-01-25T09:08:38.000Z</time>
      </trkpt>
      <trkpt lat="45.70947" lon="6.18584">
        <ele>1551.1999511719</ele>
        <time>2013-01-25T09:08:40.000Z</time>
      </trkpt>
      <trkpt lat="45.7095" lon="6.18583">
        <ele>1552.4000244141</ele>
        <time>2013-01-25T09:08:46.000Z</time>
      </trkpt>
      <trkpt lat="45.70952" lon="6.1858">
        <ele>1553</ele>
        <time>2013-01-25T09:08:51.000Z</time>
      </trkpt>
      <trkpt lat="45.70958" lon="6.18597">
        <ele>1552.8000488281</ele>
        <time>2013-01-25T09:09:07.000Z</time>
      </trkpt>
      <trkpt lat="45.70946" lon="6.18582">
        <ele>1552.5999755859</ele>
        <time>2013-01-25T09:09:14.000Z</time>
      </trkpt>
      <trkpt lat="45.70949" lon="6.18593">
        <ele>1552.4000244141</ele>
        <time>2013-01-25T09:09:24.000Z</time>
      </trkpt>
      <trkpt lat="45.70951" lon="6.18592">
        <ele>1552.4000244141</ele>
        <time>2013-01-25T09:09:30.000Z</time>
      </trkpt>
      <trkpt lat="45.70963" lon="6.18603">
        <ele>1552.4000244141</ele>
        <time>2013-01-25T09:09:35.000Z</time>
      </trkpt>
      <trkpt lat="45.70968" lon="6.18602">
        <ele>1552</ele>
        <time>2013-01-25T09:09:46.000Z</time>
      </trkpt>
      <trkpt lat="45.70959" lon="6.18594">
        <ele>1551.4000244141</ele>
        <time>2013-01-25T09:10:30.000Z</time>
      </trkpt>
      <trkpt lat="45.70961" lon="6.18594">
        <ele>1550.8000488281</ele>
        <time>2013-01-25T09:10:38.000Z</time>
      </trkpt>
      <trkpt lat="45.70964" lon="6.18594">
        <ele>1553.4000244141</ele>
        <time>2013-01-25T09:10:43.000Z</time>
      </trkpt>
      <trkpt lat="45.70964" lon="6.18592">
        <ele>1554.4000244141</ele>
        <time>2013-01-25T09:10:45.000Z</time>
      </trkpt>
      <trkpt lat="45.70967" lon="6.18594">
        <ele>1555.1999511719</ele>
        <time>2013-01-25T09:10:52.000Z</time>
      </trkpt>
      <trkpt lat="45.70957" lon="6.18595">
        <ele>1556.1999511719</ele>
        <time>2013-01-25T09:11:03.000Z</time>
      </trkpt>
      <trkpt lat="45.70954" lon="6.18598">
        <ele>1558.8000488281</ele>
        <time>2013-01-25T09:11:07.000Z</time>
      </trkpt>
      <trkpt lat="45.7095" lon="6.186">
        <ele>1558.5999755859</ele>
        <time>2013-01-25T09:11:13.000Z</time>
      </trkpt>
      <trkpt lat="45.70948" lon="6.18604">
        <ele>1560.1999511719</ele>
        <time>2013-01-25T09:11:21.000Z</time>
      </trkpt>
      <trkpt lat="45.70946" lon="6.18607">
        <ele>1561.1999511719</ele>
        <time>2013-01-25T09:11:27.000Z</time>
      </trkpt>
      <trkpt lat="45.70949" lon="6.18618">
        <ele>1562.5999755859</ele>
        <time>2013-01-25T09:11:47.000Z</time>
      </trkpt>
      <trkpt lat="45.70958" lon="6.18626">
        <ele>1566</ele>
        <time>2013-01-25T09:11:55.000Z</time>
      </trkpt>
      <trkpt lat="45.70958" lon="6.18625">
        <ele>1565.5999755859</ele>
        <time>2013-01-25T09:11:56.000Z</time>
      </trkpt>
      <trkpt lat="45.70963" lon="6.18628">
        <ele>1566.5999755859</ele>
        <time>2013-01-25T09:12:05.000Z</time>
      </trkpt>
      <trkpt lat="45.70967" lon="6.18629">
        <ele>1568</ele>
        <time>2013-01-25T09:12:12.000Z</time>
      </trkpt>
      <trkpt lat="45.70973" lon="6.18624">
        <ele>1570</ele>
        <time>2013-01-25T09:12:26.000Z</time>
      </trkpt>
      <trkpt lat="45.70976" lon="6.18622">
        <ele>1571.5999755859</ele>
        <time>2013-01-25T09:12:30.000Z</time>
      </trkpt>
      <trkpt lat="45.70977" lon="6.18622">
        <ele>1571.8000488281</ele>
        <time>2013-01-25T09:12:37.000Z</time>
      </trkpt>
      <trkpt lat="45.70973" lon="6.18628">
        <ele>1571.5999755859</ele>
        <time>2013-01-25T09:12:43.000Z</time>
      </trkpt>
      <trkpt lat="45.70969" lon="6.18632">
        <ele>1572.8000488281</ele>
        <time>2013-01-25T09:12:48.000Z</time>
      </trkpt>
      <trkpt lat="45.70967" lon="6.18634">
        <ele>1573.1999511719</ele>
        <time>2013-01-25T09:12:51.000Z</time>
      </trkpt>
      <trkpt lat="45.70965" lon="6.18636">
        <ele>1573.1999511719</ele>
        <time>2013-01-25T09:12:54.000Z</time>
      </trkpt>
      <trkpt lat="45.7096" lon="6.18638">
        <ele>1572.8000488281</ele>
        <time>2013-01-25T09:13:00.000Z</time>
      </trkpt>
      <trkpt lat="45.70957" lon="6.18641">
        <ele>1575.1999511719</ele>
        <time>2013-01-25T09:13:07.000Z</time>
      </trkpt>
      <trkpt lat="45.70949" lon="6.18646">
        <ele>1576.8000488281</ele>
        <time>2013-01-25T09:13:25.000Z</time>
      </trkpt>
      <trkpt lat="45.70946" lon="6.18653">
        <ele>1578.1999511719</ele>
        <time>2013-01-25T09:13:36.000Z</time>
      </trkpt>
      <trkpt lat="45.7095" lon="6.18656">
        <ele>1578.1999511719</ele>
        <time>2013-01-25T09:13:47.000Z</time>
      </trkpt>
      <trkpt lat="45.70957" lon="6.1866">
        <ele>1579.4000244141</ele>
        <time>2013-01-25T09:13:53.000Z</time>
      </trkpt>
      <trkpt lat="45.70962" lon="6.1866">
        <ele>1584.1999511719</ele>
        <time>2013-01-25T09:14:00.000Z</time>
      </trkpt>
      <trkpt lat="45.70968" lon="6.18661">
        <ele>1585.5999755859</ele>
        <time>2013-01-25T09:14:06.000Z</time>
      </trkpt>
      <trkpt lat="45.70972" lon="6.18664">
        <ele>1586.5999755859</ele>
        <time>2013-01-25T09:14:13.000Z</time>
      </trkpt>
      <trkpt lat="45.70978" lon="6.18668">
        <ele>1587.4000244141</ele>
        <time>2013-01-25T09:14:20.000Z</time>
      </trkpt>
      <trkpt lat="45.70981" lon="6.18668">
        <ele>1586.8000488281</ele>
        <time>2013-01-25T09:14:25.000Z</time>
      </trkpt>
      <trkpt lat="45.70982" lon="6.18666">
        <ele>1589.1999511719</ele>
        <time>2013-01-25T09:14:31.000Z</time>
      </trkpt>
      <trkpt lat="45.70979" lon="6.1867">
        <ele>1589.5999755859</ele>
        <time>2013-01-25T09:14:39.000Z</time>
      </trkpt>
      <trkpt lat="45.70967" lon="6.1868">
        <ele>1593.5999755859</ele>
        <time>2013-01-25T09:15:02.000Z</time>
      </trkpt>
      <trkpt lat="45.70962" lon="6.18684">
        <ele>1597</ele>
        <time>2013-01-25T09:15:10.000Z</time>
      </trkpt>
      <trkpt lat="45.70961" lon="6.1869">
        <ele>1598.1999511719</ele>
        <time>2013-01-25T09:15:17.000Z</time>
      </trkpt>
      <trkpt lat="45.70959" lon="6.18696">
        <ele>1598.5999755859</ele>
        <time>2013-01-25T09:15:26.000Z</time>
      </trkpt>
      <trkpt lat="45.70955" lon="6.18698">
        <ele>1599.4000244141</ele>
        <time>2013-01-25T09:15:31.000Z</time>
      </trkpt>
      <trkpt lat="45.70953" lon="6.18702">
        <ele>1601</ele>
        <time>2013-01-25T09:15:38.000Z</time>
      </trkpt>
      <trkpt lat="45.7095" lon="6.18705">
        <ele>1602.5999755859</ele>
        <time>2013-01-25T09:15:44.000Z</time>
      </trkpt>
      <trkpt lat="45.7095" lon="6.1871">
        <ele>1603.4000244141</ele>
        <time>2013-01-25T09:15:52.000Z</time>
      </trkpt>
      <trkpt lat="45.70959" lon="6.18722">
        <ele>1606.1999511719</ele>
        <time>2013-01-25T09:16:10.000Z</time>
      </trkpt>
      <trkpt lat="45.70962" lon="6.18724">
        <ele>1605.4000244141</ele>
        <time>2013-01-25T09:16:12.000Z</time>
      </trkpt>
      <trkpt lat="45.7097" lon="6.18728">
        <ele>1606.5999755859</ele>
        <time>2013-01-25T09:16:21.000Z</time>
      </trkpt>
      <trkpt lat="45.70975" lon="6.1873">
        <ele>1607.5999755859</ele>
        <time>2013-01-25T09:16:31.000Z</time>
      </trkpt>
      <trkpt lat="45.70979" lon="6.18729">
        <ele>1609.5999755859</ele>
        <time>2013-01-25T09:16:39.000Z</time>
      </trkpt>
      <trkpt lat="45.70982" lon="6.18731">
        <ele>1610.8000488281</ele>
        <time>2013-01-25T09:16:44.000Z</time>
      </trkpt>
      <trkpt lat="45.70985" lon="6.1873">
        <ele>1612.1999511719</ele>
        <time>2013-01-25T09:16:51.000Z</time>
      </trkpt>
      <trkpt lat="45.70977" lon="6.18732">
        <ele>1614.8000488281</ele>
        <time>2013-01-25T09:17:05.000Z</time>
      </trkpt>
      <trkpt lat="45.70968" lon="6.18732">
        <ele>1615.8000488281</ele>
        <time>2013-01-25T09:17:15.000Z</time>
      </trkpt>
      <trkpt lat="45.70966" lon="6.18738">
        <ele>1618.1999511719</ele>
        <time>2013-01-25T09:17:25.000Z</time>
      </trkpt>
      <trkpt lat="45.70974" lon="6.18745">
        <ele>1619.1999511719</ele>
        <time>2013-01-25T09:17:37.000Z</time>
      </trkpt>
      <trkpt lat="45.70981" lon="6.18748">
        <ele>1621</ele>
        <time>2013-01-25T09:17:45.000Z</time>
      </trkpt>
      <trkpt lat="45.70985" lon="6.18747">
        <ele>1622.1999511719</ele>
        <time>2013-01-25T09:17:53.000Z</time>
      </trkpt>
      <trkpt lat="45.70991" lon="6.18751">
        <ele>1623.4000244141</ele>
        <time>2013-01-25T09:17:59.000Z</time>
      </trkpt>
      <trkpt lat="45.70994" lon="6.18752">
        <ele>1624.5999755859</ele>
        <time>2013-01-25T09:18:06.000Z</time>
      </trkpt>
      <trkpt lat="45.70996" lon="6.18753">
        <ele>1626.4000244141</ele>
        <time>2013-01-25T09:18:26.000Z</time>
      </trkpt>
      <trkpt lat="45.70996" lon="6.18752">
        <ele>1624.8000488281</ele>
        <time>2013-01-25T09:18:30.000Z</time>
      </trkpt>
      <trkpt lat="45.70998" lon="6.18746">
        <ele>1626.8000488281</ele>
        <time>2013-01-25T09:18:41.000Z</time>
      </trkpt>
      <trkpt lat="45.71001" lon="6.18744">
        <ele>1627.4000244141</ele>
        <time>2013-01-25T09:18:47.000Z</time>
      </trkpt>
      <trkpt lat="45.70998" lon="6.18747">
        <ele>1628</ele>
        <time>2013-01-25T09:18:52.000Z</time>
      </trkpt>
      <trkpt lat="45.70999" lon="6.18761">
        <ele>1630.1999511719</ele>
        <time>2013-01-25T09:18:59.000Z</time>
      </trkpt>
      <trkpt lat="45.70999" lon="6.18763">
        <ele>1631.5999755859</ele>
        <time>2013-01-25T09:19:02.000Z</time>
      </trkpt>
      <trkpt lat="45.70993" lon="6.18763">
        <ele>1632.1999511719</ele>
        <time>2013-01-25T09:19:08.000Z</time>
      </trkpt>
      <trkpt lat="45.7099" lon="6.18767">
        <ele>1632.5999755859</ele>
        <time>2013-01-25T09:19:13.000Z</time>
      </trkpt>
      <trkpt lat="45.70984" lon="6.18767">
        <ele>1635.4000244141</ele>
        <time>2013-01-25T09:19:24.000Z</time>
      </trkpt>
      <trkpt lat="45.70986" lon="6.18772">
        <ele>1636.4000244141</ele>
        <time>2013-01-25T09:19:31.000Z</time>
      </trkpt>
      <trkpt lat="45.70991" lon="6.18772">
        <ele>1637</ele>
        <time>2013-01-25T09:19:38.000Z</time>
      </trkpt>
      <trkpt lat="45.70995" lon="6.18769">
        <ele>1638.4000244141</ele>
        <time>2013-01-25T09:19:46.000Z</time>
      </trkpt>
      <trkpt lat="45.70999" lon="6.18764">
        <ele>1639.1999511719</ele>
        <time>2013-01-25T09:19:53.000Z</time>
      </trkpt>
      <trkpt lat="45.71001" lon="6.1876">
        <ele>1639.8000488281</ele>
        <time>2013-01-25T09:19:58.000Z</time>
      </trkpt>
      <trkpt lat="45.71005" lon="6.18759">
        <ele>1640.5999755859</ele>
        <time>2013-01-25T09:20:05.000Z</time>
      </trkpt>
      <trkpt lat="45.71007" lon="6.18759">
        <ele>1641.5999755859</ele>
        <time>2013-01-25T09:20:08.000Z</time>
      </trkpt>
      <trkpt lat="45.71011" lon="6.18763">
        <ele>1642.4000244141</ele>
        <time>2013-01-25T09:20:14.000Z</time>
      </trkpt>
      <trkpt lat="45.71016" lon="6.18767">
        <ele>1643.5999755859</ele>
        <time>2013-01-25T09:20:18.000Z</time>
      </trkpt>
      <trkpt lat="45.71018" lon="6.18767">
        <ele>1644</ele>
        <time>2013-01-25T09:20:22.000Z</time>
      </trkpt>
      <trkpt lat="45.71022" lon="6.18765">
        <ele>1644.1999511719</ele>
        <time>2013-01-25T09:20:29.000Z</time>
      </trkpt>
      <trkpt lat="45.71024" lon="6.18764">
        <ele>1645.8000488281</ele>
        <time>2013-01-25T09:20:33.000Z</time>
      </trkpt>
      <trkpt lat="45.71025" lon="6.18766">
        <ele>1644.8000488281</ele>
        <time>2013-01-25T09:20:40.000Z</time>
      </trkpt>
      <trkpt lat="45.71026" lon="6.18766">
        <ele>1647</ele>
        <time>2013-01-25T09:20:44.000Z</time>
      </trkpt>
      <trkpt lat="45.71026" lon="6.18776">
        <ele>1647.4000244141</ele>
        <time>2013-01-25T09:20:59.000Z</time>
      </trkpt>
      <trkpt lat="45.71016" lon="6.18782">
        <ele>1651</ele>
        <time>2013-01-25T09:21:17.000Z</time>
      </trkpt>
      <trkpt lat="45.7102" lon="6.18779">
        <ele>1652</ele>
        <time>2013-01-25T09:21:30.000Z</time>
      </trkpt>
      <trkpt lat="45.71025" lon="6.18776">
        <ele>1653.1999511719</ele>
        <time>2013-01-25T09:21:39.000Z</time>
      </trkpt>
      <trkpt lat="45.71031" lon="6.18778">
        <ele>1654</ele>
        <time>2013-01-25T09:21:46.000Z</time>
      </trkpt>
      <trkpt lat="45.71032" lon="6.18774">
        <ele>1655.8000488281</ele>
        <time>2013-01-25T09:21:53.000Z</time>
      </trkpt>
      <trkpt lat="45.71035" lon="6.1877">
        <ele>1656.1999511719</ele>
        <time>2013-01-25T09:21:59.000Z</time>
      </trkpt>
      <trkpt lat="45.71034" lon="6.18784">
        <ele>1659</ele>
        <time>2013-01-25T09:22:14.000Z</time>
      </trkpt>
      <trkpt lat="45.71036" lon="6.18801">
        <ele>1661</ele>
        <time>2013-01-25T09:22:26.000Z</time>
      </trkpt>
      <trkpt lat="45.71025" lon="6.18798">
        <ele>1663.5999755859</ele>
        <time>2013-01-25T09:22:39.000Z</time>
      </trkpt>
      <trkpt lat="45.71023" lon="6.18803">
        <ele>1665.4000244141</ele>
        <time>2013-01-25T09:22:46.000Z</time>
      </trkpt>
      <trkpt lat="45.71017" lon="6.18813">
        <ele>1669</ele>
        <time>2013-01-25T09:23:04.000Z</time>
      </trkpt>
      <trkpt lat="45.71022" lon="6.18821">
        <ele>1669.5999755859</ele>
        <time>2013-01-25T09:23:16.000Z</time>
      </trkpt>
      <trkpt lat="45.71026" lon="6.1882">
        <ele>1669.8000488281</ele>
        <time>2013-01-25T09:23:28.000Z</time>
      </trkpt>
      <trkpt lat="45.7103" lon="6.18811">
        <ele>1671.8000488281</ele>
        <time>2013-01-25T09:23:40.000Z</time>
      </trkpt>
      <trkpt lat="45.71035" lon="6.18813">
        <ele>1673.8000488281</ele>
        <time>2013-01-25T09:23:52.000Z</time>
      </trkpt>
      <trkpt lat="45.71038" lon="6.18811">
        <ele>1675</ele>
        <time>2013-01-25T09:23:58.000Z</time>
      </trkpt>
      <trkpt lat="45.71041" lon="6.18813">
        <ele>1676.1999511719</ele>
        <time>2013-01-25T09:24:03.000Z</time>
      </trkpt>
      <trkpt lat="45.71045" lon="6.18814">
        <ele>1676.1999511719</ele>
        <time>2013-01-25T09:24:08.000Z</time>
      </trkpt>
      <trkpt lat="45.71048" lon="6.18811">
        <ele>1678.5999755859</ele>
        <time>2013-01-25T09:24:16.000Z</time>
      </trkpt>
      <trkpt lat="45.71051" lon="6.18809">
        <ele>1679.5999755859</ele>
        <time>2013-01-25T09:24:22.000Z</time>
      </trkpt>
      <trkpt lat="45.71052" lon="6.18807">
        <ele>1680.5999755859</ele>
        <time>2013-01-25T09:24:27.000Z</time>
      </trkpt>
      <trkpt lat="45.71056" lon="6.18812">
        <ele>1682</ele>
        <time>2013-01-25T09:24:33.000Z</time>
      </trkpt>
      <trkpt lat="45.7106" lon="6.18817">
        <ele>1683</ele>
        <time>2013-01-25T09:24:38.000Z</time>
      </trkpt>
      <trkpt lat="45.71066" lon="6.18812">
        <ele>1685.1999511719</ele>
        <time>2013-01-25T09:24:50.000Z</time>
      </trkpt>
      <trkpt lat="45.7107" lon="6.18812">
        <ele>1684.4000244141</ele>
        <time>2013-01-25T09:24:57.000Z</time>
      </trkpt>
      <trkpt lat="45.71074" lon="6.18818">
        <ele>1685.4000244141</ele>
        <time>2013-01-25T09:25:05.000Z</time>
      </trkpt>
      <trkpt lat="45.71077" lon="6.1882">
        <ele>1687.1999511719</ele>
        <time>2013-01-25T09:25:11.000Z</time>
      </trkpt>
      <trkpt lat="45.71083" lon="6.18821">
        <ele>1687.8000488281</ele>
        <time>2013-01-25T09:25:23.000Z</time>
      </trkpt>
      <trkpt lat="45.71086" lon="6.1882">
        <ele>1688.8000488281</ele>
        <time>2013-01-25T09:25:32.000Z</time>
      </trkpt>
      <trkpt lat="45.71088" lon="6.18827">
        <ele>1693.8000488281</ele>
        <time>2013-01-25T09:25:58.000Z</time>
      </trkpt>
      <trkpt lat="45.71085" lon="6.18828">
        <ele>1694.8000488281</ele>
        <time>2013-01-25T09:26:04.000Z</time>
      </trkpt>
      <trkpt lat="45.71083" lon="6.18832">
        <ele>1695.5999755859</ele>
        <time>2013-01-25T09:26:13.000Z</time>
      </trkpt>
      <trkpt lat="45.71083" lon="6.18839">
        <ele>1697</ele>
        <time>2013-01-25T09:26:18.000Z</time>
      </trkpt>
      <trkpt lat="45.71081" lon="6.18842">
        <ele>1698</ele>
        <time>2013-01-25T09:26:25.000Z</time>
      </trkpt>
      <trkpt lat="45.71077" lon="6.18844">
        <ele>1700</ele>
        <time>2013-01-25T09:26:33.000Z</time>
      </trkpt>
      <trkpt lat="45.71073" lon="6.18842">
        <ele>1700.4000244141</ele>
        <time>2013-01-25T09:26:42.000Z</time>
      </trkpt>
      <trkpt lat="45.71077" lon="6.18847">
        <ele>1701.5999755859</ele>
        <time>2013-01-25T09:26:49.000Z</time>
      </trkpt>
      <trkpt lat="45.71081" lon="6.18851">
        <ele>1701.4000244141</ele>
        <time>2013-01-25T09:26:55.000Z</time>
      </trkpt>
      <trkpt lat="45.71087" lon="6.18846">
        <ele>1704.5999755859</ele>
        <time>2013-01-25T09:27:03.000Z</time>
      </trkpt>
      <trkpt lat="45.71091" lon="6.18848">
        <ele>1706.1999511719</ele>
        <time>2013-01-25T09:27:09.000Z</time>
      </trkpt>
      <trkpt lat="45.71096" lon="6.18851">
        <ele>1706.8000488281</ele>
        <time>2013-01-25T09:27:18.000Z</time>
      </trkpt>
      <trkpt lat="45.71097" lon="6.18851">
        <ele>1708.1999511719</ele>
        <time>2013-01-25T09:27:20.000Z</time>
      </trkpt>
      <trkpt lat="45.71103" lon="6.18854">
        <ele>1707.8000488281</ele>
        <time>2013-01-25T09:27:27.000Z</time>
      </trkpt>
      <trkpt lat="45.71105" lon="6.18856">
        <ele>1711.4000244141</ele>
        <time>2013-01-25T09:27:33.000Z</time>
      </trkpt>
      <trkpt lat="45.71108" lon="6.18856">
        <ele>1713</ele>
        <time>2013-01-25T09:27:36.000Z</time>
      </trkpt>
      <trkpt lat="45.71113" lon="6.18858">
        <ele>1713</ele>
        <time>2013-01-25T09:27:44.000Z</time>
      </trkpt>
      <trkpt lat="45.7112" lon="6.18862">
        <ele>1715</ele>
        <time>2013-01-25T09:27:54.000Z</time>
      </trkpt>
      <trkpt lat="45.71123" lon="6.1886">
        <ele>1716.8000488281</ele>
        <time>2013-01-25T09:28:26.000Z</time>
      </trkpt>
      <trkpt lat="45.71117" lon="6.18863">
        <ele>1716.4000244141</ele>
        <time>2013-01-25T09:29:14.000Z</time>
      </trkpt>
      <trkpt lat="45.71114" lon="6.18866">
        <ele>1716.5999755859</ele>
        <time>2013-01-25T09:29:18.000Z</time>
      </trkpt>
      <trkpt lat="45.71112" lon="6.18867">
        <ele>1718</ele>
        <time>2013-01-25T09:29:21.000Z</time>
      </trkpt>
      <trkpt lat="45.71108" lon="6.18869">
        <ele>1719</ele>
        <time>2013-01-25T09:29:26.000Z</time>
      </trkpt>
      <trkpt lat="45.71105" lon="6.18871">
        <ele>1718.8000488281</ele>
        <time>2013-01-25T09:29:32.000Z</time>
      </trkpt>
      <trkpt lat="45.71102" lon="6.18875">
        <ele>1721</ele>
        <time>2013-01-25T09:29:38.000Z</time>
      </trkpt>
      <trkpt lat="45.71102" lon="6.18881">
        <ele>1719.8000488281</ele>
        <time>2013-01-25T09:29:43.000Z</time>
      </trkpt>
      <trkpt lat="45.71101" lon="6.18895">
        <ele>1721</ele>
        <time>2013-01-25T09:30:00.000Z</time>
      </trkpt>
      <trkpt lat="45.71095" lon="6.18892">
        <ele>1722.1999511719</ele>
        <time>2013-01-25T09:30:05.000Z</time>
      </trkpt>
      <trkpt lat="45.71092" lon="6.18891">
        <ele>1722.4000244141</ele>
        <time>2013-01-25T09:30:11.000Z</time>
      </trkpt>
      <trkpt lat="45.71087" lon="6.18895">
        <ele>1724.4000244141</ele>
        <time>2013-01-25T09:30:23.000Z</time>
      </trkpt>
      <trkpt lat="45.71083" lon="6.18869">
        <ele>1724.8000488281</ele>
        <time>2013-01-25T09:31:21.000Z</time>
      </trkpt>
      <trkpt lat="45.71087" lon="6.18879">
        <ele>1725.4000244141</ele>
        <time>2013-01-25T09:31:33.000Z</time>
      </trkpt>
      <trkpt lat="45.71089" lon="6.1888">
        <ele>1727</ele>
        <time>2013-01-25T09:31:35.000Z</time>
      </trkpt>
      <trkpt lat="45.71093" lon="6.18884">
        <ele>1728.8000488281</ele>
        <time>2013-01-25T09:31:46.000Z</time>
      </trkpt>
      <trkpt lat="45.71097" lon="6.18889">
        <ele>1729.5999755859</ele>
        <time>2013-01-25T09:31:52.000Z</time>
      </trkpt>
      <trkpt lat="45.71104" lon="6.18882">
        <ele>1730.8000488281</ele>
        <time>2013-01-25T09:32:27.000Z</time>
      </trkpt>
      <trkpt lat="45.71106" lon="6.18888">
        <ele>1734.4000244141</ele>
        <time>2013-01-25T09:32:41.000Z</time>
      </trkpt>
      <trkpt lat="45.71107" lon="6.1889">
        <ele>1733</ele>
        <time>2013-01-25T09:32:48.000Z</time>
      </trkpt>
      <trkpt lat="45.71109" lon="6.18893">
        <ele>1735.8000488281</ele>
        <time>2013-01-25T09:32:53.000Z</time>
      </trkpt>
      <trkpt lat="45.7111" lon="6.18897">
        <ele>1735.8000488281</ele>
        <time>2013-01-25T09:33:00.000Z</time>
      </trkpt>
      <trkpt lat="45.71108" lon="6.18902">
        <ele>1735.8000488281</ele>
        <time>2013-01-25T09:33:05.000Z</time>
      </trkpt>
      <trkpt lat="45.71105" lon="6.18902">
        <ele>1737</ele>
        <time>2013-01-25T09:33:11.000Z</time>
      </trkpt>
      <trkpt lat="45.71101" lon="6.18903">
        <ele>1738.5999755859</ele>
        <time>2013-01-25T09:33:17.000Z</time>
      </trkpt>
      <trkpt lat="45.71095" lon="6.18905">
        <ele>1739</ele>
        <time>2013-01-25T09:33:29.000Z</time>
      </trkpt>
      <trkpt lat="45.71093" lon="6.18909">
        <ele>1741.1999511719</ele>
        <time>2013-01-25T09:33:34.000Z</time>
      </trkpt>
      <trkpt lat="45.71091" lon="6.18914">
        <ele>1742.1999511719</ele>
        <time>2013-01-25T09:33:41.000Z</time>
      </trkpt>
      <trkpt lat="45.71088" lon="6.18917">
        <ele>1743.5999755859</ele>
        <time>2013-01-25T09:33:47.000Z</time>
      </trkpt>
      <trkpt lat="45.71088" lon="6.18917">
        <ele>1743.4000244141</ele>
        <time>2013-01-25T09:33:48.000Z</time>
      </trkpt>
      <trkpt lat="45.71082" lon="6.18915">
        <ele>1743.8000488281</ele>
        <time>2013-01-25T09:33:54.000Z</time>
      </trkpt>
      <trkpt lat="45.71079" lon="6.18917">
        <ele>1744.5999755859</ele>
        <time>2013-01-25T09:33:59.000Z</time>
      </trkpt>
      <trkpt lat="45.71074" lon="6.18917">
        <ele>1745.8000488281</ele>
        <time>2013-01-25T09:34:05.000Z</time>
      </trkpt>
      <trkpt lat="45.71069" lon="6.18919">
        <ele>1745.8000488281</ele>
        <time>2013-01-25T09:34:12.000Z</time>
      </trkpt>
      <trkpt lat="45.71067" lon="6.18918">
        <ele>1747.4000244141</ele>
        <time>2013-01-25T09:34:17.000Z</time>
      </trkpt>
      <trkpt lat="45.71062" lon="6.1892">
        <ele>1749.8000488281</ele>
        <time>2013-01-25T09:34:24.000Z</time>
      </trkpt>
      <trkpt lat="45.71057" lon="6.1892">
        <ele>1751.4000244141</ele>
        <time>2013-01-25T09:34:31.000Z</time>
      </trkpt>
      <trkpt lat="45.71052" lon="6.1892">
        <ele>1750.4000244141</ele>
        <time>2013-01-25T09:34:39.000Z</time>
      </trkpt>
      <trkpt lat="45.71046" lon="6.18922">
        <ele>1752</ele>
        <time>2013-01-25T09:34:46.000Z</time>
      </trkpt>
      <trkpt lat="45.71042" lon="6.18922">
        <ele>1753.4000244141</ele>
        <time>2013-01-25T09:34:53.000Z</time>
      </trkpt>
      <trkpt lat="45.71036" lon="6.18918">
        <ele>1756</ele>
        <time>2013-01-25T09:35:00.000Z</time>
      </trkpt>
      <trkpt lat="45.71033" lon="6.18917">
        <ele>1757.4000244141</ele>
        <time>2013-01-25T09:35:04.000Z</time>
      </trkpt>
      <trkpt lat="45.7103" lon="6.1892">
        <ele>1758.8000488281</ele>
        <time>2013-01-25T09:35:09.000Z</time>
      </trkpt>
      <trkpt lat="45.71025" lon="6.18924">
        <ele>1761</ele>
        <time>2013-01-25T09:35:20.000Z</time>
      </trkpt>
      <trkpt lat="45.71025" lon="6.18924">
        <ele>1762.5999755859</ele>
        <time>2013-01-25T09:35:22.000Z</time>
      </trkpt>
      <trkpt lat="45.7102" lon="6.18927">
        <ele>1764.1999511719</ele>
        <time>2013-01-25T09:35:33.000Z</time>
      </trkpt>
      <trkpt lat="45.71018" lon="6.1893">
        <ele>1764.8000488281</ele>
        <time>2013-01-25T09:35:42.000Z</time>
      </trkpt>
      <trkpt lat="45.71005" lon="6.18927">
        <ele>1769.5999755859</ele>
        <time>2013-01-25T09:37:17.000Z</time>
      </trkpt>
      <trkpt lat="45.71005" lon="6.18928">
        <ele>1770.5999755859</ele>
        <time>2013-01-25T09:37:18.000Z</time>
      </trkpt>
      <trkpt lat="45.71004" lon="6.18935">
        <ele>1770.8000488281</ele>
        <time>2013-01-25T09:37:25.000Z</time>
      </trkpt>
      <trkpt lat="45.71" lon="6.18936">
        <ele>1771.8000488281</ele>
        <time>2013-01-25T09:37:33.000Z</time>
      </trkpt>
      <trkpt lat="45.70998" lon="6.18939">
        <ele>1773.5999755859</ele>
        <time>2013-01-25T09:37:39.000Z</time>
      </trkpt>
      <trkpt lat="45.7099" lon="6.18937">
        <ele>1775</ele>
        <time>2013-01-25T09:38:51.000Z</time>
      </trkpt>
      <trkpt lat="45.70986" lon="6.1894">
        <ele>1777.4000244141</ele>
        <time>2013-01-25T09:38:59.000Z</time>
      </trkpt>
      <trkpt lat="45.70987" lon="6.18941">
        <ele>1777.4000244141</ele>
        <time>2013-01-25T09:39:05.000Z</time>
      </trkpt>
      <trkpt lat="45.70989" lon="6.18944">
        <ele>1779.4000244141</ele>
        <time>2013-01-25T09:39:08.000Z</time>
      </trkpt>
      <trkpt lat="45.70991" lon="6.18948">
        <ele>1780.1999511719</ele>
        <time>2013-01-25T09:39:14.000Z</time>
      </trkpt>
      <trkpt lat="45.70985" lon="6.18948">
        <ele>1783.4000244141</ele>
        <time>2013-01-25T09:39:29.000Z</time>
      </trkpt>
      <trkpt lat="45.70981" lon="6.18945">
        <ele>1784</ele>
        <time>2013-01-25T09:39:35.000Z</time>
      </trkpt>
      <trkpt lat="45.70977" lon="6.18942">
        <ele>1786.1999511719</ele>
        <time>2013-01-25T09:39:42.000Z</time>
      </trkpt>
      <trkpt lat="45.70975" lon="6.18942">
        <ele>1788</ele>
        <time>2013-01-25T09:39:47.000Z</time>
      </trkpt>
      <trkpt lat="45.70971" lon="6.18942">
        <ele>1788</ele>
        <time>2013-01-25T09:39:53.000Z</time>
      </trkpt>
      <trkpt lat="45.70969" lon="6.18942">
        <ele>1790.4000244141</ele>
        <time>2013-01-25T09:39:58.000Z</time>
      </trkpt>
      <trkpt lat="45.70969" lon="6.1895">
        <ele>1792.4000244141</ele>
        <time>2013-01-25T09:40:07.000Z</time>
      </trkpt>
      <trkpt lat="45.70968" lon="6.18949">
        <ele>1792</ele>
        <time>2013-01-25T09:40:15.000Z</time>
      </trkpt>
      <trkpt lat="45.70971" lon="6.18951">
        <ele>1792.4000244141</ele>
        <time>2013-01-25T09:40:47.000Z</time>
      </trkpt>
      <trkpt lat="45.70973" lon="6.18957">
        <ele>1794.4000244141</ele>
        <time>2013-01-25T09:40:52.000Z</time>
      </trkpt>
      <trkpt lat="45.70973" lon="6.18957">
        <ele>1794.4000244141</ele>
        <time>2013-01-25T09:40:53.000Z</time>
      </trkpt>
      <trkpt lat="45.70974" lon="6.1896">
        <ele>1795.5999755859</ele>
        <time>2013-01-25T09:40:57.000Z</time>
      </trkpt>
      <trkpt lat="45.70972" lon="6.18967">
        <ele>1796</ele>
        <time>2013-01-25T09:41:02.000Z</time>
      </trkpt>
      <trkpt lat="45.7097" lon="6.18966">
        <ele>1799</ele>
        <time>2013-01-25T09:41:10.000Z</time>
      </trkpt>
      <trkpt lat="45.70974" lon="6.1897">
        <ele>1800</ele>
        <time>2013-01-25T09:41:17.000Z</time>
      </trkpt>
      <trkpt lat="45.70975" lon="6.18974">
        <ele>1801.5999755859</ele>
        <time>2013-01-25T09:41:21.000Z</time>
      </trkpt>
      <trkpt lat="45.70974" lon="6.18978">
        <ele>1801.8000488281</ele>
        <time>2013-01-25T09:41:26.000Z</time>
      </trkpt>
      <trkpt lat="45.70966" lon="6.18981">
        <ele>1804</ele>
        <time>2013-01-25T09:41:36.000Z</time>
      </trkpt>
      <trkpt lat="45.70966" lon="6.18981">
        <ele>1803.5999755859</ele>
        <time>2013-01-25T09:41:37.000Z</time>
      </trkpt>
      <trkpt lat="45.7096" lon="6.18975">
        <ele>1804</ele>
        <time>2013-01-25T09:41:43.000Z</time>
      </trkpt>
      <trkpt lat="45.70956" lon="6.18972">
        <ele>1805.1999511719</ele>
        <time>2013-01-25T09:41:49.000Z</time>
      </trkpt>
      <trkpt lat="45.70957" lon="6.18974">
        <ele>1806.5999755859</ele>
        <time>2013-01-25T09:41:52.000Z</time>
      </trkpt>
      <trkpt lat="45.70958" lon="6.18982">
        <ele>1808.8000488281</ele>
        <time>2013-01-25T09:42:01.000Z</time>
      </trkpt>
      <trkpt lat="45.70958" lon="6.18987">
        <ele>1810.1999511719</ele>
        <time>2013-01-25T09:42:09.000Z</time>
      </trkpt>
      <trkpt lat="45.70954" lon="6.18985">
        <ele>1809.5999755859</ele>
        <time>2013-01-25T09:42:16.000Z</time>
      </trkpt>
      <trkpt lat="45.7095" lon="6.18984">
        <ele>1811.4000244141</ele>
        <time>2013-01-25T09:42:22.000Z</time>
      </trkpt>
      <trkpt lat="45.70947" lon="6.18985">
        <ele>1814.4000244141</ele>
        <time>2013-01-25T09:42:28.000Z</time>
      </trkpt>
      <trkpt lat="45.70941" lon="6.18982">
        <ele>1814.5999755859</ele>
        <time>2013-01-25T09:42:36.000Z</time>
      </trkpt>
      <trkpt lat="45.70939" lon="6.18981">
        <ele>1814.1999511719</ele>
        <time>2013-01-25T09:42:39.000Z</time>
      </trkpt>
      <trkpt lat="45.70934" lon="6.18982">
        <ele>1817</ele>
        <time>2013-01-25T09:42:47.000Z</time>
      </trkpt>
      <trkpt lat="45.7093" lon="6.18986">
        <ele>1818.8000488281</ele>
        <time>2013-01-25T09:42:56.000Z</time>
      </trkpt>
      <trkpt lat="45.7093" lon="6.18987">
        <ele>1819.5999755859</ele>
        <time>2013-01-25T09:42:58.000Z</time>
      </trkpt>
      <trkpt lat="45.70928" lon="6.18992">
        <ele>1820</ele>
        <time>2013-01-25T09:43:05.000Z</time>
      </trkpt>
      <trkpt lat="45.70927" lon="6.18994">
        <ele>1820.5999755859</ele>
        <time>2013-01-25T09:43:07.000Z</time>
      </trkpt>
      <trkpt lat="45.70921" lon="6.19003">
        <ele>1822.8000488281</ele>
        <time>2013-01-25T09:43:16.000Z</time>
      </trkpt>
      <trkpt lat="45.70915" lon="6.19009">
        <ele>1826</ele>
        <time>2013-01-25T09:43:25.000Z</time>
      </trkpt>
      <trkpt lat="45.70909" lon="6.19012">
        <ele>1828.4000244141</ele>
        <time>2013-01-25T09:43:34.000Z</time>
      </trkpt>
      <trkpt lat="45.70902" lon="6.19017">
        <ele>1830.8000488281</ele>
        <time>2013-01-25T09:43:45.000Z</time>
      </trkpt>
      <trkpt lat="45.70896" lon="6.19022">
        <ele>1834.4000244141</ele>
        <time>2013-01-25T09:43:54.000Z</time>
      </trkpt>
      <trkpt lat="45.7089" lon="6.19028">
        <ele>1837</ele>
        <time>2013-01-25T09:44:03.000Z</time>
      </trkpt>
      <trkpt lat="45.70885" lon="6.19032">
        <ele>1839</ele>
        <time>2013-01-25T09:44:11.000Z</time>
      </trkpt>
      <trkpt lat="45.70881" lon="6.19033">
        <ele>1841.1999511719</ele>
        <time>2013-01-25T09:44:17.000Z</time>
      </trkpt>
      <trkpt lat="45.70874" lon="6.19029">
        <ele>1842.5999755859</ele>
        <time>2013-01-25T09:44:27.000Z</time>
      </trkpt>
      <trkpt lat="45.70873" lon="6.19033">
        <ele>1844</ele>
        <time>2013-01-25T09:44:36.000Z</time>
      </trkpt>
      <trkpt lat="45.70873" lon="6.19037">
        <ele>1845.4000244141</ele>
        <time>2013-01-25T09:44:41.000Z</time>
      </trkpt>
      <trkpt lat="45.70876" lon="6.19042">
        <ele>1847.1999511719</ele>
        <time>2013-01-25T09:44:46.000Z</time>
      </trkpt>
      <trkpt lat="45.70881" lon="6.19046">
        <ele>1847.8000488281</ele>
        <time>2013-01-25T09:44:53.000Z</time>
      </trkpt>
      <trkpt lat="45.70884" lon="6.19049">
        <ele>1848.8000488281</ele>
        <time>2013-01-25T09:44:58.000Z</time>
      </trkpt>
      <trkpt lat="45.7089" lon="6.19052">
        <ele>1852.4000244141</ele>
        <time>2013-01-25T09:45:06.000Z</time>
      </trkpt>
      <trkpt lat="45.70896" lon="6.19058">
        <ele>1855.1999511719</ele>
        <time>2013-01-25T09:45:15.000Z</time>
      </trkpt>
      <trkpt lat="45.70902" lon="6.19065">
        <ele>1857.8000488281</ele>
        <time>2013-01-25T09:45:27.000Z</time>
      </trkpt>
      <trkpt lat="45.70904" lon="6.19069">
        <ele>1859.5999755859</ele>
        <time>2013-01-25T09:45:32.000Z</time>
      </trkpt>
      <trkpt lat="45.7091" lon="6.19075">
        <ele>1861.1999511719</ele>
        <time>2013-01-25T09:45:42.000Z</time>
      </trkpt>
      <trkpt lat="45.70912" lon="6.19078">
        <ele>1863</ele>
        <time>2013-01-25T09:45:46.000Z</time>
      </trkpt>
      <trkpt lat="45.70918" lon="6.19086">
        <ele>1866</ele>
        <time>2013-01-25T09:45:56.000Z</time>
      </trkpt>
      <trkpt lat="45.70921" lon="6.19091">
        <ele>1868</ele>
        <time>2013-01-25T09:46:04.000Z</time>
      </trkpt>
      <trkpt lat="45.70917" lon="6.19093">
        <ele>1869.4000244141</ele>
        <time>2013-01-25T09:46:12.000Z</time>
      </trkpt>
      <trkpt lat="45.70916" lon="6.19093">
        <ele>1870</ele>
        <time>2013-01-25T09:46:14.000Z</time>
      </trkpt>
      <trkpt lat="45.70911" lon="6.19098">
        <ele>1872.5999755859</ele>
        <time>2013-01-25T09:46:22.000Z</time>
      </trkpt>
      <trkpt lat="45.70905" lon="6.191">
        <ele>1875</ele>
        <time>2013-01-25T09:46:30.000Z</time>
      </trkpt>
      <trkpt lat="45.70898" lon="6.19103">
        <ele>1878</ele>
        <time>2013-01-25T09:46:39.000Z</time>
      </trkpt>
      <trkpt lat="45.70892" lon="6.19105">
        <ele>1880</ele>
        <time>2013-01-25T09:46:48.000Z</time>
      </trkpt>
      <trkpt lat="45.7089" lon="6.19106">
        <ele>1881.1999511719</ele>
        <time>2013-01-25T09:46:50.000Z</time>
      </trkpt>
      <trkpt lat="45.70885" lon="6.19108">
        <ele>1880.8000488281</ele>
        <time>2013-01-25T09:46:58.000Z</time>
      </trkpt>
      <trkpt lat="45.70878" lon="6.19109">
        <ele>1883</ele>
        <time>2013-01-25T09:47:08.000Z</time>
      </trkpt>
      <trkpt lat="45.70872" lon="6.19112">
        <ele>1885</ele>
        <time>2013-01-25T09:47:18.000Z</time>
      </trkpt>
      <trkpt lat="45.7087" lon="6.19111">
        <ele>1886</ele>
        <time>2013-01-25T09:47:21.000Z</time>
      </trkpt>
      <trkpt lat="45.70866" lon="6.19108">
        <ele>1886.8000488281</ele>
        <time>2013-01-25T09:47:28.000Z</time>
      </trkpt>
      <trkpt lat="45.70861" lon="6.19108">
        <ele>1888</ele>
        <time>2013-01-25T09:47:36.000Z</time>
      </trkpt>
      <trkpt lat="45.70859" lon="6.19111">
        <ele>1889.4000244141</ele>
        <time>2013-01-25T09:47:42.000Z</time>
      </trkpt>
      <trkpt lat="45.70859" lon="6.19114">
        <ele>1890.5999755859</ele>
        <time>2013-01-25T09:47:45.000Z</time>
      </trkpt>
      <trkpt lat="45.70859" lon="6.19115">
        <ele>1890.5999755859</ele>
        <time>2013-01-25T09:47:46.000Z</time>
      </trkpt>
      <trkpt lat="45.70859" lon="6.19119">
        <ele>1891</ele>
        <time>2013-01-25T09:47:49.000Z</time>
      </trkpt>
      <trkpt lat="45.70858" lon="6.19121">
        <ele>1891.8000488281</ele>
        <time>2013-01-25T09:47:51.000Z</time>
      </trkpt>
      <trkpt lat="45.70857" lon="6.19126">
        <ele>1894.1999511719</ele>
        <time>2013-01-25T09:47:56.000Z</time>
      </trkpt>
      <trkpt lat="45.70849" lon="6.19126">
        <ele>1895.4000244141</ele>
        <time>2013-01-25T09:48:06.000Z</time>
      </trkpt>
      <trkpt lat="45.70842" lon="6.19124">
        <ele>1896</ele>
        <time>2013-01-25T09:48:16.000Z</time>
      </trkpt>
      <trkpt lat="45.70839" lon="6.19123">
        <ele>1896.8000488281</ele>
        <time>2013-01-25T09:48:24.000Z</time>
      </trkpt>
      <trkpt lat="45.70838" lon="6.19123">
        <ele>1897.5999755859</ele>
        <time>2013-01-25T09:51:53.000Z</time>
      </trkpt>
      <trkpt lat="45.70838" lon="6.19119">
        <ele>1895.5999755859</ele>
        <time>2013-01-25T09:54:21.000Z</time>
      </trkpt>
      <trkpt lat="45.70833" lon="6.19117">
        <ele>1896</ele>
        <time>2013-01-25T09:54:38.000Z</time>
      </trkpt>
      <trkpt lat="45.70831" lon="6.19115">
        <ele>1895.4000244141</ele>
        <time>2013-01-25T09:54:47.000Z</time>
      </trkpt>
      <trkpt lat="45.70827" lon="6.19114">
        <ele>1895</ele>
        <time>2013-01-25T09:54:59.000Z</time>
      </trkpt>
      <trkpt lat="45.70818" lon="6.19115">
        <ele>1892.8000488281</ele>
        <time>2013-01-25T09:55:05.000Z</time>
      </trkpt>
      <trkpt lat="45.70816" lon="6.19116">
        <ele>1890.8000488281</ele>
        <time>2013-01-25T09:55:09.000Z</time>
      </trkpt>
      <trkpt lat="45.70814" lon="6.19121">
        <ele>1886.1999511719</ele>
        <time>2013-01-25T10:00:56.000Z</time>
      </trkpt>
      <trkpt lat="45.70814" lon="6.19123">
        <ele>1889.1999511719</ele>
        <time>2013-01-25T10:01:19.000Z</time>
      </trkpt>
      <trkpt lat="45.70813" lon="6.19124">
        <ele>1888</ele>
        <time>2013-01-25T10:01:21.000Z</time>
      </trkpt>
      <trkpt lat="45.70806" lon="6.19127">
        <ele>1886.1999511719</ele>
        <time>2013-01-25T10:01:26.000Z</time>
      </trkpt>
      <trkpt lat="45.70795" lon="6.19129">
        <ele>1883.1999511719</ele>
        <time>2013-01-25T10:01:31.000Z</time>
      </trkpt>
      <trkpt lat="45.70793" lon="6.1913">
        <ele>1883</ele>
        <time>2013-01-25T10:01:32.000Z</time>
      </trkpt>
      <trkpt lat="45.7078" lon="6.19135">
        <ele>1882</ele>
        <time>2013-01-25T10:01:39.000Z</time>
      </trkpt>
      <trkpt lat="45.70769" lon="6.19141">
        <ele>1880.1999511719</ele>
        <time>2013-01-25T10:01:46.000Z</time>
      </trkpt>
      <trkpt lat="45.70758" lon="6.19143">
        <ele>1879.5999755859</ele>
        <time>2013-01-25T10:01:54.000Z</time>
      </trkpt>
      <trkpt lat="45.70749" lon="6.19146">
        <ele>1880.5999755859</ele>
        <time>2013-01-25T10:02:02.000Z</time>
      </trkpt>
      <trkpt lat="45.70743" lon="6.19147">
        <ele>1880.4000244141</ele>
        <time>2013-01-25T10:02:08.000Z</time>
      </trkpt>
      <trkpt lat="45.70736" lon="6.19148">
        <ele>1881.8000488281</ele>
        <time>2013-01-25T10:02:16.000Z</time>
      </trkpt>
      <trkpt lat="45.70729" lon="6.19147">
        <ele>1880</ele>
        <time>2013-01-25T10:02:23.000Z</time>
      </trkpt>
      <trkpt lat="45.70721" lon="6.19147">
        <ele>1880.1999511719</ele>
        <time>2013-01-25T10:02:31.000Z</time>
      </trkpt>
      <trkpt lat="45.7071" lon="6.19144">
        <ele>1880.4000244141</ele>
        <time>2013-01-25T10:02:39.000Z</time>
      </trkpt>
      <trkpt lat="45.70703" lon="6.19142">
        <ele>1880</ele>
        <time>2013-01-25T10:02:47.000Z</time>
      </trkpt>
      <trkpt lat="45.70693" lon="6.19141">
        <ele>1879.1999511719</ele>
        <time>2013-01-25T10:02:56.000Z</time>
      </trkpt>
      <trkpt lat="45.70682" lon="6.19138">
        <ele>1879.1999511719</ele>
        <time>2013-01-25T10:03:05.000Z</time>
      </trkpt>
      <trkpt lat="45.70675" lon="6.19138">
        <ele>1879.5999755859</ele>
        <time>2013-01-25T10:03:12.000Z</time>
      </trkpt>
      <trkpt lat="45.70667" lon="6.19135">
        <ele>1879.8000488281</ele>
        <time>2013-01-25T10:03:20.000Z</time>
      </trkpt>
      <trkpt lat="45.70658" lon="6.19133">
        <ele>1879.8000488281</ele>
        <time>2013-01-25T10:03:28.000Z</time>
      </trkpt>
      <trkpt lat="45.70646" lon="6.1913">
        <ele>1878.8000488281</ele>
        <time>2013-01-25T10:03:37.000Z</time>
      </trkpt>
      <trkpt lat="45.70641" lon="6.19128">
        <ele>1879</ele>
        <time>2013-01-25T10:03:44.000Z</time>
      </trkpt>
      <trkpt lat="45.70634" lon="6.19123">
        <ele>1879</ele>
        <time>2013-01-25T10:03:51.000Z</time>
      </trkpt>
      <trkpt lat="45.70628" lon="6.19119">
        <ele>1879.8000488281</ele>
        <time>2013-01-25T10:03:59.000Z</time>
      </trkpt>
      <trkpt lat="45.7062" lon="6.19115">
        <ele>1880.4000244141</ele>
        <time>2013-01-25T10:04:08.000Z</time>
      </trkpt>
      <trkpt lat="45.7061" lon="6.19112">
        <ele>1880.1999511719</ele>
        <time>2013-01-25T10:04:17.000Z</time>
      </trkpt>
      <trkpt lat="45.70601" lon="6.1911">
        <ele>1880.1999511719</ele>
        <time>2013-01-25T10:04:26.000Z</time>
      </trkpt>
      <trkpt lat="45.70592" lon="6.19103">
        <ele>1880</ele>
        <time>2013-01-25T10:04:34.000Z</time>
      </trkpt>
      <trkpt lat="45.70583" lon="6.19096">
        <ele>1878.8000488281</ele>
        <time>2013-01-25T10:04:42.000Z</time>
      </trkpt>
      <trkpt lat="45.70569" lon="6.19089">
        <ele>1878</ele>
        <time>2013-01-25T10:04:52.000Z</time>
      </trkpt>
      <trkpt lat="45.7056" lon="6.19082">
        <ele>1877.1999511719</ele>
        <time>2013-01-25T10:04:59.000Z</time>
      </trkpt>
      <trkpt lat="45.70549" lon="6.19075">
        <ele>1876</ele>
        <time>2013-01-25T10:05:08.000Z</time>
      </trkpt>
      <trkpt lat="45.70537" lon="6.19069">
        <ele>1875.8000488281</ele>
        <time>2013-01-25T10:05:17.000Z</time>
      </trkpt>
      <trkpt lat="45.70527" lon="6.19064">
        <ele>1875.5999755859</ele>
        <time>2013-01-25T10:05:25.000Z</time>
      </trkpt>
      <trkpt lat="45.70516" lon="6.19058">
        <ele>1875.5999755859</ele>
        <time>2013-01-25T10:05:34.000Z</time>
      </trkpt>
      <trkpt lat="45.70505" lon="6.19051">
        <ele>1875</ele>
        <time>2013-01-25T10:05:42.000Z</time>
      </trkpt>
      <trkpt lat="45.70493" lon="6.19042">
        <ele>1873.1999511719</ele>
        <time>2013-01-25T10:05:50.000Z</time>
      </trkpt>
      <trkpt lat="45.70485" lon="6.19037">
        <ele>1872.5999755859</ele>
        <time>2013-01-25T10:05:56.000Z</time>
      </trkpt>
      <trkpt lat="45.70473" lon="6.1903">
        <ele>1870</ele>
        <time>2013-01-25T10:06:04.000Z</time>
      </trkpt>
      <trkpt lat="45.70462" lon="6.19023">
        <ele>1868.1999511719</ele>
        <time>2013-01-25T10:06:13.000Z</time>
      </trkpt>
      <trkpt lat="45.70452" lon="6.19016">
        <ele>1866.8000488281</ele>
        <time>2013-01-25T10:06:22.000Z</time>
      </trkpt>
      <trkpt lat="45.70444" lon="6.19011">
        <ele>1865.4000244141</ele>
        <time>2013-01-25T10:06:29.000Z</time>
      </trkpt>
      <trkpt lat="45.7044" lon="6.1901">
        <ele>1865.4000244141</ele>
        <time>2013-01-25T10:06:32.000Z</time>
      </trkpt>
      <trkpt lat="45.70434" lon="6.19012">
        <ele>1864</ele>
        <time>2013-01-25T10:06:40.000Z</time>
      </trkpt>
      <trkpt lat="45.70425" lon="6.19017">
        <ele>1862</ele>
        <time>2013-01-25T10:06:46.000Z</time>
      </trkpt>
      <trkpt lat="45.70422" lon="6.19021">
        <ele>1860</ele>
        <time>2013-01-25T10:06:50.000Z</time>
      </trkpt>
      <trkpt lat="45.70413" lon="6.19031">
        <ele>1856.1999511719</ele>
        <time>2013-01-25T10:06:59.000Z</time>
      </trkpt>
      <trkpt lat="45.70412" lon="6.19031">
        <ele>1855.4000244141</ele>
        <time>2013-01-25T10:07:02.000Z</time>
      </trkpt>
      <trkpt lat="45.70403" lon="6.19032">
        <ele>1852.8000488281</ele>
        <time>2013-01-25T10:07:07.000Z</time>
      </trkpt>
      <trkpt lat="45.704" lon="6.19032">
        <ele>1851.8000488281</ele>
        <time>2013-01-25T10:07:09.000Z</time>
      </trkpt>
      <trkpt lat="45.70387" lon="6.19028">
        <ele>1848.5999755859</ele>
        <time>2013-01-25T10:07:18.000Z</time>
      </trkpt>
      <trkpt lat="45.70374" lon="6.19023">
        <ele>1844</ele>
        <time>2013-01-25T10:07:26.000Z</time>
      </trkpt>
      <trkpt lat="45.70373" lon="6.19023">
        <ele>1844</ele>
        <time>2013-01-25T10:07:27.000Z</time>
      </trkpt>
      <trkpt lat="45.7036" lon="6.19019">
        <ele>1841</ele>
        <time>2013-01-25T10:07:34.000Z</time>
      </trkpt>
      <trkpt lat="45.70348" lon="6.19014">
        <ele>1837</ele>
        <time>2013-01-25T10:07:40.000Z</time>
      </trkpt>
      <trkpt lat="45.70335" lon="6.19009">
        <ele>1833</ele>
        <time>2013-01-25T10:07:46.000Z</time>
      </trkpt>
      <trkpt lat="45.70318" lon="6.19005">
        <ele>1826.5999755859</ele>
        <time>2013-01-25T10:07:53.000Z</time>
      </trkpt>
      <trkpt lat="45.70306" lon="6.19005">
        <ele>1824.4000244141</ele>
        <time>2013-01-25T10:08:01.000Z</time>
      </trkpt>
      <trkpt lat="45.70295" lon="6.19006">
        <ele>1820.8000488281</ele>
        <time>2013-01-25T10:08:08.000Z</time>
      </trkpt>
      <trkpt lat="45.70287" lon="6.19006">
        <ele>1819.5999755859</ele>
        <time>2013-01-25T10:08:15.000Z</time>
      </trkpt>
      <trkpt lat="45.70279" lon="6.19008">
        <ele>1817.4000244141</ele>
        <time>2013-01-25T10:08:22.000Z</time>
      </trkpt>
      <trkpt lat="45.7027" lon="6.19009">
        <ele>1815</ele>
        <time>2013-01-25T10:08:28.000Z</time>
      </trkpt>
      <trkpt lat="45.70259" lon="6.19008">
        <ele>1813.1999511719</ele>
        <time>2013-01-25T10:08:34.000Z</time>
      </trkpt>
      <trkpt lat="45.7025" lon="6.19007">
        <ele>1812</ele>
        <time>2013-01-25T10:08:39.000Z</time>
      </trkpt>
      <trkpt lat="45.7024" lon="6.19005">
        <ele>1809.4000244141</ele>
        <time>2013-01-25T10:08:44.000Z</time>
      </trkpt>
      <trkpt lat="45.7023" lon="6.19003">
        <ele>1807.5999755859</ele>
        <time>2013-01-25T10:08:50.000Z</time>
      </trkpt>
      <trkpt lat="45.70215" lon="6.19">
        <ele>1804.4000244141</ele>
        <time>2013-01-25T10:08:58.000Z</time>
      </trkpt>
      <trkpt lat="45.70208" lon="6.18998">
        <ele>1802.5999755859</ele>
        <time>2013-01-25T10:09:02.000Z</time>
      </trkpt>
      <trkpt lat="45.702" lon="6.18996">
        <ele>1800.1999511719</ele>
        <time>2013-01-25T10:09:06.000Z</time>
      </trkpt>
      <trkpt lat="45.70185" lon="6.18993">
        <ele>1796.1999511719</ele>
        <time>2013-01-25T10:09:13.000Z</time>
      </trkpt>
      <trkpt lat="45.70165" lon="6.18989">
        <ele>1791.1999511719</ele>
        <time>2013-01-25T10:09:20.000Z</time>
      </trkpt>
      <trkpt lat="45.70155" lon="6.18987">
        <ele>1787</ele>
        <time>2013-01-25T10:09:23.000Z</time>
      </trkpt>
      <trkpt lat="45.70154" lon="6.18986">
        <ele>1786.8000488281</ele>
        <time>2013-01-25T10:09:24.000Z</time>
      </trkpt>
      <trkpt lat="45.70143" lon="6.18987">
        <ele>1784.1999511719</ele>
        <time>2013-01-25T10:09:31.000Z</time>
      </trkpt>
      <trkpt lat="45.70141" lon="6.18987">
        <ele>1783.8000488281</ele>
        <time>2013-01-25T10:09:32.000Z</time>
      </trkpt>
      <trkpt lat="45.70132" lon="6.18989">
        <ele>1782.4000244141</ele>
        <time>2013-01-25T10:09:38.000Z</time>
      </trkpt>
      <trkpt lat="45.70124" lon="6.18988">
        <ele>1780.1999511719</ele>
        <time>2013-01-25T10:09:41.000Z</time>
      </trkpt>
      <trkpt lat="45.7011" lon="6.18975">
        <ele>1774.4000244141</ele>
        <time>2013-01-25T10:09:46.000Z</time>
      </trkpt>
      <trkpt lat="45.70106" lon="6.18965">
        <ele>1773</ele>
        <time>2013-01-25T10:09:53.000Z</time>
      </trkpt>
      <trkpt lat="45.70105" lon="6.18963">
        <ele>1774</ele>
        <time>2013-01-25T10:09:55.000Z</time>
      </trkpt>
      <trkpt lat="45.70097" lon="6.18957">
        <ele>1777.4000244141</ele>
        <time>2013-01-25T10:10:05.000Z</time>
      </trkpt>
      <trkpt lat="45.70093" lon="6.18953">
        <ele>1779.4000244141</ele>
        <time>2013-01-25T10:10:13.000Z</time>
      </trkpt>
      <trkpt lat="45.70086" lon="6.18952">
        <ele>1780.8000488281</ele>
        <time>2013-01-25T10:10:23.000Z</time>
      </trkpt>
      <trkpt lat="45.70083" lon="6.18952">
        <ele>1782.1999511719</ele>
        <time>2013-01-25T10:10:27.000Z</time>
      </trkpt>
      <trkpt lat="45.70071" lon="6.18956">
        <ele>1782.4000244141</ele>
        <time>2013-01-25T10:10:37.000Z</time>
      </trkpt>
      <trkpt lat="45.70057" lon="6.18958">
        <ele>1781.8000488281</ele>
        <time>2013-01-25T10:10:48.000Z</time>
      </trkpt>
      <trkpt lat="45.70045" lon="6.18957">
        <ele>1779.8000488281</ele>
        <time>2013-01-25T10:10:56.000Z</time>
      </trkpt>
      <trkpt lat="45.70037" lon="6.18956">
        <ele>1779.1999511719</ele>
        <time>2013-01-25T10:11:02.000Z</time>
      </trkpt>
      <trkpt lat="45.70032" lon="6.18955">
        <ele>1778.8000488281</ele>
        <time>2013-01-25T10:11:06.000Z</time>
      </trkpt>
      <trkpt lat="45.70023" lon="6.18952">
        <ele>1780</ele>
        <time>2013-01-25T10:11:15.000Z</time>
      </trkpt>
      <trkpt lat="45.70015" lon="6.18949">
        <ele>1779.8000488281</ele>
        <time>2013-01-25T10:11:22.000Z</time>
      </trkpt>
      <trkpt lat="45.70014" lon="6.18948">
        <ele>1780.1999511719</ele>
        <time>2013-01-25T10:11:23.000Z</time>
      </trkpt>
      <trkpt lat="45.70008" lon="6.18944">
        <ele>1781</ele>
        <time>2013-01-25T10:11:28.000Z</time>
      </trkpt>
      <trkpt lat="45.69998" lon="6.18942">
        <ele>1781.5999755859</ele>
        <time>2013-01-25T10:11:37.000Z</time>
      </trkpt>
      <trkpt lat="45.69989" lon="6.18939">
        <ele>1781.8000488281</ele>
        <time>2013-01-25T10:11:45.000Z</time>
      </trkpt>
      <trkpt lat="45.69982" lon="6.18937">
        <ele>1782.1999511719</ele>
        <time>2013-01-25T10:11:53.000Z</time>
      </trkpt>
      <trkpt lat="45.69978" lon="6.18936">
        <ele>1783.1999511719</ele>
        <time>2013-01-25T10:11:59.000Z</time>
      </trkpt>
      <trkpt lat="45.69977" lon="6.18935">
        <ele>1784</ele>
        <time>2013-01-25T10:12:05.000Z</time>
      </trkpt>
      <trkpt lat="45.6997" lon="6.18933">
        <ele>1784.8000488281</ele>
        <time>2013-01-25T10:12:13.000Z</time>
      </trkpt>
      <trkpt lat="45.69967" lon="6.18931">
        <ele>1785.1999511719</ele>
        <time>2013-01-25T10:12:21.000Z</time>
      </trkpt>
      <trkpt lat="45.69966" lon="6.18931">
        <ele>1785.4000244141</ele>
        <time>2013-01-25T10:12:32.000Z</time>
      </trkpt>
      <trkpt lat="45.69962" lon="6.18931">
        <ele>1786</ele>
        <time>2013-01-25T10:12:41.000Z</time>
      </trkpt>
      <trkpt lat="45.69957" lon="6.18932">
        <ele>1787</ele>
        <time>2013-01-25T10:13:07.000Z</time>
      </trkpt>
      <trkpt lat="45.69949" lon="6.18934">
        <ele>1789.1999511719</ele>
        <time>2013-01-25T10:13:15.000Z</time>
      </trkpt>
      <trkpt lat="45.6994" lon="6.18935">
        <ele>1790.1999511719</ele>
        <time>2013-01-25T10:13:24.000Z</time>
      </trkpt>
      <trkpt lat="45.6993" lon="6.18934">
        <ele>1791.1999511719</ele>
        <time>2013-01-25T10:13:34.000Z</time>
      </trkpt>
      <trkpt lat="45.69921" lon="6.18932">
        <ele>1792.1999511719</ele>
        <time>2013-01-25T10:13:43.000Z</time>
      </trkpt>
      <trkpt lat="45.69912" lon="6.1893">
        <ele>1794</ele>
        <time>2013-01-25T10:13:53.000Z</time>
      </trkpt>
      <trkpt lat="45.69903" lon="6.18928">
        <ele>1796</ele>
        <time>2013-01-25T10:14:04.000Z</time>
      </trkpt>
      <trkpt lat="45.69896" lon="6.18923">
        <ele>1797.1999511719</ele>
        <time>2013-01-25T10:14:13.000Z</time>
      </trkpt>
      <trkpt lat="45.69893" lon="6.18922">
        <ele>1797.8000488281</ele>
        <time>2013-01-25T10:14:23.000Z</time>
      </trkpt>
      <trkpt lat="45.69887" lon="6.18923">
        <ele>1798.1999511719</ele>
        <time>2013-01-25T10:15:19.000Z</time>
      </trkpt>
      <trkpt lat="45.69878" lon="6.18921">
        <ele>1799.8000488281</ele>
        <time>2013-01-25T10:15:29.000Z</time>
      </trkpt>
      <trkpt lat="45.6987" lon="6.18918">
        <ele>1800.8000488281</ele>
        <time>2013-01-25T10:15:39.000Z</time>
      </trkpt>
      <trkpt lat="45.69864" lon="6.18916">
        <ele>1802</ele>
        <time>2013-01-25T10:15:47.000Z</time>
      </trkpt>
      <trkpt lat="45.69858" lon="6.18914">
        <ele>1805.1999511719</ele>
        <time>2013-01-25T10:15:55.000Z</time>
      </trkpt>
      <trkpt lat="45.69857" lon="6.18914">
        <ele>1805.4000244141</ele>
        <time>2013-01-25T10:15:56.000Z</time>
      </trkpt>
      <trkpt lat="45.69855" lon="6.18913">
        <ele>1805.1999511719</ele>
        <time>2013-01-25T10:15:58.000Z</time>
      </trkpt>
      <trkpt lat="45.69849" lon="6.18909">
        <ele>1806.5999755859</ele>
        <time>2013-01-25T10:16:05.000Z</time>
      </trkpt>
      <trkpt lat="45.69839" lon="6.18907">
        <ele>1808</ele>
        <time>2013-01-25T10:16:17.000Z</time>
      </trkpt>
      <trkpt lat="45.69832" lon="6.1891">
        <ele>1810.8000488281</ele>
        <time>2013-01-25T10:16:27.000Z</time>
      </trkpt>
      <trkpt lat="45.69829" lon="6.18912">
        <ele>1810.1999511719</ele>
        <time>2013-01-25T10:16:31.000Z</time>
      </trkpt>
      <trkpt lat="45.69819" lon="6.1892">
        <ele>1814.8000488281</ele>
        <time>2013-01-25T10:16:46.000Z</time>
      </trkpt>
      <trkpt lat="45.69814" lon="6.18928">
        <ele>1817</ele>
        <time>2013-01-25T10:16:56.000Z</time>
      </trkpt>
      <trkpt lat="45.69811" lon="6.18936">
        <ele>1818.5999755859</ele>
        <time>2013-01-25T10:17:07.000Z</time>
      </trkpt>
      <trkpt lat="45.69806" lon="6.18944">
        <ele>1821.1999511719</ele>
        <time>2013-01-25T10:17:18.000Z</time>
      </trkpt>
      <trkpt lat="45.698" lon="6.18951">
        <ele>1822.1999511719</ele>
        <time>2013-01-25T10:17:29.000Z</time>
      </trkpt>
      <trkpt lat="45.69799" lon="6.18951">
        <ele>1822</ele>
        <time>2013-01-25T10:17:30.000Z</time>
      </trkpt>
      <trkpt lat="45.69794" lon="6.18954">
        <ele>1826.1999511719</ele>
        <time>2013-01-25T10:17:38.000Z</time>
      </trkpt>
      <trkpt lat="45.6979" lon="6.18956">
        <ele>1827.1999511719</ele>
        <time>2013-01-25T10:17:45.000Z</time>
      </trkpt>
      <trkpt lat="45.69784" lon="6.18961">
        <ele>1826.1999511719</ele>
        <time>2013-01-25T10:17:54.000Z</time>
      </trkpt>
      <trkpt lat="45.6978" lon="6.18966">
        <ele>1828</ele>
        <time>2013-01-25T10:18:01.000Z</time>
      </trkpt>
      <trkpt lat="45.6978" lon="6.18969">
        <ele>1829.4000244141</ele>
        <time>2013-01-25T10:18:04.000Z</time>
      </trkpt>
      <trkpt lat="45.69779" lon="6.18971">
        <ele>1830.5999755859</ele>
        <time>2013-01-25T10:18:06.000Z</time>
      </trkpt>
      <trkpt lat="45.69779" lon="6.18973">
        <ele>1831.8000488281</ele>
        <time>2013-01-25T10:18:08.000Z</time>
      </trkpt>
      <trkpt lat="45.69775" lon="6.18974">
        <ele>1832</ele>
        <time>2013-01-25T10:18:14.000Z</time>
      </trkpt>
      <trkpt lat="45.69772" lon="6.18974">
        <ele>1831.4000244141</ele>
        <time>2013-01-25T10:18:17.000Z</time>
      </trkpt>
      <trkpt lat="45.6977" lon="6.18977">
        <ele>1832.8000488281</ele>
        <time>2013-01-25T10:18:20.000Z</time>
      </trkpt>
      <trkpt lat="45.69766" lon="6.18986">
        <ele>1833</ele>
        <time>2013-01-25T10:18:27.000Z</time>
      </trkpt>
      <trkpt lat="45.69764" lon="6.18992">
        <ele>1832.4000244141</ele>
        <time>2013-01-25T10:18:35.000Z</time>
      </trkpt>
      <trkpt lat="45.69762" lon="6.19002">
        <ele>1831.8000488281</ele>
        <time>2013-01-25T10:19:03.000Z</time>
      </trkpt>
      <trkpt lat="45.69758" lon="6.19013">
        <ele>1831.5999755859</ele>
        <time>2013-01-25T10:19:10.000Z</time>
      </trkpt>
      <trkpt lat="45.69755" lon="6.19022">
        <ele>1833</ele>
        <time>2013-01-25T10:19:17.000Z</time>
      </trkpt>
      <trkpt lat="45.69748" lon="6.19028">
        <ele>1833.4000244141</ele>
        <time>2013-01-25T10:19:25.000Z</time>
      </trkpt>
      <trkpt lat="45.69741" lon="6.1903">
        <ele>1834.5999755859</ele>
        <time>2013-01-25T10:19:33.000Z</time>
      </trkpt>
      <trkpt lat="45.69735" lon="6.19031">
        <ele>1835.8000488281</ele>
        <time>2013-01-25T10:19:41.000Z</time>
      </trkpt>
      <trkpt lat="45.69733" lon="6.19031">
        <ele>1836</ele>
        <time>2013-01-25T10:19:50.000Z</time>
      </trkpt>
      <trkpt lat="45.69728" lon="6.19033">
        <ele>1836.5999755859</ele>
        <time>2013-01-25T10:20:03.000Z</time>
      </trkpt>
      <trkpt lat="45.69724" lon="6.19034">
        <ele>1838.5999755859</ele>
        <time>2013-01-25T10:20:10.000Z</time>
      </trkpt>
      <trkpt lat="45.69718" lon="6.19035">
        <ele>1839.5999755859</ele>
        <time>2013-01-25T10:20:17.000Z</time>
      </trkpt>
      <trkpt lat="45.69714" lon="6.19036">
        <ele>1840.4000244141</ele>
        <time>2013-01-25T10:20:23.000Z</time>
      </trkpt>
      <trkpt lat="45.69709" lon="6.19037">
        <ele>1844.5999755859</ele>
        <time>2013-01-25T10:20:30.000Z</time>
      </trkpt>
      <trkpt lat="45.69702" lon="6.19042">
        <ele>1844.1999511719</ele>
        <time>2013-01-25T10:20:41.000Z</time>
      </trkpt>
      <trkpt lat="45.697" lon="6.19044">
        <ele>1846.4000244141</ele>
        <time>2013-01-25T10:20:46.000Z</time>
      </trkpt>
      <trkpt lat="45.69696" lon="6.19047">
        <ele>1847.1999511719</ele>
        <time>2013-01-25T10:20:54.000Z</time>
      </trkpt>
      <trkpt lat="45.69693" lon="6.19049">
        <ele>1849.1999511719</ele>
        <time>2013-01-25T10:20:59.000Z</time>
      </trkpt>
      <trkpt lat="45.69693" lon="6.19052">
        <ele>1850.8000488281</ele>
        <time>2013-01-25T10:21:05.000Z</time>
      </trkpt>
      <trkpt lat="45.69692" lon="6.19054">
        <ele>1852</ele>
        <time>2013-01-25T10:21:10.000Z</time>
      </trkpt>
      <trkpt lat="45.69688" lon="6.19058">
        <ele>1853.5999755859</ele>
        <time>2013-01-25T10:21:21.000Z</time>
      </trkpt>
      <trkpt lat="45.69686" lon="6.19058">
        <ele>1854.5999755859</ele>
        <time>2013-01-25T10:21:25.000Z</time>
      </trkpt>
      <trkpt lat="45.6968" lon="6.19059">
        <ele>1858.4000244141</ele>
        <time>2013-01-25T10:21:35.000Z</time>
      </trkpt>
      <trkpt lat="45.69678" lon="6.19059">
        <ele>1860.1999511719</ele>
        <time>2013-01-25T10:21:40.000Z</time>
      </trkpt>
      <trkpt lat="45.69675" lon="6.19059">
        <ele>1861</ele>
        <time>2013-01-25T10:21:46.000Z</time>
      </trkpt>
      <trkpt lat="45.69672" lon="6.19058">
        <ele>1862.8000488281</ele>
        <time>2013-01-25T10:21:52.000Z</time>
      </trkpt>
      <trkpt lat="45.69669" lon="6.19056">
        <ele>1864.1999511719</ele>
        <time>2013-01-25T10:22:00.000Z</time>
      </trkpt>
      <trkpt lat="45.69667" lon="6.19056">
        <ele>1863.8000488281</ele>
        <time>2013-01-25T10:22:05.000Z</time>
      </trkpt>
      <trkpt lat="45.69665" lon="6.19058">
        <ele>1865</ele>
        <time>2013-01-25T10:22:11.000Z</time>
      </trkpt>
      <trkpt lat="45.69665" lon="6.19062">
        <ele>1866</ele>
        <time>2013-01-25T10:22:17.000Z</time>
      </trkpt>
      <trkpt lat="45.69666" lon="6.19064">
        <ele>1866.8000488281</ele>
        <time>2013-01-25T10:22:19.000Z</time>
      </trkpt>
      <trkpt lat="45.69661" lon="6.19063">
        <ele>1867.8000488281</ele>
        <time>2013-01-25T10:22:33.000Z</time>
      </trkpt>
      <trkpt lat="45.69659" lon="6.19059">
        <ele>1869.5999755859</ele>
        <time>2013-01-25T10:22:41.000Z</time>
      </trkpt>
      <trkpt lat="45.69657" lon="6.19058">
        <ele>1871</ele>
        <time>2013-01-25T10:22:46.000Z</time>
      </trkpt>
      <trkpt lat="45.69654" lon="6.19055">
        <ele>1871.1999511719</ele>
        <time>2013-01-25T10:22:52.000Z</time>
      </trkpt>
      <trkpt lat="45.69654" lon="6.19054">
        <ele>1872.1999511719</ele>
        <time>2013-01-25T10:23:00.000Z</time>
      </trkpt>
      <trkpt lat="45.69655" lon="6.19058">
        <ele>1871.1999511719</ele>
        <time>2013-01-25T10:23:23.000Z</time>
      </trkpt>
      <trkpt lat="45.69653" lon="6.1906">
        <ele>1872.8000488281</ele>
        <time>2013-01-25T10:23:28.000Z</time>
      </trkpt>
      <trkpt lat="45.69651" lon="6.19061">
        <ele>1872.1999511719</ele>
        <time>2013-01-25T10:23:36.000Z</time>
      </trkpt>
      <trkpt lat="45.69648" lon="6.19061">
        <ele>1875.1999511719</ele>
        <time>2013-01-25T10:23:44.000Z</time>
      </trkpt>
      <trkpt lat="45.69645" lon="6.19059">
        <ele>1875.1999511719</ele>
        <time>2013-01-25T10:23:51.000Z</time>
      </trkpt>
      <trkpt lat="45.69641" lon="6.19056">
        <ele>1876.5999755859</ele>
        <time>2013-01-25T10:23:57.000Z</time>
      </trkpt>
      <trkpt lat="45.69638" lon="6.19055">
        <ele>1878.4000244141</ele>
        <time>2013-01-25T10:24:04.000Z</time>
      </trkpt>
      <trkpt lat="45.69633" lon="6.19053">
        <ele>1879</ele>
        <time>2013-01-25T10:24:13.000Z</time>
      </trkpt>
      <trkpt lat="45.69632" lon="6.19057">
        <ele>1881.8000488281</ele>
        <time>2013-01-25T10:24:23.000Z</time>
      </trkpt>
      <trkpt lat="45.69631" lon="6.19062">
        <ele>1882.8000488281</ele>
        <time>2013-01-25T10:24:30.000Z</time>
      </trkpt>
      <trkpt lat="45.69625" lon="6.19065">
        <ele>1881.4000244141</ele>
        <time>2013-01-25T10:24:39.000Z</time>
      </trkpt>
      <trkpt lat="45.69619" lon="6.19067">
        <ele>1882.4000244141</ele>
        <time>2013-01-25T10:24:47.000Z</time>
      </trkpt>
      <trkpt lat="45.69612" lon="6.1907">
        <ele>1885.5999755859</ele>
        <time>2013-01-25T10:24:57.000Z</time>
      </trkpt>
      <trkpt lat="45.69604" lon="6.19072">
        <ele>1885.1999511719</ele>
        <time>2013-01-25T10:25:05.000Z</time>
      </trkpt>
      <trkpt lat="45.69595" lon="6.19075">
        <ele>1884.8000488281</ele>
        <time>2013-01-25T10:25:13.000Z</time>
      </trkpt>
      <trkpt lat="45.69587" lon="6.19077">
        <ele>1883.5999755859</ele>
        <time>2013-01-25T10:25:21.000Z</time>
      </trkpt>
      <trkpt lat="45.69577" lon="6.1908">
        <ele>1883.4000244141</ele>
        <time>2013-01-25T10:25:31.000Z</time>
      </trkpt>
      <trkpt lat="45.69567" lon="6.19087">
        <ele>1883.8000488281</ele>
        <time>2013-01-25T10:25:40.000Z</time>
      </trkpt>
      <trkpt lat="45.6956" lon="6.19091">
        <ele>1883.1999511719</ele>
        <time>2013-01-25T10:25:48.000Z</time>
      </trkpt>
      <trkpt lat="45.69556" lon="6.19092">
        <ele>1882.4000244141</ele>
        <time>2013-01-25T10:25:57.000Z</time>
      </trkpt>
      <trkpt lat="45.69546" lon="6.19096">
        <ele>1883</ele>
        <time>2013-01-25T10:26:06.000Z</time>
      </trkpt>
      <trkpt lat="45.69539" lon="6.19101">
        <ele>1883.4000244141</ele>
        <time>2013-01-25T10:26:14.000Z</time>
      </trkpt>
      <trkpt lat="45.6953" lon="6.19107">
        <ele>1884.4000244141</ele>
        <time>2013-01-25T10:26:23.000Z</time>
      </trkpt>
      <trkpt lat="45.6952" lon="6.19111">
        <ele>1882.8000488281</ele>
        <time>2013-01-25T10:26:32.000Z</time>
      </trkpt>
      <trkpt lat="45.69514" lon="6.19119">
        <ele>1881.5999755859</ele>
        <time>2013-01-25T10:26:39.000Z</time>
      </trkpt>
      <trkpt lat="45.69509" lon="6.19129">
        <ele>1882.1999511719</ele>
        <time>2013-01-25T10:26:47.000Z</time>
      </trkpt>
      <trkpt lat="45.69502" lon="6.19139">
        <ele>1882.1999511719</ele>
        <time>2013-01-25T10:26:56.000Z</time>
      </trkpt>
      <trkpt lat="45.69496" lon="6.19147">
        <ele>1883.5999755859</ele>
        <time>2013-01-25T10:27:06.000Z</time>
      </trkpt>
      <trkpt lat="45.69492" lon="6.19153">
        <ele>1884</ele>
        <time>2013-01-25T10:27:12.000Z</time>
      </trkpt>
      <trkpt lat="45.69491" lon="6.19156">
        <ele>1883.8000488281</ele>
        <time>2013-01-25T10:27:17.000Z</time>
      </trkpt>
      <trkpt lat="45.69489" lon="6.19161">
        <ele>1886.1999511719</ele>
        <time>2013-01-25T10:27:24.000Z</time>
      </trkpt>
      <trkpt lat="45.69487" lon="6.19167">
        <ele>1889.1999511719</ele>
        <time>2013-01-25T10:27:31.000Z</time>
      </trkpt>
      <trkpt lat="45.69486" lon="6.19169">
        <ele>1890</ele>
        <time>2013-01-25T10:27:33.000Z</time>
      </trkpt>
      <trkpt lat="45.69482" lon="6.19177">
        <ele>1891</ele>
        <time>2013-01-25T10:27:43.000Z</time>
      </trkpt>
      <trkpt lat="45.6948" lon="6.19179">
        <ele>1889.8000488281</ele>
        <time>2013-01-25T10:27:49.000Z</time>
      </trkpt>
      <trkpt lat="45.69477" lon="6.19182">
        <ele>1892</ele>
        <time>2013-01-25T10:27:55.000Z</time>
      </trkpt>
      <trkpt lat="45.69472" lon="6.19185">
        <ele>1892.8000488281</ele>
        <time>2013-01-25T10:28:04.000Z</time>
      </trkpt>
      <trkpt lat="45.69471" lon="6.19185">
        <ele>1892.1999511719</ele>
        <time>2013-01-25T10:28:05.000Z</time>
      </trkpt>
      <trkpt lat="45.69465" lon="6.1919">
        <ele>1894.1999511719</ele>
        <time>2013-01-25T10:28:15.000Z</time>
      </trkpt>
      <trkpt lat="45.69461" lon="6.19194">
        <ele>1895</ele>
        <time>2013-01-25T10:28:22.000Z</time>
      </trkpt>
      <trkpt lat="45.69459" lon="6.19202">
        <ele>1896.5999755859</ele>
        <time>2013-01-25T10:28:31.000Z</time>
      </trkpt>
      <trkpt lat="45.69458" lon="6.19205">
        <ele>1896.8000488281</ele>
        <time>2013-01-25T10:28:34.000Z</time>
      </trkpt>
      <trkpt lat="45.69458" lon="6.19212">
        <ele>1896.8000488281</ele>
        <time>2013-01-25T10:28:39.000Z</time>
      </trkpt>
      <trkpt lat="45.69456" lon="6.19215">
        <ele>1897.8000488281</ele>
        <time>2013-01-25T10:28:45.000Z</time>
      </trkpt>
      <trkpt lat="45.69457" lon="6.19222">
        <ele>1897.8000488281</ele>
        <time>2013-01-25T10:28:50.000Z</time>
      </trkpt>
      <trkpt lat="45.69455" lon="6.19226">
        <ele>1899.1999511719</ele>
        <time>2013-01-25T10:28:57.000Z</time>
      </trkpt>
      <trkpt lat="45.69454" lon="6.1923">
        <ele>1901.1999511719</ele>
        <time>2013-01-25T10:29:03.000Z</time>
      </trkpt>
      <trkpt lat="45.69453" lon="6.19235">
        <ele>1901.8000488281</ele>
        <time>2013-01-25T10:29:08.000Z</time>
      </trkpt>
      <trkpt lat="45.69452" lon="6.19238">
        <ele>1902.8000488281</ele>
        <time>2013-01-25T10:29:14.000Z</time>
      </trkpt>
      <trkpt lat="45.69464" lon="6.19258">
        <ele>1897.8000488281</ele>
        <time>2013-01-25T10:29:47.000Z</time>
      </trkpt>
      <trkpt lat="45.69466" lon="6.19262">
        <ele>1901</ele>
        <time>2013-01-25T10:29:49.000Z</time>
      </trkpt>
      <trkpt lat="45.69469" lon="6.19276">
        <ele>1901.1999511719</ele>
        <time>2013-01-25T10:29:55.000Z</time>
      </trkpt>
      <trkpt lat="45.69469" lon="6.19277">
        <ele>1901</ele>
        <time>2013-01-25T10:29:56.000Z</time>
      </trkpt>
      <trkpt lat="45.69466" lon="6.19263">
        <ele>1901.1999511719</ele>
        <time>2013-01-25T10:30:04.000Z</time>
      </trkpt>
      <trkpt lat="45.69466" lon="6.19263">
        <ele>1900.8000488281</ele>
        <time>2013-01-25T10:30:05.000Z</time>
      </trkpt>
      <trkpt lat="45.69463" lon="6.19262">
        <ele>1901.1999511719</ele>
        <time>2013-01-25T10:30:11.000Z</time>
      </trkpt>
      <trkpt lat="45.69463" lon="6.19264">
        <ele>1900.5999755859</ele>
        <time>2013-01-25T10:30:22.000Z</time>
      </trkpt>
      <trkpt lat="45.69455" lon="6.19241">
        <ele>1901.1999511719</ele>
        <time>2013-01-25T10:30:39.000Z</time>
      </trkpt>
      <trkpt lat="45.69452" lon="6.19232">
        <ele>1901.4000244141</ele>
        <time>2013-01-25T10:30:44.000Z</time>
      </trkpt>
      <trkpt lat="45.69455" lon="6.1924">
        <ele>1901.4000244141</ele>
        <time>2013-01-25T10:30:50.000Z</time>
      </trkpt>
      <trkpt lat="45.69449" lon="6.19228">
        <ele>1901.8000488281</ele>
        <time>2013-01-25T10:31:29.000Z</time>
      </trkpt>
      <trkpt lat="45.69448" lon="6.19229">
        <ele>1903</ele>
        <time>2013-01-25T10:31:41.000Z</time>
      </trkpt>
      <trkpt lat="45.6945" lon="6.19236">
        <ele>1902.5999755859</ele>
        <time>2013-01-25T10:31:50.000Z</time>
      </trkpt>
      <trkpt lat="45.69449" lon="6.19238">
        <ele>1903.4000244141</ele>
        <time>2013-01-25T10:31:57.000Z</time>
      </trkpt>
      <trkpt lat="45.69446" lon="6.19245">
        <ele>1904.4000244141</ele>
        <time>2013-01-25T10:32:05.000Z</time>
      </trkpt>
      <trkpt lat="45.69443" lon="6.19245">
        <ele>1903.8000488281</ele>
        <time>2013-01-25T10:32:10.000Z</time>
      </trkpt>
      <trkpt lat="45.6944" lon="6.19243">
        <ele>1904</ele>
        <time>2013-01-25T10:32:17.000Z</time>
      </trkpt>
      <trkpt lat="45.69416" lon="6.1921">
        <ele>1904.4000244141</ele>
        <time>2013-01-25T10:33:16.000Z</time>
      </trkpt>
      <trkpt lat="45.69424" lon="6.19225">
        <ele>1905.1999511719</ele>
        <time>2013-01-25T10:33:25.000Z</time>
      </trkpt>
      <trkpt lat="45.69426" lon="6.19236">
        <ele>1905.4000244141</ele>
        <time>2013-01-25T10:33:33.000Z</time>
      </trkpt>
      <trkpt lat="45.69427" lon="6.19241">
        <ele>1906</ele>
        <time>2013-01-25T10:33:35.000Z</time>
      </trkpt>
      <trkpt lat="45.69428" lon="6.1925">
        <ele>1907</ele>
        <time>2013-01-25T10:33:44.000Z</time>
      </trkpt>
      <trkpt lat="45.69427" lon="6.19257">
        <ele>1908.1999511719</ele>
        <time>2013-01-25T10:33:52.000Z</time>
      </trkpt>
      <trkpt lat="45.69426" lon="6.19259">
        <ele>1908.1999511719</ele>
        <time>2013-01-25T10:33:57.000Z</time>
      </trkpt>
      <trkpt lat="45.69426" lon="6.19265">
        <ele>1909.5999755859</ele>
        <time>2013-01-25T10:34:03.000Z</time>
      </trkpt>
      <trkpt lat="45.69423" lon="6.19267">
        <ele>1910.8000488281</ele>
        <time>2013-01-25T10:34:10.000Z</time>
      </trkpt>
      <trkpt lat="45.69425" lon="6.19275">
        <ele>1911.4000244141</ele>
        <time>2013-01-25T10:34:17.000Z</time>
      </trkpt>
      <trkpt lat="45.69426" lon="6.19274">
        <ele>1912.1999511719</ele>
        <time>2013-01-25T10:34:24.000Z</time>
      </trkpt>
      <trkpt lat="45.69429" lon="6.19267">
        <ele>1909.1999511719</ele>
        <time>2013-01-25T10:34:37.000Z</time>
      </trkpt>
      <trkpt lat="45.69432" lon="6.19262">
        <ele>1909.1999511719</ele>
        <time>2013-01-25T10:34:47.000Z</time>
      </trkpt>
      <trkpt lat="45.69433" lon="6.1926">
        <ele>1911</ele>
        <time>2013-01-25T10:34:51.000Z</time>
      </trkpt>
      <trkpt lat="45.69436" lon="6.19263">
        <ele>1915.4000244141</ele>
        <time>2013-01-25T10:35:01.000Z</time>
      </trkpt>
      <trkpt lat="45.69432" lon="6.19272">
        <ele>1917.4000244141</ele>
        <time>2013-01-25T10:35:16.000Z</time>
      </trkpt>
      <trkpt lat="45.6943" lon="6.19278">
        <ele>1918.5999755859</ele>
        <time>2013-01-25T10:35:23.000Z</time>
      </trkpt>
      <trkpt lat="45.6944" lon="6.19274">
        <ele>1921</ele>
        <time>2013-01-25T10:35:45.000Z</time>
      </trkpt>
      <trkpt lat="45.69442" lon="6.19268">
        <ele>1921</ele>
        <time>2013-01-25T10:35:51.000Z</time>
      </trkpt>
      <trkpt lat="45.69439" lon="6.19269">
        <ele>1923.1999511719</ele>
        <time>2013-01-25T10:35:57.000Z</time>
      </trkpt>
      <trkpt lat="45.69437" lon="6.19274">
        <ele>1925.1999511719</ele>
        <time>2013-01-25T10:36:07.000Z</time>
      </trkpt>
      <trkpt lat="45.69451" lon="6.19277">
        <ele>1930.5999755859</ele>
        <time>2013-01-25T10:36:25.000Z</time>
      </trkpt>
      <trkpt lat="45.69455" lon="6.19275">
        <ele>1931.8000488281</ele>
        <time>2013-01-25T10:36:31.000Z</time>
      </trkpt>
      <trkpt lat="45.69458" lon="6.19275">
        <ele>1932.4000244141</ele>
        <time>2013-01-25T10:36:37.000Z</time>
      </trkpt>
      <trkpt lat="45.69461" lon="6.19273">
        <ele>1932.4000244141</ele>
        <time>2013-01-25T10:36:42.000Z</time>
      </trkpt>
      <trkpt lat="45.69466" lon="6.19277">
        <ele>1933.4000244141</ele>
        <time>2013-01-25T10:36:50.000Z</time>
      </trkpt>
      <trkpt lat="45.69467" lon="6.19278">
        <ele>1933.4000244141</ele>
        <time>2013-01-25T10:36:51.000Z</time>
      </trkpt>
      <trkpt lat="45.69472" lon="6.19282">
        <ele>1934.1999511719</ele>
        <time>2013-01-25T10:36:58.000Z</time>
      </trkpt>
      <trkpt lat="45.69475" lon="6.19285">
        <ele>1935.5999755859</ele>
        <time>2013-01-25T10:37:02.000Z</time>
      </trkpt>
      <trkpt lat="45.69479" lon="6.19289">
        <ele>1937.5999755859</ele>
        <time>2013-01-25T10:37:10.000Z</time>
      </trkpt>
      <trkpt lat="45.6948" lon="6.19289">
        <ele>1938.5999755859</ele>
        <time>2013-01-25T10:37:12.000Z</time>
      </trkpt>
      <trkpt lat="45.69478" lon="6.19291">
        <ele>1937.5999755859</ele>
        <time>2013-01-25T10:37:23.000Z</time>
      </trkpt>
      <trkpt lat="45.69475" lon="6.19292">
        <ele>1938</ele>
        <time>2013-01-25T10:37:28.000Z</time>
      </trkpt>
      <trkpt lat="45.69474" lon="6.19292">
        <ele>1939</ele>
        <time>2013-01-25T10:37:30.000Z</time>
      </trkpt>
      <trkpt lat="45.69472" lon="6.19292">
        <ele>1940.5999755859</ele>
        <time>2013-01-25T10:37:34.000Z</time>
      </trkpt>
      <trkpt lat="45.69469" lon="6.19297">
        <ele>1941</ele>
        <time>2013-01-25T10:37:42.000Z</time>
      </trkpt>
      <trkpt lat="45.69467" lon="6.19297">
        <ele>1940.5999755859</ele>
        <time>2013-01-25T10:37:47.000Z</time>
      </trkpt>
      <trkpt lat="45.69466" lon="6.19299">
        <ele>1942.4000244141</ele>
        <time>2013-01-25T10:37:52.000Z</time>
      </trkpt>
      <trkpt lat="45.69461" lon="6.193">
        <ele>1943.8000488281</ele>
        <time>2013-01-25T10:38:01.000Z</time>
      </trkpt>
      <trkpt lat="45.69463" lon="6.19301">
        <ele>1944.5999755859</ele>
        <time>2013-01-25T10:38:13.000Z</time>
      </trkpt>
      <trkpt lat="45.69473" lon="6.19308">
        <ele>1948.8000488281</ele>
        <time>2013-01-25T10:38:38.000Z</time>
      </trkpt>
      <trkpt lat="45.69474" lon="6.19311">
        <ele>1949.1999511719</ele>
        <time>2013-01-25T10:38:46.000Z</time>
      </trkpt>
      <trkpt lat="45.69471" lon="6.19312">
        <ele>1951.1999511719</ele>
        <time>2013-01-25T10:38:54.000Z</time>
      </trkpt>
      <trkpt lat="45.69472" lon="6.19314">
        <ele>1951.5999755859</ele>
        <time>2013-01-25T10:38:58.000Z</time>
      </trkpt>
      <trkpt lat="45.69476" lon="6.19318">
        <ele>1954.1999511719</ele>
        <time>2013-01-25T10:39:04.000Z</time>
      </trkpt>
      <trkpt lat="45.69479" lon="6.19322">
        <ele>1953.5999755859</ele>
        <time>2013-01-25T10:39:11.000Z</time>
      </trkpt>
      <trkpt lat="45.6948" lon="6.19325">
        <ele>1953.5999755859</ele>
        <time>2013-01-25T10:39:17.000Z</time>
      </trkpt>
      <trkpt lat="45.69483" lon="6.19328">
        <ele>1953.5999755859</ele>
        <time>2013-01-25T10:39:22.000Z</time>
      </trkpt>
      <trkpt lat="45.69485" lon="6.19331">
        <ele>1957.1999511719</ele>
        <time>2013-01-25T10:39:27.000Z</time>
      </trkpt>
      <trkpt lat="45.69487" lon="6.19335">
        <ele>1958</ele>
        <time>2013-01-25T10:39:35.000Z</time>
      </trkpt>
      <trkpt lat="45.69485" lon="6.19337">
        <ele>1958.5999755859</ele>
        <time>2013-01-25T10:39:39.000Z</time>
      </trkpt>
      <trkpt lat="45.69477" lon="6.19336">
        <ele>1959.5999755859</ele>
        <time>2013-01-25T10:39:48.000Z</time>
      </trkpt>
      <trkpt lat="45.69473" lon="6.19337">
        <ele>1960.1999511719</ele>
        <time>2013-01-25T10:39:54.000Z</time>
      </trkpt>
      <trkpt lat="45.6947" lon="6.19337">
        <ele>1962.1999511719</ele>
        <time>2013-01-25T10:39:58.000Z</time>
      </trkpt>
      <trkpt lat="45.69468" lon="6.19337">
        <ele>1961.5999755859</ele>
        <time>2013-01-25T10:40:02.000Z</time>
      </trkpt>
      <trkpt lat="45.69458" lon="6.19337">
        <ele>1964.5999755859</ele>
        <time>2013-01-25T10:40:12.000Z</time>
      </trkpt>
      <trkpt lat="45.69453" lon="6.19338">
        <ele>1965.1999511719</ele>
        <time>2013-01-25T10:40:18.000Z</time>
      </trkpt>
      <trkpt lat="45.69448" lon="6.19338">
        <ele>1968</ele>
        <time>2013-01-25T10:40:24.000Z</time>
      </trkpt>
      <trkpt lat="45.69447" lon="6.19339">
        <ele>1968.4000244141</ele>
        <time>2013-01-25T10:40:28.000Z</time>
      </trkpt>
      <trkpt lat="45.69449" lon="6.19341">
        <ele>1968</ele>
        <time>2013-01-25T10:40:33.000Z</time>
      </trkpt>
      <trkpt lat="45.69452" lon="6.19343">
        <ele>1970</ele>
        <time>2013-01-25T10:40:40.000Z</time>
      </trkpt>
      <trkpt lat="45.69458" lon="6.19347">
        <ele>1972</ele>
        <time>2013-01-25T10:40:48.000Z</time>
      </trkpt>
      <trkpt lat="45.69461" lon="6.19349">
        <ele>1973.4000244141</ele>
        <time>2013-01-25T10:40:52.000Z</time>
      </trkpt>
      <trkpt lat="45.69464" lon="6.19352">
        <ele>1974</ele>
        <time>2013-01-25T10:40:57.000Z</time>
      </trkpt>
      <trkpt lat="45.69467" lon="6.19357">
        <ele>1976</ele>
        <time>2013-01-25T10:41:04.000Z</time>
      </trkpt>
      <trkpt lat="45.69464" lon="6.19358">
        <ele>1978.4000244141</ele>
        <time>2013-01-25T10:41:12.000Z</time>
      </trkpt>
      <trkpt lat="45.6946" lon="6.19359">
        <ele>1980.4000244141</ele>
        <time>2013-01-25T10:41:18.000Z</time>
      </trkpt>
      <trkpt lat="45.69457" lon="6.1936">
        <ele>1980.1999511719</ele>
        <time>2013-01-25T10:41:24.000Z</time>
      </trkpt>
      <trkpt lat="45.69452" lon="6.19361">
        <ele>1982.8000488281</ele>
        <time>2013-01-25T10:41:32.000Z</time>
      </trkpt>
      <trkpt lat="45.69447" lon="6.19363">
        <ele>1983</ele>
        <time>2013-01-25T10:41:40.000Z</time>
      </trkpt>
      <trkpt lat="45.69444" lon="6.19364">
        <ele>1983.5999755859</ele>
        <time>2013-01-25T10:41:45.000Z</time>
      </trkpt>
      <trkpt lat="45.6944" lon="6.19369">
        <ele>1987.1999511719</ele>
        <time>2013-01-25T10:41:53.000Z</time>
      </trkpt>
      <trkpt lat="45.69436" lon="6.19374">
        <ele>1988.4000244141</ele>
        <time>2013-01-25T10:42:01.000Z</time>
      </trkpt>
      <trkpt lat="45.69432" lon="6.19379">
        <ele>1990.8000488281</ele>
        <time>2013-01-25T10:42:10.000Z</time>
      </trkpt>
      <trkpt lat="45.69429" lon="6.19382">
        <ele>1993.4000244141</ele>
        <time>2013-01-25T10:42:16.000Z</time>
      </trkpt>
      <trkpt lat="45.69427" lon="6.19383">
        <ele>1993.5999755859</ele>
        <time>2013-01-25T10:42:21.000Z</time>
      </trkpt>
      <trkpt lat="45.69423" lon="6.19385">
        <ele>1994.4000244141</ele>
        <time>2013-01-25T10:42:28.000Z</time>
      </trkpt>
      <trkpt lat="45.69418" lon="6.19386">
        <ele>1997.1999511719</ele>
        <time>2013-01-25T10:42:36.000Z</time>
      </trkpt>
      <trkpt lat="45.69417" lon="6.19386">
        <ele>1997.4000244141</ele>
        <time>2013-01-25T10:42:37.000Z</time>
      </trkpt>
      <trkpt lat="45.69412" lon="6.19388">
        <ele>1998.5999755859</ele>
        <time>2013-01-25T10:42:45.000Z</time>
      </trkpt>
      <trkpt lat="45.69407" lon="6.1939">
        <ele>1998</ele>
        <time>2013-01-25T10:42:53.000Z</time>
      </trkpt>
      <trkpt lat="45.69406" lon="6.19391">
        <ele>1998</ele>
        <time>2013-01-25T10:42:59.000Z</time>
      </trkpt>
      <trkpt lat="45.69409" lon="6.19391">
        <ele>1998.5999755859</ele>
        <time>2013-01-25T10:43:04.000Z</time>
      </trkpt>
      <trkpt lat="45.69413" lon="6.19392">
        <ele>1999.4000244141</ele>
        <time>2013-01-25T10:43:11.000Z</time>
      </trkpt>
      <trkpt lat="45.69417" lon="6.19393">
        <ele>2000</ele>
        <time>2013-01-25T10:43:21.000Z</time>
      </trkpt>
      <trkpt lat="45.69424" lon="6.19399">
        <ele>2003.5999755859</ele>
        <time>2013-01-25T10:43:39.000Z</time>
      </trkpt>
      <trkpt lat="45.69425" lon="6.194">
        <ele>2004.5999755859</ele>
        <time>2013-01-25T10:43:41.000Z</time>
      </trkpt>
      <trkpt lat="45.69428" lon="6.194">
        <ele>2004.5999755859</ele>
        <time>2013-01-25T10:43:49.000Z</time>
      </trkpt>
      <trkpt lat="45.69432" lon="6.19404">
        <ele>2006.4000244141</ele>
        <time>2013-01-25T10:43:54.000Z</time>
      </trkpt>
      <trkpt lat="45.69434" lon="6.19406">
        <ele>2007.5999755859</ele>
        <time>2013-01-25T10:43:59.000Z</time>
      </trkpt>
      <trkpt lat="45.69438" lon="6.19407">
        <ele>2008.5999755859</ele>
        <time>2013-01-25T10:44:08.000Z</time>
      </trkpt>
      <trkpt lat="45.69442" lon="6.19411">
        <ele>2009.4000244141</ele>
        <time>2013-01-25T10:44:17.000Z</time>
      </trkpt>
      <trkpt lat="45.69446" lon="6.19419">
        <ele>2012.4000244141</ele>
        <time>2013-01-25T10:44:29.000Z</time>
      </trkpt>
      <trkpt lat="45.69443" lon="6.19419">
        <ele>2013.8000488281</ele>
        <time>2013-01-25T10:44:35.000Z</time>
      </trkpt>
      <trkpt lat="45.69438" lon="6.19419">
        <ele>2015.1999511719</ele>
        <time>2013-01-25T10:44:45.000Z</time>
      </trkpt>
      <trkpt lat="45.69435" lon="6.19419">
        <ele>2015.4000244141</ele>
        <time>2013-01-25T10:44:51.000Z</time>
      </trkpt>
      <trkpt lat="45.69431" lon="6.1942">
        <ele>2015.4000244141</ele>
        <time>2013-01-25T10:44:58.000Z</time>
      </trkpt>
      <trkpt lat="45.69423" lon="6.1942">
        <ele>2017.8000488281</ele>
        <time>2013-01-25T10:45:10.000Z</time>
      </trkpt>
      <trkpt lat="45.69421" lon="6.19418">
        <ele>2018.5999755859</ele>
        <time>2013-01-25T10:45:25.000Z</time>
      </trkpt>
      <trkpt lat="45.69425" lon="6.19422">
        <ele>2020.4000244141</ele>
        <time>2013-01-25T10:45:39.000Z</time>
      </trkpt>
      <trkpt lat="45.6943" lon="6.19428">
        <ele>2022</ele>
        <time>2013-01-25T10:45:46.000Z</time>
      </trkpt>
      <trkpt lat="45.69432" lon="6.19429">
        <ele>2022.5999755859</ele>
        <time>2013-01-25T10:45:52.000Z</time>
      </trkpt>
      <trkpt lat="45.69434" lon="6.19436">
        <ele>2026</ele>
        <time>2013-01-25T10:46:08.000Z</time>
      </trkpt>
      <trkpt lat="45.69428" lon="6.19437">
        <ele>2026</ele>
        <time>2013-01-25T10:46:15.000Z</time>
      </trkpt>
      <trkpt lat="45.69423" lon="6.19437">
        <ele>2027.4000244141</ele>
        <time>2013-01-25T10:46:23.000Z</time>
      </trkpt>
      <trkpt lat="45.6942" lon="6.19437">
        <ele>2028.8000488281</ele>
        <time>2013-01-25T10:46:26.000Z</time>
      </trkpt>
      <trkpt lat="45.69414" lon="6.19439">
        <ele>2031</ele>
        <time>2013-01-25T10:46:35.000Z</time>
      </trkpt>
      <trkpt lat="45.69411" lon="6.19439">
        <ele>2032.4000244141</ele>
        <time>2013-01-25T10:46:40.000Z</time>
      </trkpt>
      <trkpt lat="45.69406" lon="6.19442">
        <ele>2033.8000488281</ele>
        <time>2013-01-25T10:46:47.000Z</time>
      </trkpt>
      <trkpt lat="45.69403" lon="6.19444">
        <ele>2033.5999755859</ele>
        <time>2013-01-25T10:46:53.000Z</time>
      </trkpt>
      <trkpt lat="45.694" lon="6.19446">
        <ele>2034</ele>
        <time>2013-01-25T10:46:59.000Z</time>
      </trkpt>
      <trkpt lat="45.69404" lon="6.19444">
        <ele>2038.1999511719</ele>
        <time>2013-01-25T10:47:08.000Z</time>
      </trkpt>
      <trkpt lat="45.69412" lon="6.19449">
        <ele>2039.4000244141</ele>
        <time>2013-01-25T10:47:22.000Z</time>
      </trkpt>
      <trkpt lat="45.69414" lon="6.19453">
        <ele>2037.8000488281</ele>
        <time>2013-01-25T10:47:25.000Z</time>
      </trkpt>
      <trkpt lat="45.69418" lon="6.19458">
        <ele>2037.8000488281</ele>
        <time>2013-01-25T10:47:30.000Z</time>
      </trkpt>
      <trkpt lat="45.6942" lon="6.1946">
        <ele>2040.5999755859</ele>
        <time>2013-01-25T10:47:35.000Z</time>
      </trkpt>
      <trkpt lat="45.69421" lon="6.1946">
        <ele>2040.5999755859</ele>
        <time>2013-01-25T10:47:36.000Z</time>
      </trkpt>
      <trkpt lat="45.69421" lon="6.19461">
        <ele>2041.4000244141</ele>
        <time>2013-01-25T10:47:42.000Z</time>
      </trkpt>
      <trkpt lat="45.6942" lon="6.19461">
        <ele>2041.4000244141</ele>
        <time>2013-01-25T10:47:45.000Z</time>
      </trkpt>
      <trkpt lat="45.69413" lon="6.19463">
        <ele>2042.5999755859</ele>
        <time>2013-01-25T10:47:54.000Z</time>
      </trkpt>
      <trkpt lat="45.69407" lon="6.19466">
        <ele>2045</ele>
        <time>2013-01-25T10:48:02.000Z</time>
      </trkpt>
      <trkpt lat="45.69403" lon="6.19468">
        <ele>2046.5999755859</ele>
        <time>2013-01-25T10:48:08.000Z</time>
      </trkpt>
      <trkpt lat="45.694" lon="6.19469">
        <ele>2048</ele>
        <time>2013-01-25T10:48:12.000Z</time>
      </trkpt>
      <trkpt lat="45.69396" lon="6.19472">
        <ele>2049.6000976562</ele>
        <time>2013-01-25T10:48:19.000Z</time>
      </trkpt>
      <trkpt lat="45.69395" lon="6.19473">
        <ele>2049.8000488281</ele>
        <time>2013-01-25T10:48:20.000Z</time>
      </trkpt>
      <trkpt lat="45.6939" lon="6.19477">
        <ele>2050.6000976562</ele>
        <time>2013-01-25T10:48:28.000Z</time>
      </trkpt>
      <trkpt lat="45.69387" lon="6.19479">
        <ele>2052.8000488281</ele>
        <time>2013-01-25T10:48:33.000Z</time>
      </trkpt>
      <trkpt lat="45.69383" lon="6.19481">
        <ele>2052.1999511719</ele>
        <time>2013-01-25T10:48:39.000Z</time>
      </trkpt>
      <trkpt lat="45.69389" lon="6.19481">
        <ele>2053.8000488281</ele>
        <time>2013-01-25T10:48:53.000Z</time>
      </trkpt>
      <trkpt lat="45.69394" lon="6.19485">
        <ele>2056</ele>
        <time>2013-01-25T10:49:00.000Z</time>
      </trkpt>
      <trkpt lat="45.69398" lon="6.19491">
        <ele>2057.6000976562</ele>
        <time>2013-01-25T10:49:06.000Z</time>
      </trkpt>
      <trkpt lat="45.69402" lon="6.19495">
        <ele>2059.6000976562</ele>
        <time>2013-01-25T10:49:13.000Z</time>
      </trkpt>
      <trkpt lat="45.69402" lon="6.19498">
        <ele>2060.3999023438</ele>
        <time>2013-01-25T10:49:21.000Z</time>
      </trkpt>
      <trkpt lat="45.69398" lon="6.195">
        <ele>2061.1999511719</ele>
        <time>2013-01-25T10:49:27.000Z</time>
      </trkpt>
      <trkpt lat="45.69393" lon="6.19504">
        <ele>2061.1999511719</ele>
        <time>2013-01-25T10:49:36.000Z</time>
      </trkpt>
      <trkpt lat="45.69391" lon="6.19506">
        <ele>2064.1999511719</ele>
        <time>2013-01-25T10:49:42.000Z</time>
      </trkpt>
      <trkpt lat="45.69397" lon="6.19507">
        <ele>2065.8000488281</ele>
        <time>2013-01-25T10:49:51.000Z</time>
      </trkpt>
      <trkpt lat="45.694" lon="6.19513">
        <ele>2068.8000488281</ele>
        <time>2013-01-25T10:49:59.000Z</time>
      </trkpt>
      <trkpt lat="45.69398" lon="6.19514">
        <ele>2067.8000488281</ele>
        <time>2013-01-25T10:50:03.000Z</time>
      </trkpt>
      <trkpt lat="45.6939" lon="6.19516">
        <ele>2067.3999023438</ele>
        <time>2013-01-25T10:50:11.000Z</time>
      </trkpt>
      <trkpt lat="45.69385" lon="6.19518">
        <ele>2068.6000976562</ele>
        <time>2013-01-25T10:50:19.000Z</time>
      </trkpt>
      <trkpt lat="45.69378" lon="6.19518">
        <ele>2070</ele>
        <time>2013-01-25T10:50:28.000Z</time>
      </trkpt>
      <trkpt lat="45.69376" lon="6.19519">
        <ele>2071.8000488281</ele>
        <time>2013-01-25T10:50:31.000Z</time>
      </trkpt>
      <trkpt lat="45.6937" lon="6.19523">
        <ele>2073.1999511719</ele>
        <time>2013-01-25T10:50:39.000Z</time>
      </trkpt>
      <trkpt lat="45.69364" lon="6.19526">
        <ele>2074.6000976562</ele>
        <time>2013-01-25T10:50:47.000Z</time>
      </trkpt>
      <trkpt lat="45.6936" lon="6.19524">
        <ele>2076.8000488281</ele>
        <time>2013-01-25T10:50:54.000Z</time>
      </trkpt>
      <trkpt lat="45.69355" lon="6.19524">
        <ele>2075.3999023438</ele>
        <time>2013-01-25T10:51:03.000Z</time>
      </trkpt>
      <trkpt lat="45.69356" lon="6.19531">
        <ele>2078.1999511719</ele>
        <time>2013-01-25T10:51:16.000Z</time>
      </trkpt>
      <trkpt lat="45.69357" lon="6.19533">
        <ele>2079.1999511719</ele>
        <time>2013-01-25T10:51:18.000Z</time>
      </trkpt>
      <trkpt lat="45.69357" lon="6.19535">
        <ele>2078.8000488281</ele>
        <time>2013-01-25T10:51:28.000Z</time>
      </trkpt>
      <trkpt lat="45.69353" lon="6.19526">
        <ele>2078.8000488281</ele>
        <time>2013-01-25T10:57:28.000Z</time>
      </trkpt>
      <trkpt lat="45.69349" lon="6.19525">
        <ele>2079.6000976562</ele>
        <time>2013-01-25T10:57:34.000Z</time>
      </trkpt>
      <trkpt lat="45.69345" lon="6.19526">
        <ele>2080.3999023438</ele>
        <time>2013-01-25T10:57:40.000Z</time>
      </trkpt>
      <trkpt lat="45.6934" lon="6.19528">
        <ele>2079.8000488281</ele>
        <time>2013-01-25T10:57:52.000Z</time>
      </trkpt>
      <trkpt lat="45.69337" lon="6.19528">
        <ele>2082</ele>
        <time>2013-01-25T10:57:57.000Z</time>
      </trkpt>
      <trkpt lat="45.69334" lon="6.19529">
        <ele>2082.6000976562</ele>
        <time>2013-01-25T10:58:03.000Z</time>
      </trkpt>
      <trkpt lat="45.69331" lon="6.19529">
        <ele>2083.8000488281</ele>
        <time>2013-01-25T10:58:14.000Z</time>
      </trkpt>
      <trkpt lat="45.69329" lon="6.1953">
        <ele>2084.3999023438</ele>
        <time>2013-01-25T10:58:21.000Z</time>
      </trkpt>
      <trkpt lat="45.69326" lon="6.19531">
        <ele>2085</ele>
        <time>2013-01-25T10:58:25.000Z</time>
      </trkpt>
      <trkpt lat="45.69322" lon="6.19529">
        <ele>2086.3999023438</ele>
        <time>2013-01-25T10:58:35.000Z</time>
      </trkpt>
      <trkpt lat="45.69319" lon="6.19529">
        <ele>2087</ele>
        <time>2013-01-25T10:58:42.000Z</time>
      </trkpt>
      <trkpt lat="45.69316" lon="6.19531">
        <ele>2087.3999023438</ele>
        <time>2013-01-25T10:58:51.000Z</time>
      </trkpt>
      <trkpt lat="45.69314" lon="6.19531">
        <ele>2088.6000976562</ele>
        <time>2013-01-25T10:58:59.000Z</time>
      </trkpt>
      <trkpt lat="45.69317" lon="6.19537">
        <ele>2091.6000976562</ele>
        <time>2013-01-25T10:59:58.000Z</time>
      </trkpt>
      <trkpt lat="45.69316" lon="6.19533">
        <ele>2090.6000976562</ele>
        <time>2013-01-25T11:00:10.000Z</time>
      </trkpt>
      <trkpt lat="45.69313" lon="6.19537">
        <ele>2093.6000976562</ele>
        <time>2013-01-25T11:00:47.000Z</time>
      </trkpt>
      <trkpt lat="45.69319" lon="6.19542">
        <ele>2095.8000488281</ele>
        <time>2013-01-25T11:01:12.000Z</time>
      </trkpt>
      <trkpt lat="45.69321" lon="6.19543">
        <ele>2090.1999511719</ele>
        <time>2013-01-25T11:01:18.000Z</time>
      </trkpt>
      <trkpt lat="45.69317" lon="6.19543">
        <ele>2100.1999511719</ele>
        <time>2013-01-25T11:01:58.000Z</time>
      </trkpt>
      <trkpt lat="45.69313" lon="6.19546">
        <ele>2100</ele>
        <time>2013-01-25T11:02:07.000Z</time>
      </trkpt>
      <trkpt lat="45.69308" lon="6.19543">
        <ele>2101.6000976562</ele>
        <time>2013-01-25T11:02:56.000Z</time>
      </trkpt>
      <trkpt lat="45.69302" lon="6.19541">
        <ele>2104.1999511719</ele>
        <time>2013-01-25T11:03:51.000Z</time>
      </trkpt>
      <trkpt lat="45.69304" lon="6.19546">
        <ele>2104.6000976562</ele>
        <time>2013-01-25T11:03:56.000Z</time>
      </trkpt>
      <trkpt lat="45.69304" lon="6.19551">
        <ele>2105.6000976562</ele>
        <time>2013-01-25T11:04:06.000Z</time>
      </trkpt>
      <trkpt lat="45.69306" lon="6.19555">
        <ele>2105.8000488281</ele>
        <time>2013-01-25T11:04:12.000Z</time>
      </trkpt>
      <trkpt lat="45.69309" lon="6.19557">
        <ele>2106.3999023438</ele>
        <time>2013-01-25T11:04:19.000Z</time>
      </trkpt>
      <trkpt lat="45.69304" lon="6.19555">
        <ele>2107.8000488281</ele>
        <time>2013-01-25T11:04:50.000Z</time>
      </trkpt>
      <trkpt lat="45.69301" lon="6.19554">
        <ele>2109.8000488281</ele>
        <time>2013-01-25T11:04:57.000Z</time>
      </trkpt>
      <trkpt lat="45.69297" lon="6.19554">
        <ele>2110.6000976562</ele>
        <time>2013-01-25T11:05:03.000Z</time>
      </trkpt>
      <trkpt lat="45.69294" lon="6.19552">
        <ele>2112.3999023438</ele>
        <time>2013-01-25T11:05:09.000Z</time>
      </trkpt>
      <trkpt lat="45.6929" lon="6.19552">
        <ele>2113.6000976562</ele>
        <time>2013-01-25T11:05:18.000Z</time>
      </trkpt>
      <trkpt lat="45.69286" lon="6.19552">
        <ele>2114</ele>
        <time>2013-01-25T11:05:28.000Z</time>
      </trkpt>
      <trkpt lat="45.69284" lon="6.19553">
        <ele>2114.8000488281</ele>
        <time>2013-01-25T11:05:36.000Z</time>
      </trkpt>
      <trkpt lat="45.6928" lon="6.19554">
        <ele>2117</ele>
        <time>2013-01-25T11:05:44.000Z</time>
      </trkpt>
      <trkpt lat="45.69278" lon="6.19554">
        <ele>2118.1999511719</ele>
        <time>2013-01-25T11:05:49.000Z</time>
      </trkpt>
      <trkpt lat="45.69273" lon="6.19556">
        <ele>2117.8000488281</ele>
        <time>2013-01-25T11:06:04.000Z</time>
      </trkpt>
      <trkpt lat="45.69268" lon="6.19557">
        <ele>2117.6000976562</ele>
        <time>2013-01-25T11:06:13.000Z</time>
      </trkpt>
      <trkpt lat="45.69266" lon="6.19558">
        <ele>2118</ele>
        <time>2013-01-25T11:06:18.000Z</time>
      </trkpt>
      <trkpt lat="45.69262" lon="6.19558">
        <ele>2118.3999023438</ele>
        <time>2013-01-25T11:07:01.000Z</time>
      </trkpt>
      <trkpt lat="45.69258" lon="6.19559">
        <ele>2118.8000488281</ele>
        <time>2013-01-25T11:07:06.000Z</time>
      </trkpt>
      <trkpt lat="45.69253" lon="6.19559">
        <ele>2118.8000488281</ele>
        <time>2013-01-25T11:07:14.000Z</time>
      </trkpt>
      <trkpt lat="45.69249" lon="6.19561">
        <ele>2120</ele>
        <time>2013-01-25T11:07:20.000Z</time>
      </trkpt>
      <trkpt lat="45.69245" lon="6.19565">
        <ele>2120</ele>
        <time>2013-01-25T11:07:29.000Z</time>
      </trkpt>
      <trkpt lat="45.69243" lon="6.19566">
        <ele>2120.1999511719</ele>
        <time>2013-01-25T11:07:35.000Z</time>
      </trkpt>
      <trkpt lat="45.69239" lon="6.1957">
        <ele>2120.6000976562</ele>
        <time>2013-01-25T11:07:44.000Z</time>
      </trkpt>
      <trkpt lat="45.69234" lon="6.19573">
        <ele>2121.6000976562</ele>
        <time>2013-01-25T11:07:52.000Z</time>
      </trkpt>
      <trkpt lat="45.69228" lon="6.19579">
        <ele>2122.1999511719</ele>
        <time>2013-01-25T11:08:01.000Z</time>
      </trkpt>
      <trkpt lat="45.69225" lon="6.19583">
        <ele>2122.1999511719</ele>
        <time>2013-01-25T11:08:09.000Z</time>
      </trkpt>
      <trkpt lat="45.69224" lon="6.19589">
        <ele>2123</ele>
        <time>2013-01-25T11:08:18.000Z</time>
      </trkpt>
      <trkpt lat="45.69225" lon="6.19587">
        <ele>2121.3999023438</ele>
        <time>2013-01-25T11:13:02.000Z</time>
      </trkpt>
      <trkpt lat="45.69226" lon="6.19591">
        <ele>2122.3999023438</ele>
        <time>2013-01-25T11:13:12.000Z</time>
      </trkpt>
      <trkpt lat="45.69227" lon="6.19591">
        <ele>2124.1999511719</ele>
        <time>2013-01-25T11:13:22.000Z</time>
      </trkpt>
      <trkpt lat="45.69229" lon="6.19591">
        <ele>2123.8000488281</ele>
        <time>2013-01-25T11:13:34.000Z</time>
      </trkpt>
      <trkpt lat="45.6923" lon="6.19595">
        <ele>2126.8000488281</ele>
        <time>2013-01-25T11:13:45.000Z</time>
      </trkpt>
      <trkpt lat="45.6923" lon="6.19599">
        <ele>2128</ele>
        <time>2013-01-25T11:14:26.000Z</time>
      </trkpt>
      <trkpt lat="45.69229" lon="6.19598">
        <ele>2129.1999511719</ele>
        <time>2013-01-25T11:14:39.000Z</time>
      </trkpt>
      <trkpt lat="45.69229" lon="6.19595">
        <ele>2127</ele>
        <time>2013-01-25T11:15:12.000Z</time>
      </trkpt>
      <trkpt lat="45.69229" lon="6.19595">
        <ele>2129.3999023438</ele>
        <time>2013-01-25T11:15:22.000Z</time>
      </trkpt>
      <trkpt lat="45.69231" lon="6.19596">
        <ele>2128.8000488281</ele>
        <time>2013-01-25T11:15:52.000Z</time>
      </trkpt>
      <trkpt lat="45.69231" lon="6.196">
        <ele>2133.6000976562</ele>
        <time>2013-01-25T11:16:44.000Z</time>
      </trkpt>
      <trkpt lat="45.69231" lon="6.196">
        <ele>2135</ele>
        <time>2013-01-25T11:16:48.000Z</time>
      </trkpt>
      <trkpt lat="45.69231" lon="6.19599">
        <ele>2133.6000976562</ele>
        <time>2013-01-25T11:17:01.000Z</time>
      </trkpt>
      <trkpt lat="45.69234" lon="6.19603">
        <ele>2136</ele>
        <time>2013-01-25T11:17:30.000Z</time>
      </trkpt>
      <trkpt lat="45.69246" lon="6.1961">
        <ele>2144</ele>
        <time>2013-01-25T11:19:20.000Z</time>
      </trkpt>
      <trkpt lat="45.69248" lon="6.1961">
        <ele>2148.3999023438</ele>
        <time>2013-01-25T11:20:04.000Z</time>
      </trkpt>
      <trkpt lat="45.69245" lon="6.19601">
        <ele>2148.8000488281</ele>
        <time>2013-01-25T11:20:14.000Z</time>
      </trkpt>
      <trkpt lat="45.6925" lon="6.19612">
        <ele>2148</ele>
        <time>2013-01-25T11:20:46.000Z</time>
      </trkpt>
      <trkpt lat="45.69252" lon="6.19611">
        <ele>2152.3999023438</ele>
        <time>2013-01-25T11:21:15.000Z</time>
      </trkpt>
      <trkpt lat="45.69253" lon="6.19612">
        <ele>2152.8000488281</ele>
        <time>2013-01-25T11:21:36.000Z</time>
      </trkpt>
      <trkpt lat="45.69256" lon="6.19611">
        <ele>2154.6000976562</ele>
        <time>2013-01-25T11:22:07.000Z</time>
      </trkpt>
      <trkpt lat="45.69257" lon="6.19611">
        <ele>2155.3999023438</ele>
        <time>2013-01-25T11:22:18.000Z</time>
      </trkpt>
      <trkpt lat="45.69261" lon="6.19619">
        <ele>2158.8000488281</ele>
        <time>2013-01-25T11:23:04.000Z</time>
      </trkpt>
      <trkpt lat="45.69266" lon="6.19618">
        <ele>2161</ele>
        <time>2013-01-25T11:23:24.000Z</time>
      </trkpt>
      <trkpt lat="45.69269" lon="6.19619">
        <ele>2160.6000976562</ele>
        <time>2013-01-25T11:23:34.000Z</time>
      </trkpt>
      <trkpt lat="45.69273" lon="6.1962">
        <ele>2161.1999511719</ele>
        <time>2013-01-25T11:24:19.000Z</time>
      </trkpt>
      <trkpt lat="45.69268" lon="6.19619">
        <ele>2159.8000488281</ele>
        <time>2013-01-25T11:26:34.000Z</time>
      </trkpt>
      <trkpt lat="45.69271" lon="6.19616">
        <ele>2159.8000488281</ele>
        <time>2013-01-25T11:27:43.000Z</time>
      </trkpt>
      <trkpt lat="45.69269" lon="6.19619">
        <ele>2162.8000488281</ele>
        <time>2013-01-25T11:29:49.000Z</time>
      </trkpt>
      <trkpt lat="45.69267" lon="6.19618">
        <ele>2162.8000488281</ele>
        <time>2013-01-25T11:29:55.000Z</time>
      </trkpt>
      <trkpt lat="45.69262" lon="6.19619">
        <ele>2160.1999511719</ele>
        <time>2013-01-25T11:30:04.000Z</time>
      </trkpt>
      <trkpt lat="45.69251" lon="6.19611">
        <ele>2150</ele>
        <time>2013-01-25T11:30:58.000Z</time>
      </trkpt>
      <trkpt lat="45.69245" lon="6.19606">
        <ele>2145</ele>
        <time>2013-01-25T11:32:20.000Z</time>
      </trkpt>
      <trkpt lat="45.69239" lon="6.19603">
        <ele>2138.6000976562</ele>
        <time>2013-01-25T11:32:52.000Z</time>
      </trkpt>
      <trkpt lat="45.69236" lon="6.19599">
        <ele>2136.3999023438</ele>
        <time>2013-01-25T11:33:06.000Z</time>
      </trkpt>
      <trkpt lat="45.69232" lon="6.19589">
        <ele>2128.6000976562</ele>
        <time>2013-01-25T11:34:01.000Z</time>
      </trkpt>
      <trkpt lat="45.69228" lon="6.19585">
        <ele>2122.1999511719</ele>
        <time>2013-01-25T11:34:18.000Z</time>
      </trkpt>
      <trkpt lat="45.69228" lon="6.19581">
        <ele>2119.3999023438</ele>
        <time>2013-01-25T11:34:27.000Z</time>
      </trkpt>
      <trkpt lat="45.69228" lon="6.1958">
        <ele>2119</ele>
        <time>2013-01-25T11:34:36.000Z</time>
      </trkpt>
      <trkpt lat="45.69231" lon="6.19583">
        <ele>2119.3999023438</ele>
        <time>2013-01-25T11:38:13.000Z</time>
      </trkpt>
      <trkpt lat="45.69234" lon="6.19586">
        <ele>2118.3999023438</ele>
        <time>2013-01-25T11:38:19.000Z</time>
      </trkpt>
      <trkpt lat="45.6923" lon="6.19581">
        <ele>2121</ele>
        <time>2013-01-25T11:38:35.000Z</time>
      </trkpt>
      <trkpt lat="45.69229" lon="6.19582">
        <ele>2118.8000488281</ele>
        <time>2013-01-25T11:38:39.000Z</time>
      </trkpt>
      <trkpt lat="45.69226" lon="6.19584">
        <ele>2119.3999023438</ele>
        <time>2013-01-25T11:39:16.000Z</time>
      </trkpt>
      <trkpt lat="45.69227" lon="6.19579">
        <ele>2121.1999511719</ele>
        <time>2013-01-25T11:39:34.000Z</time>
      </trkpt>
      <trkpt lat="45.69228" lon="6.19579">
        <ele>2117.1999511719</ele>
        <time>2013-01-25T11:39:39.000Z</time>
      </trkpt>
      <trkpt lat="45.69228" lon="6.1958">
        <ele>2119.1999511719</ele>
        <time>2013-01-25T11:39:43.000Z</time>
      </trkpt>
      <trkpt lat="45.69226" lon="6.19575">
        <ele>2117.6000976562</ele>
        <time>2013-01-25T11:39:51.000Z</time>
      </trkpt>
      <trkpt lat="45.69227" lon="6.19576">
        <ele>2118.8000488281</ele>
        <time>2013-01-25T11:39:53.000Z</time>
      </trkpt>
      <trkpt lat="45.69227" lon="6.19577">
        <ele>2120.1999511719</ele>
        <time>2013-01-25T11:39:56.000Z</time>
      </trkpt>
      <trkpt lat="45.69232" lon="6.19581">
        <ele>2121.1999511719</ele>
        <time>2013-01-25T11:41:37.000Z</time>
      </trkpt>
      <trkpt lat="45.69234" lon="6.19579">
        <ele>2121</ele>
        <time>2013-01-25T11:42:32.000Z</time>
      </trkpt>
      <trkpt lat="45.6924" lon="6.19574">
        <ele>2120.8000488281</ele>
        <time>2013-01-25T11:42:41.000Z</time>
      </trkpt>
      <trkpt lat="45.6925" lon="6.19567">
        <ele>2120</ele>
        <time>2013-01-25T11:42:46.000Z</time>
      </trkpt>
      <trkpt lat="45.69258" lon="6.19563">
        <ele>2118.3999023438</ele>
        <time>2013-01-25T11:42:51.000Z</time>
      </trkpt>
      <trkpt lat="45.69263" lon="6.1956">
        <ele>2118.8000488281</ele>
        <time>2013-01-25T11:42:56.000Z</time>
      </trkpt>
      <trkpt lat="45.6927" lon="6.19558">
        <ele>2118.6000976562</ele>
        <time>2013-01-25T11:43:02.000Z</time>
      </trkpt>
      <trkpt lat="45.69277" lon="6.19557">
        <ele>2117.8000488281</ele>
        <time>2013-01-25T11:43:07.000Z</time>
      </trkpt>
      <trkpt lat="45.69285" lon="6.19554">
        <ele>2116.1999511719</ele>
        <time>2013-01-25T11:43:13.000Z</time>
      </trkpt>
      <trkpt lat="45.69295" lon="6.19553">
        <ele>2113</ele>
        <time>2013-01-25T11:43:18.000Z</time>
      </trkpt>
      <trkpt lat="45.69303" lon="6.19554">
        <ele>2111.1999511719</ele>
        <time>2013-01-25T11:43:22.000Z</time>
      </trkpt>
      <trkpt lat="45.69304" lon="6.19554">
        <ele>2111</ele>
        <time>2013-01-25T11:43:30.000Z</time>
      </trkpt>
      <trkpt lat="45.69305" lon="6.19553">
        <ele>2109.8000488281</ele>
        <time>2013-01-25T11:43:39.000Z</time>
      </trkpt>
      <trkpt lat="45.69309" lon="6.19551">
        <ele>2108</ele>
        <time>2013-01-25T11:43:43.000Z</time>
      </trkpt>
      <trkpt lat="45.69316" lon="6.19547">
        <ele>2105.3999023438</ele>
        <time>2013-01-25T11:43:47.000Z</time>
      </trkpt>
      <trkpt lat="45.69323" lon="6.19544">
        <ele>2099.6000976562</ele>
        <time>2013-01-25T11:43:52.000Z</time>
      </trkpt>
      <trkpt lat="45.69323" lon="6.19544">
        <ele>2099.3999023438</ele>
        <time>2013-01-25T11:43:53.000Z</time>
      </trkpt>
      <trkpt lat="45.69322" lon="6.19543">
        <ele>2099.3999023438</ele>
        <time>2013-01-25T11:44:04.000Z</time>
      </trkpt>
      <trkpt lat="45.69322" lon="6.19542">
        <ele>2099.6000976562</ele>
        <time>2013-01-25T11:44:09.000Z</time>
      </trkpt>
      <trkpt lat="45.69318" lon="6.19537">
        <ele>2097.6000976562</ele>
        <time>2013-01-25T11:44:13.000Z</time>
      </trkpt>
      <trkpt lat="45.69317" lon="6.19532">
        <ele>2093.6000976562</ele>
        <time>2013-01-25T11:44:18.000Z</time>
      </trkpt>
      <trkpt lat="45.69329" lon="6.19528">
        <ele>2090.1999511719</ele>
        <time>2013-01-25T11:44:22.000Z</time>
      </trkpt>
      <trkpt lat="45.69358" lon="6.19528">
        <ele>2083.1999511719</ele>
        <time>2013-01-25T11:44:28.000Z</time>
      </trkpt>
      <trkpt lat="45.69361" lon="6.19529">
        <ele>2081.8000488281</ele>
        <time>2013-01-25T11:44:30.000Z</time>
      </trkpt>
      <trkpt lat="45.69366" lon="6.1953">
        <ele>2078.6000976562</ele>
        <time>2013-01-25T11:44:34.000Z</time>
      </trkpt>
      <trkpt lat="45.69364" lon="6.19533">
        <ele>2079</ele>
        <time>2013-01-25T11:44:38.000Z</time>
      </trkpt>
      <trkpt lat="45.69362" lon="6.19536">
        <ele>2079.1999511719</ele>
        <time>2013-01-25T11:44:46.000Z</time>
      </trkpt>
      <trkpt lat="45.69362" lon="6.19545">
        <ele>2075</ele>
        <time>2013-01-25T11:44:51.000Z</time>
      </trkpt>
      <trkpt lat="45.69361" lon="6.19546">
        <ele>2074</ele>
        <time>2013-01-25T11:44:54.000Z</time>
      </trkpt>
      <trkpt lat="45.69362" lon="6.19544">
        <ele>2070</ele>
        <time>2013-01-25T11:44:59.000Z</time>
      </trkpt>
      <trkpt lat="45.69362" lon="6.19544">
        <ele>2070</ele>
        <time>2013-01-25T11:45:00.000Z</time>
      </trkpt>
      <trkpt lat="45.69365" lon="6.19543">
        <ele>2069.3999023438</ele>
        <time>2013-01-25T11:45:06.000Z</time>
      </trkpt>
      <trkpt lat="45.69371" lon="6.19541">
        <ele>2066.3999023438</ele>
        <time>2013-01-25T11:45:11.000Z</time>
      </trkpt>
      <trkpt lat="45.69373" lon="6.19542">
        <ele>2064.1999511719</ele>
        <time>2013-01-25T11:45:14.000Z</time>
      </trkpt>
      <trkpt lat="45.69375" lon="6.19548">
        <ele>2062.6000976562</ele>
        <time>2013-01-25T11:45:18.000Z</time>
      </trkpt>
      <trkpt lat="45.69377" lon="6.19554">
        <ele>2060</ele>
        <time>2013-01-25T11:45:21.000Z</time>
      </trkpt>
      <trkpt lat="45.69379" lon="6.19566">
        <ele>2053.3999023438</ele>
        <time>2013-01-25T11:45:25.000Z</time>
      </trkpt>
      <trkpt lat="45.69379" lon="6.19567">
        <ele>2052</ele>
        <time>2013-01-25T11:45:26.000Z</time>
      </trkpt>
      <trkpt lat="45.69381" lon="6.19582">
        <ele>2044.1999511719</ele>
        <time>2013-01-25T11:45:30.000Z</time>
      </trkpt>
      <trkpt lat="45.69378" lon="6.19583">
        <ele>2035.1999511719</ele>
        <time>2013-01-25T11:45:34.000Z</time>
      </trkpt>
      <trkpt lat="45.69375" lon="6.19586">
        <ele>2035.1999511719</ele>
        <time>2013-01-25T11:45:41.000Z</time>
      </trkpt>
      <trkpt lat="45.69373" lon="6.19592">
        <ele>2038.4000244141</ele>
        <time>2013-01-25T11:45:47.000Z</time>
      </trkpt>
      <trkpt lat="45.69373" lon="6.19589">
        <ele>2035.8000488281</ele>
        <time>2013-01-25T11:45:51.000Z</time>
      </trkpt>
      <trkpt lat="45.69376" lon="6.19584">
        <ele>2038.1999511719</ele>
        <time>2013-01-25T11:45:55.000Z</time>
      </trkpt>
      <trkpt lat="45.69385" lon="6.19578">
        <ele>2040.4000244141</ele>
        <time>2013-01-25T11:45:59.000Z</time>
      </trkpt>
      <trkpt lat="45.69379" lon="6.19583">
        <ele>2040.1999511719</ele>
        <time>2013-01-25T11:46:03.000Z</time>
      </trkpt>
      <trkpt lat="45.69377" lon="6.19585">
        <ele>2039</ele>
        <time>2013-01-25T11:46:07.000Z</time>
      </trkpt>
      <trkpt lat="45.69387" lon="6.19587">
        <ele>2036</ele>
        <time>2013-01-25T11:46:13.000Z</time>
      </trkpt>
      <trkpt lat="45.69382" lon="6.19595">
        <ele>2035.5999755859</ele>
        <time>2013-01-25T11:46:18.000Z</time>
      </trkpt>
      <trkpt lat="45.69381" lon="6.19595">
        <ele>2032.1999511719</ele>
        <time>2013-01-25T11:46:22.000Z</time>
      </trkpt>
      <trkpt lat="45.69381" lon="6.19596">
        <ele>2032.4000244141</ele>
        <time>2013-01-25T11:46:23.000Z</time>
      </trkpt>
      <trkpt lat="45.69383" lon="6.19599">
        <ele>2030.5999755859</ele>
        <time>2013-01-25T11:46:26.000Z</time>
      </trkpt>
      <trkpt lat="45.69381" lon="6.19601">
        <ele>2029.8000488281</ele>
        <time>2013-01-25T11:46:32.000Z</time>
      </trkpt>
      <trkpt lat="45.69385" lon="6.19601">
        <ele>2032.5999755859</ele>
        <time>2013-01-25T11:46:37.000Z</time>
      </trkpt>
      <trkpt lat="45.69383" lon="6.19597">
        <ele>2030.5999755859</ele>
        <time>2013-01-25T11:46:41.000Z</time>
      </trkpt>
      <trkpt lat="45.69381" lon="6.19595">
        <ele>2028.4000244141</ele>
        <time>2013-01-25T11:46:44.000Z</time>
      </trkpt>
      <trkpt lat="45.69378" lon="6.19594">
        <ele>2031</ele>
        <time>2013-01-25T11:46:48.000Z</time>
      </trkpt>
      <trkpt lat="45.69371" lon="6.19594">
        <ele>2030.8000488281</ele>
        <time>2013-01-25T11:46:58.000Z</time>
      </trkpt>
      <trkpt lat="45.69375" lon="6.19586">
        <ele>2031</ele>
        <time>2013-01-25T11:47:23.000Z</time>
      </trkpt>
      <trkpt lat="45.69378" lon="6.19586">
        <ele>2030.8000488281</ele>
        <time>2013-01-25T11:47:33.000Z</time>
      </trkpt>
      <trkpt lat="45.69381" lon="6.19583">
        <ele>2031.1999511719</ele>
        <time>2013-01-25T11:48:06.000Z</time>
      </trkpt>
      <trkpt lat="45.69377" lon="6.19588">
        <ele>2030</ele>
        <time>2013-01-25T11:48:52.000Z</time>
      </trkpt>
      <trkpt lat="45.69384" lon="6.19588">
        <ele>2027</ele>
        <time>2013-01-25T11:48:56.000Z</time>
      </trkpt>
      <trkpt lat="45.6939" lon="6.19586">
        <ele>2027</ele>
        <time>2013-01-25T11:49:00.000Z</time>
      </trkpt>
      <trkpt lat="45.69393" lon="6.196">
        <ele>2022.5999755859</ele>
        <time>2013-01-25T11:49:04.000Z</time>
      </trkpt>
      <trkpt lat="45.69395" lon="6.1961">
        <ele>2015.4000244141</ele>
        <time>2013-01-25T11:49:08.000Z</time>
      </trkpt>
      <trkpt lat="45.694" lon="6.19613">
        <ele>2014.5999755859</ele>
        <time>2013-01-25T11:49:10.000Z</time>
      </trkpt>
      <trkpt lat="45.69403" lon="6.19619">
        <ele>2013.4000244141</ele>
        <time>2013-01-25T11:49:13.000Z</time>
      </trkpt>
      <trkpt lat="45.69396" lon="6.19629">
        <ele>2012.8000488281</ele>
        <time>2013-01-25T11:49:19.000Z</time>
      </trkpt>
      <trkpt lat="45.69395" lon="6.19636">
        <ele>2010</ele>
        <time>2013-01-25T11:49:23.000Z</time>
      </trkpt>
      <trkpt lat="45.69395" lon="6.19637">
        <ele>2010.1999511719</ele>
        <time>2013-01-25T11:49:29.000Z</time>
      </trkpt>
      <trkpt lat="45.69396" lon="6.19639">
        <ele>2009.8000488281</ele>
        <time>2013-01-25T11:49:31.000Z</time>
      </trkpt>
      <trkpt lat="45.69403" lon="6.19639">
        <ele>2006.1999511719</ele>
        <time>2013-01-25T11:49:35.000Z</time>
      </trkpt>
      <trkpt lat="45.69405" lon="6.19637">
        <ele>2005</ele>
        <time>2013-01-25T11:49:37.000Z</time>
      </trkpt>
      <trkpt lat="45.69412" lon="6.19633">
        <ele>2000.8000488281</ele>
        <time>2013-01-25T11:49:43.000Z</time>
      </trkpt>
      <trkpt lat="45.69418" lon="6.19632">
        <ele>1998.8000488281</ele>
        <time>2013-01-25T11:49:46.000Z</time>
      </trkpt>
      <trkpt lat="45.69422" lon="6.19636">
        <ele>1992.1999511719</ele>
        <time>2013-01-25T11:49:50.000Z</time>
      </trkpt>
      <trkpt lat="45.69431" lon="6.19641">
        <ele>1985.1999511719</ele>
        <time>2013-01-25T11:49:54.000Z</time>
      </trkpt>
      <trkpt lat="45.69431" lon="6.19643">
        <ele>1985.1999511719</ele>
        <time>2013-01-25T11:49:55.000Z</time>
      </trkpt>
      <trkpt lat="45.69438" lon="6.19645">
        <ele>1981</ele>
        <time>2013-01-25T11:49:58.000Z</time>
      </trkpt>
      <trkpt lat="45.6944" lon="6.19655">
        <ele>1972.4000244141</ele>
        <time>2013-01-25T11:50:03.000Z</time>
      </trkpt>
      <trkpt lat="45.69439" lon="6.19658">
        <ele>1966.4000244141</ele>
        <time>2013-01-25T11:50:07.000Z</time>
      </trkpt>
      <trkpt lat="45.69438" lon="6.19658">
        <ele>1963</ele>
        <time>2013-01-25T11:50:11.000Z</time>
      </trkpt>
      <trkpt lat="45.69439" lon="6.19657">
        <ele>1963</ele>
        <time>2013-01-25T11:50:16.000Z</time>
      </trkpt>
      <trkpt lat="45.69447" lon="6.19661">
        <ele>1958.5999755859</ele>
        <time>2013-01-25T11:50:21.000Z</time>
      </trkpt>
      <trkpt lat="45.69458" lon="6.19659">
        <ele>1949.1999511719</ele>
        <time>2013-01-25T11:50:25.000Z</time>
      </trkpt>
      <trkpt lat="45.69467" lon="6.19662">
        <ele>1947.4000244141</ele>
        <time>2013-01-25T11:50:29.000Z</time>
      </trkpt>
      <trkpt lat="45.69467" lon="6.19662">
        <ele>1943.4000244141</ele>
        <time>2013-01-25T11:50:31.000Z</time>
      </trkpt>
      <trkpt lat="45.69472" lon="6.19664">
        <ele>1940.5999755859</ele>
        <time>2013-01-25T11:50:34.000Z</time>
      </trkpt>
      <trkpt lat="45.6948" lon="6.19672">
        <ele>1933.5999755859</ele>
        <time>2013-01-25T11:50:39.000Z</time>
      </trkpt>
      <trkpt lat="45.69484" lon="6.19678">
        <ele>1926.1999511719</ele>
        <time>2013-01-25T11:50:43.000Z</time>
      </trkpt>
      <trkpt lat="45.69475" lon="6.19689">
        <ele>1923.5999755859</ele>
        <time>2013-01-25T11:50:48.000Z</time>
      </trkpt>
      <trkpt lat="45.69474" lon="6.19691">
        <ele>1924.5999755859</ele>
        <time>2013-01-25T11:50:55.000Z</time>
      </trkpt>
      <trkpt lat="45.6947" lon="6.19701">
        <ele>1925.8000488281</ele>
        <time>2013-01-25T11:51:25.000Z</time>
      </trkpt>
      <trkpt lat="45.6947" lon="6.19698">
        <ele>1925.8000488281</ele>
        <time>2013-01-25T11:51:32.000Z</time>
      </trkpt>
      <trkpt lat="45.69469" lon="6.19697">
        <ele>1925.8000488281</ele>
        <time>2013-01-25T11:51:33.000Z</time>
      </trkpt>
      <trkpt lat="45.69468" lon="6.197">
        <ele>1926</ele>
        <time>2013-01-25T11:51:40.000Z</time>
      </trkpt>
      <trkpt lat="45.69483" lon="6.19707">
        <ele>1921.4000244141</ele>
        <time>2013-01-25T11:51:46.000Z</time>
      </trkpt>
      <trkpt lat="45.69487" lon="6.19711">
        <ele>1920.5999755859</ele>
        <time>2013-01-25T11:51:48.000Z</time>
      </trkpt>
      <trkpt lat="45.69492" lon="6.19712">
        <ele>1920</ele>
        <time>2013-01-25T11:51:50.000Z</time>
      </trkpt>
      <trkpt lat="45.69493" lon="6.19714">
        <ele>1920</ele>
        <time>2013-01-25T11:51:52.000Z</time>
      </trkpt>
      <trkpt lat="45.69496" lon="6.19717">
        <ele>1920.1999511719</ele>
        <time>2013-01-25T11:51:55.000Z</time>
      </trkpt>
      <trkpt lat="45.695" lon="6.19714">
        <ele>1905.8000488281</ele>
        <time>2013-01-25T11:52:00.000Z</time>
      </trkpt>
      <trkpt lat="45.695" lon="6.19714">
        <ele>1904.8000488281</ele>
        <time>2013-01-25T11:52:01.000Z</time>
      </trkpt>
      <trkpt lat="45.69507" lon="6.19716">
        <ele>1901.8000488281</ele>
        <time>2013-01-25T11:52:07.000Z</time>
      </trkpt>
      <trkpt lat="45.69507" lon="6.19716">
        <ele>1901</ele>
        <time>2013-01-25T11:52:08.000Z</time>
      </trkpt>
      <trkpt lat="45.69516" lon="6.1972">
        <ele>1897.1999511719</ele>
        <time>2013-01-25T11:52:14.000Z</time>
      </trkpt>
      <trkpt lat="45.69515" lon="6.19724">
        <ele>1893.5999755859</ele>
        <time>2013-01-25T11:52:18.000Z</time>
      </trkpt>
      <trkpt lat="45.69512" lon="6.19731">
        <ele>1887.5999755859</ele>
        <time>2013-01-25T11:52:22.000Z</time>
      </trkpt>
      <trkpt lat="45.69526" lon="6.19715">
        <ele>1888.4000244141</ele>
        <time>2013-01-25T11:53:14.000Z</time>
      </trkpt>
      <trkpt lat="45.69537" lon="6.19712">
        <ele>1890.1999511719</ele>
        <time>2013-01-25T11:53:20.000Z</time>
      </trkpt>
      <trkpt lat="45.69535" lon="6.19712">
        <ele>1882</ele>
        <time>2013-01-25T11:53:24.000Z</time>
      </trkpt>
      <trkpt lat="45.69545" lon="6.19705">
        <ele>1875.4000244141</ele>
        <time>2013-01-25T11:53:29.000Z</time>
      </trkpt>
      <trkpt lat="45.69555" lon="6.19695">
        <ele>1872</ele>
        <time>2013-01-25T11:53:33.000Z</time>
      </trkpt>
      <trkpt lat="45.69556" lon="6.19695">
        <ele>1872.8000488281</ele>
        <time>2013-01-25T11:53:34.000Z</time>
      </trkpt>
      <trkpt lat="45.69562" lon="6.19698">
        <ele>1863.5999755859</ele>
        <time>2013-01-25T11:53:40.000Z</time>
      </trkpt>
      <trkpt lat="45.69565" lon="6.19697">
        <ele>1863.5999755859</ele>
        <time>2013-01-25T11:53:41.000Z</time>
      </trkpt>
      <trkpt lat="45.69577" lon="6.19698">
        <ele>1863.8000488281</ele>
        <time>2013-01-25T11:53:45.000Z</time>
      </trkpt>
      <trkpt lat="45.69585" lon="6.19705">
        <ele>1856</ele>
        <time>2013-01-25T11:53:49.000Z</time>
      </trkpt>
      <trkpt lat="45.69583" lon="6.19708">
        <ele>1848.1999511719</ele>
        <time>2013-01-25T11:53:54.000Z</time>
      </trkpt>
      <trkpt lat="45.69583" lon="6.1971">
        <ele>1847.4000244141</ele>
        <time>2013-01-25T11:53:56.000Z</time>
      </trkpt>
      <trkpt lat="45.69595" lon="6.19709">
        <ele>1839.4000244141</ele>
        <time>2013-01-25T11:54:02.000Z</time>
      </trkpt>
      <trkpt lat="45.69605" lon="6.19708">
        <ele>1835.4000244141</ele>
        <time>2013-01-25T11:54:07.000Z</time>
      </trkpt>
      <trkpt lat="45.69608" lon="6.19706">
        <ele>1835.1999511719</ele>
        <time>2013-01-25T11:54:08.000Z</time>
      </trkpt>
      <trkpt lat="45.69612" lon="6.19707">
        <ele>1834.5999755859</ele>
        <time>2013-01-25T11:54:09.000Z</time>
      </trkpt>
      <trkpt lat="45.69627" lon="6.19705">
        <ele>1821.5999755859</ele>
        <time>2013-01-25T11:54:14.000Z</time>
      </trkpt>
      <trkpt lat="45.6963" lon="6.19702">
        <ele>1820.8000488281</ele>
        <time>2013-01-25T11:54:16.000Z</time>
      </trkpt>
      <trkpt lat="45.69643" lon="6.19704">
        <ele>1814.8000488281</ele>
        <time>2013-01-25T11:54:21.000Z</time>
      </trkpt>
      <trkpt lat="45.69649" lon="6.19723">
        <ele>1806.1999511719</ele>
        <time>2013-01-25T11:54:27.000Z</time>
      </trkpt>
      <trkpt lat="45.69647" lon="6.19726">
        <ele>1804.8000488281</ele>
        <time>2013-01-25T11:54:29.000Z</time>
      </trkpt>
      <trkpt lat="45.69652" lon="6.19752">
        <ele>1802.1999511719</ele>
        <time>2013-01-25T11:55:09.000Z</time>
      </trkpt>
      <trkpt lat="45.69647" lon="6.19748">
        <ele>1803.8000488281</ele>
        <time>2013-01-25T11:55:29.000Z</time>
      </trkpt>
      <trkpt lat="45.69647" lon="6.19751">
        <ele>1804.8000488281</ele>
        <time>2013-01-25T11:55:35.000Z</time>
      </trkpt>
      <trkpt lat="45.69642" lon="6.19756">
        <ele>1805.1999511719</ele>
        <time>2013-01-25T11:56:02.000Z</time>
      </trkpt>
      <trkpt lat="45.69642" lon="6.1976">
        <ele>1805.1999511719</ele>
        <time>2013-01-25T11:56:05.000Z</time>
      </trkpt>
      <trkpt lat="45.69643" lon="6.19763">
        <ele>1805.4000244141</ele>
        <time>2013-01-25T11:56:12.000Z</time>
      </trkpt>
      <trkpt lat="45.69635" lon="6.19758">
        <ele>1808.1999511719</ele>
        <time>2013-01-25T11:56:49.000Z</time>
      </trkpt>
      <trkpt lat="45.69635" lon="6.19759">
        <ele>1810</ele>
        <time>2013-01-25T11:56:50.000Z</time>
      </trkpt>
      <trkpt lat="45.69635" lon="6.19758">
        <ele>1809.5999755859</ele>
        <time>2013-01-25T11:56:52.000Z</time>
      </trkpt>
      <trkpt lat="45.6964" lon="6.19754">
        <ele>1806.5999755859</ele>
        <time>2013-01-25T11:56:54.000Z</time>
      </trkpt>
      <trkpt lat="45.69639" lon="6.19758">
        <ele>1801.5999755859</ele>
        <time>2013-01-25T11:56:59.000Z</time>
      </trkpt>
      <trkpt lat="45.6964" lon="6.19758">
        <ele>1800.5999755859</ele>
        <time>2013-01-25T11:57:00.000Z</time>
      </trkpt>
      <trkpt lat="45.69652" lon="6.19782">
        <ele>1793.5999755859</ele>
        <time>2013-01-25T11:57:06.000Z</time>
      </trkpt>
      <trkpt lat="45.69669" lon="6.19808">
        <ele>1787.5999755859</ele>
        <time>2013-01-25T11:57:13.000Z</time>
      </trkpt>
      <trkpt lat="45.69676" lon="6.19799">
        <ele>1786.5999755859</ele>
        <time>2013-01-25T11:57:15.000Z</time>
      </trkpt>
      <trkpt lat="45.69678" lon="6.19794">
        <ele>1779.8000488281</ele>
        <time>2013-01-25T11:57:17.000Z</time>
      </trkpt>
      <trkpt lat="45.69679" lon="6.19796">
        <ele>1767.4000244141</ele>
        <time>2013-01-25T11:57:21.000Z</time>
      </trkpt>
      <trkpt lat="45.69679" lon="6.19795">
        <ele>1766.4000244141</ele>
        <time>2013-01-25T11:57:23.000Z</time>
      </trkpt>
      <trkpt lat="45.69679" lon="6.19794">
        <ele>1768.8000488281</ele>
        <time>2013-01-25T11:57:26.000Z</time>
      </trkpt>
      <trkpt lat="45.69693" lon="6.19794">
        <ele>1765.4000244141</ele>
        <time>2013-01-25T11:57:32.000Z</time>
      </trkpt>
      <trkpt lat="45.69706" lon="6.19786">
        <ele>1759.4000244141</ele>
        <time>2013-01-25T11:57:36.000Z</time>
      </trkpt>
      <trkpt lat="45.69718" lon="6.19783">
        <ele>1751.1999511719</ele>
        <time>2013-01-25T11:57:40.000Z</time>
      </trkpt>
      <trkpt lat="45.69732" lon="6.19775">
        <ele>1751.5999755859</ele>
        <time>2013-01-25T11:57:45.000Z</time>
      </trkpt>
      <trkpt lat="45.6974" lon="6.19773">
        <ele>1742.8000488281</ele>
        <time>2013-01-25T11:57:49.000Z</time>
      </trkpt>
      <trkpt lat="45.69735" lon="6.19771">
        <ele>1736.4000244141</ele>
        <time>2013-01-25T11:57:54.000Z</time>
      </trkpt>
      <trkpt lat="45.69734" lon="6.19771">
        <ele>1736.1999511719</ele>
        <time>2013-01-25T11:57:55.000Z</time>
      </trkpt>
      <trkpt lat="45.69709" lon="6.19792">
        <ele>1737.1999511719</ele>
        <time>2013-01-25T11:58:17.000Z</time>
      </trkpt>
      <trkpt lat="45.69707" lon="6.19802">
        <ele>1737.4000244141</ele>
        <time>2013-01-25T11:58:24.000Z</time>
      </trkpt>
      <trkpt lat="45.69705" lon="6.19812">
        <ele>1737.4000244141</ele>
        <time>2013-01-25T11:58:32.000Z</time>
      </trkpt>
      <trkpt lat="45.69706" lon="6.19811">
        <ele>1737</ele>
        <time>2013-01-25T11:58:35.000Z</time>
      </trkpt>
      <trkpt lat="45.69708" lon="6.1981">
        <ele>1736.1999511719</ele>
        <time>2013-01-25T11:58:37.000Z</time>
      </trkpt>
      <trkpt lat="45.69715" lon="6.19809">
        <ele>1734.1999511719</ele>
        <time>2013-01-25T11:58:40.000Z</time>
      </trkpt>
      <trkpt lat="45.69733" lon="6.19816">
        <ele>1727.8000488281</ele>
        <time>2013-01-25T11:58:46.000Z</time>
      </trkpt>
      <trkpt lat="45.69739" lon="6.19817">
        <ele>1730.8000488281</ele>
        <time>2013-01-25T11:58:48.000Z</time>
      </trkpt>
      <trkpt lat="45.69745" lon="6.19819">
        <ele>1735.4000244141</ele>
        <time>2013-01-25T11:58:51.000Z</time>
      </trkpt>
      <trkpt lat="45.69748" lon="6.19816">
        <ele>1735.4000244141</ele>
        <time>2013-01-25T11:58:52.000Z</time>
      </trkpt>
      <trkpt lat="45.69756" lon="6.19816">
        <ele>1722.5999755859</ele>
        <time>2013-01-25T11:58:55.000Z</time>
      </trkpt>
      <trkpt lat="45.69763" lon="6.19815">
        <ele>1711.1999511719</ele>
        <time>2013-01-25T11:58:57.000Z</time>
      </trkpt>
      <trkpt lat="45.69766" lon="6.19809">
        <ele>1706.5999755859</ele>
        <time>2013-01-25T11:59:00.000Z</time>
      </trkpt>
      <trkpt lat="45.69767" lon="6.19802">
        <ele>1704.4000244141</ele>
        <time>2013-01-25T11:59:04.000Z</time>
      </trkpt>
      <trkpt lat="45.69778" lon="6.19796">
        <ele>1697.8000488281</ele>
        <time>2013-01-25T11:59:07.000Z</time>
      </trkpt>
      <trkpt lat="45.6978" lon="6.19796">
        <ele>1695.5999755859</ele>
        <time>2013-01-25T11:59:08.000Z</time>
      </trkpt>
      <trkpt lat="45.69787" lon="6.19794">
        <ele>1694.1999511719</ele>
        <time>2013-01-25T11:59:10.000Z</time>
      </trkpt>
      <trkpt lat="45.69799" lon="6.19798">
        <ele>1694.1999511719</ele>
        <time>2013-01-25T11:59:13.000Z</time>
      </trkpt>
      <trkpt lat="45.69811" lon="6.198">
        <ele>1694.1999511719</ele>
        <time>2013-01-25T11:59:17.000Z</time>
      </trkpt>
      <trkpt lat="45.69813" lon="6.198">
        <ele>1686.5999755859</ele>
        <time>2013-01-25T11:59:19.000Z</time>
      </trkpt>
      <trkpt lat="45.69814" lon="6.19802">
        <ele>1670.8000488281</ele>
        <time>2013-01-25T11:59:22.000Z</time>
      </trkpt>
      <trkpt lat="45.6981" lon="6.19803">
        <ele>1668</ele>
        <time>2013-01-25T11:59:25.000Z</time>
      </trkpt>
      <trkpt lat="45.69813" lon="6.19805">
        <ele>1668.1999511719</ele>
        <time>2013-01-25T11:59:34.000Z</time>
      </trkpt>
      <trkpt lat="45.69813" lon="6.19808">
        <ele>1668</ele>
        <time>2013-01-25T11:59:40.000Z</time>
      </trkpt>
      <trkpt lat="45.69814" lon="6.19809">
        <ele>1667.5999755859</ele>
        <time>2013-01-25T11:59:44.000Z</time>
      </trkpt>
      <trkpt lat="45.69818" lon="6.19806">
        <ele>1665.8000488281</ele>
        <time>2013-01-25T11:59:49.000Z</time>
      </trkpt>
      <trkpt lat="45.69816" lon="6.19807">
        <ele>1665</ele>
        <time>2013-01-25T11:59:59.000Z</time>
      </trkpt>
      <trkpt lat="45.69817" lon="6.1979">
        <ele>1661.1999511719</ele>
        <time>2013-01-25T12:00:04.000Z</time>
      </trkpt>
      <trkpt lat="45.69826" lon="6.19795">
        <ele>1658.4000244141</ele>
        <time>2013-01-25T12:00:07.000Z</time>
      </trkpt>
      <trkpt lat="45.69827" lon="6.19792">
        <ele>1657</ele>
        <time>2013-01-25T12:00:08.000Z</time>
      </trkpt>
      <trkpt lat="45.69826" lon="6.19786">
        <ele>1652.4000244141</ele>
        <time>2013-01-25T12:00:10.000Z</time>
      </trkpt>
      <trkpt lat="45.6984" lon="6.19784">
        <ele>1647.4000244141</ele>
        <time>2013-01-25T12:00:14.000Z</time>
      </trkpt>
      <trkpt lat="45.69848" lon="6.19789">
        <ele>1641.8000488281</ele>
        <time>2013-01-25T12:00:17.000Z</time>
      </trkpt>
      <trkpt lat="45.69862" lon="6.19778">
        <ele>1635</ele>
        <time>2013-01-25T12:00:21.000Z</time>
      </trkpt>
      <trkpt lat="45.69869" lon="6.19774">
        <ele>1628.1999511719</ele>
        <time>2013-01-25T12:00:24.000Z</time>
      </trkpt>
      <trkpt lat="45.69869" lon="6.19766">
        <ele>1624.1999511719</ele>
        <time>2013-01-25T12:00:26.000Z</time>
      </trkpt>
      <trkpt lat="45.6987" lon="6.19741">
        <ele>1620.1999511719</ele>
        <time>2013-01-25T12:00:31.000Z</time>
      </trkpt>
      <trkpt lat="45.69875" lon="6.19733">
        <ele>1614.4000244141</ele>
        <time>2013-01-25T12:00:35.000Z</time>
      </trkpt>
      <trkpt lat="45.6988" lon="6.19728">
        <ele>1611.5999755859</ele>
        <time>2013-01-25T12:00:41.000Z</time>
      </trkpt>
      <trkpt lat="45.69898" lon="6.19725">
        <ele>1606.1999511719</ele>
        <time>2013-01-25T12:00:45.000Z</time>
      </trkpt>
      <trkpt lat="45.69909" lon="6.19722">
        <ele>1602.1999511719</ele>
        <time>2013-01-25T12:00:47.000Z</time>
      </trkpt>
      <trkpt lat="45.69926" lon="6.19721">
        <ele>1593</ele>
        <time>2013-01-25T12:00:51.000Z</time>
      </trkpt>
      <trkpt lat="45.69932" lon="6.19709">
        <ele>1588.8000488281</ele>
        <time>2013-01-25T12:00:53.000Z</time>
      </trkpt>
      <trkpt lat="45.69942" lon="6.19696">
        <ele>1585</ele>
        <time>2013-01-25T12:00:56.000Z</time>
      </trkpt>
      <trkpt lat="45.69947" lon="6.19683">
        <ele>1581.4000244141</ele>
        <time>2013-01-25T12:00:58.000Z</time>
      </trkpt>
      <trkpt lat="45.69959" lon="6.19643">
        <ele>1575</ele>
        <time>2013-01-25T12:01:05.000Z</time>
      </trkpt>
      <trkpt lat="45.69961" lon="6.1963">
        <ele>1573.4000244141</ele>
        <time>2013-01-25T12:01:09.000Z</time>
      </trkpt>
      <trkpt lat="45.69962" lon="6.19626">
        <ele>1569.4000244141</ele>
        <time>2013-01-25T12:01:32.000Z</time>
      </trkpt>
      <trkpt lat="45.69958" lon="6.19636">
        <ele>1572.8000488281</ele>
        <time>2013-01-25T12:03:59.000Z</time>
      </trkpt>
      <trkpt lat="45.69961" lon="6.19633">
        <ele>1574.5999755859</ele>
        <time>2013-01-25T12:04:05.000Z</time>
      </trkpt>
      <trkpt lat="45.69965" lon="6.19631">
        <ele>1571.5999755859</ele>
        <time>2013-01-25T12:04:13.000Z</time>
      </trkpt>
      <trkpt lat="45.69964" lon="6.19633">
        <ele>1574.8000488281</ele>
        <time>2013-01-25T12:04:16.000Z</time>
      </trkpt>
      <trkpt lat="45.69963" lon="6.19635">
        <ele>1573.1999511719</ele>
        <time>2013-01-25T12:04:19.000Z</time>
      </trkpt>
      <trkpt lat="45.69959" lon="6.19641">
        <ele>1573.8000488281</ele>
        <time>2013-01-25T12:04:28.000Z</time>
      </trkpt>
      <trkpt lat="45.69957" lon="6.19638">
        <ele>1574</ele>
        <time>2013-01-25T12:04:46.000Z</time>
      </trkpt>
      <trkpt lat="45.69959" lon="6.19635">
        <ele>1574.1999511719</ele>
        <time>2013-01-25T12:07:19.000Z</time>
      </trkpt>
      <trkpt lat="45.69954" lon="6.19626">
        <ele>1575.8000488281</ele>
        <time>2013-01-25T12:07:28.000Z</time>
      </trkpt>
      <trkpt lat="45.69948" lon="6.19617">
        <ele>1578.8000488281</ele>
        <time>2013-01-25T12:07:38.000Z</time>
      </trkpt>
      <trkpt lat="45.69943" lon="6.19611">
        <ele>1581</ele>
        <time>2013-01-25T12:07:46.000Z</time>
      </trkpt>
      <trkpt lat="45.69938" lon="6.19606">
        <ele>1582.5999755859</ele>
        <time>2013-01-25T12:07:53.000Z</time>
      </trkpt>
      <trkpt lat="45.69933" lon="6.19599">
        <ele>1585</ele>
        <time>2013-01-25T12:08:02.000Z</time>
      </trkpt>
      <trkpt lat="45.69928" lon="6.19592">
        <ele>1586.4000244141</ele>
        <time>2013-01-25T12:08:10.000Z</time>
      </trkpt>
      <trkpt lat="45.69923" lon="6.19586">
        <ele>1587.5999755859</ele>
        <time>2013-01-25T12:08:18.000Z</time>
      </trkpt>
      <trkpt lat="45.69922" lon="6.19581">
        <ele>1589.1999511719</ele>
        <time>2013-01-25T12:08:22.000Z</time>
      </trkpt>
      <trkpt lat="45.69919" lon="6.19577">
        <ele>1590</ele>
        <time>2013-01-25T12:08:27.000Z</time>
      </trkpt>
      <trkpt lat="45.69915" lon="6.1957">
        <ele>1591.8000488281</ele>
        <time>2013-01-25T12:08:34.000Z</time>
      </trkpt>
      <trkpt lat="45.69908" lon="6.19563">
        <ele>1594</ele>
        <time>2013-01-25T12:08:45.000Z</time>
      </trkpt>
      <trkpt lat="45.69905" lon="6.1956">
        <ele>1595.8000488281</ele>
        <time>2013-01-25T12:08:51.000Z</time>
      </trkpt>
      <trkpt lat="45.69903" lon="6.19558">
        <ele>1597</ele>
        <time>2013-01-25T12:08:54.000Z</time>
      </trkpt>
      <trkpt lat="45.69899" lon="6.19553">
        <ele>1597.1999511719</ele>
        <time>2013-01-25T12:09:01.000Z</time>
      </trkpt>
      <trkpt lat="45.69894" lon="6.19548">
        <ele>1599</ele>
        <time>2013-01-25T12:09:08.000Z</time>
      </trkpt>
      <trkpt lat="45.6989" lon="6.19545">
        <ele>1599.1999511719</ele>
        <time>2013-01-25T12:09:14.000Z</time>
      </trkpt>
      <trkpt lat="45.69887" lon="6.19541">
        <ele>1601.4000244141</ele>
        <time>2013-01-25T12:09:19.000Z</time>
      </trkpt>
      <trkpt lat="45.69884" lon="6.19537">
        <ele>1601.4000244141</ele>
        <time>2013-01-25T12:09:25.000Z</time>
      </trkpt>
      <trkpt lat="45.69882" lon="6.19533">
        <ele>1604.1999511719</ele>
        <time>2013-01-25T12:09:30.000Z</time>
      </trkpt>
      <trkpt lat="45.69879" lon="6.19524">
        <ele>1605.4000244141</ele>
        <time>2013-01-25T12:09:39.000Z</time>
      </trkpt>
      <trkpt lat="45.69878" lon="6.19518">
        <ele>1607.1999511719</ele>
        <time>2013-01-25T12:09:45.000Z</time>
      </trkpt>
      <trkpt lat="45.69876" lon="6.19511">
        <ele>1609.1999511719</ele>
        <time>2013-01-25T12:09:52.000Z</time>
      </trkpt>
      <trkpt lat="45.69874" lon="6.19505">
        <ele>1609.1999511719</ele>
        <time>2013-01-25T12:09:59.000Z</time>
      </trkpt>
      <trkpt lat="45.69874" lon="6.19498">
        <ele>1610.4000244141</ele>
        <time>2013-01-25T12:10:06.000Z</time>
      </trkpt>
      <trkpt lat="45.69875" lon="6.19493">
        <ele>1611.8000488281</ele>
        <time>2013-01-25T12:10:10.000Z</time>
      </trkpt>
      <trkpt lat="45.69875" lon="6.19491">
        <ele>1613.4000244141</ele>
        <time>2013-01-25T12:10:12.000Z</time>
      </trkpt>
      <trkpt lat="45.69875" lon="6.19489">
        <ele>1614.8000488281</ele>
        <time>2013-01-25T12:10:14.000Z</time>
      </trkpt>
      <trkpt lat="45.69875" lon="6.1948">
        <ele>1615</ele>
        <time>2013-01-25T12:10:22.000Z</time>
      </trkpt>
      <trkpt lat="45.69875" lon="6.19479">
        <ele>1615</ele>
        <time>2013-01-25T12:10:23.000Z</time>
      </trkpt>
      <trkpt lat="45.69873" lon="6.19473">
        <ele>1619.1999511719</ele>
        <time>2013-01-25T12:10:30.000Z</time>
      </trkpt>
      <trkpt lat="45.69872" lon="6.19467">
        <ele>1619</ele>
        <time>2013-01-25T12:10:36.000Z</time>
      </trkpt>
      <trkpt lat="45.69871" lon="6.19463">
        <ele>1619.1999511719</ele>
        <time>2013-01-25T12:10:40.000Z</time>
      </trkpt>
      <trkpt lat="45.69868" lon="6.19457">
        <ele>1622.5999755859</ele>
        <time>2013-01-25T12:10:47.000Z</time>
      </trkpt>
      <trkpt lat="45.69866" lon="6.19454">
        <ele>1621</ele>
        <time>2013-01-25T12:10:52.000Z</time>
      </trkpt>
      <trkpt lat="45.69864" lon="6.19452">
        <ele>1623</ele>
        <time>2013-01-25T12:10:56.000Z</time>
      </trkpt>
      <trkpt lat="45.69864" lon="6.19451">
        <ele>1622.5999755859</ele>
        <time>2013-01-25T12:10:57.000Z</time>
      </trkpt>
      <trkpt lat="45.6986" lon="6.19451">
        <ele>1625.4000244141</ele>
        <time>2013-01-25T12:11:02.000Z</time>
      </trkpt>
      <trkpt lat="45.69857" lon="6.19452">
        <ele>1625.1999511719</ele>
        <time>2013-01-25T12:11:07.000Z</time>
      </trkpt>
      <trkpt lat="45.69852" lon="6.19452">
        <ele>1628.5999755859</ele>
        <time>2013-01-25T12:11:14.000Z</time>
      </trkpt>
      <trkpt lat="45.69848" lon="6.19455">
        <ele>1627.5999755859</ele>
        <time>2013-01-25T12:11:22.000Z</time>
      </trkpt>
      <trkpt lat="45.69845" lon="6.19456">
        <ele>1632</ele>
        <time>2013-01-25T12:11:27.000Z</time>
      </trkpt>
      <trkpt lat="45.69841" lon="6.19455">
        <ele>1632.1999511719</ele>
        <time>2013-01-25T12:11:33.000Z</time>
      </trkpt>
      <trkpt lat="45.69839" lon="6.19451">
        <ele>1633.5999755859</ele>
        <time>2013-01-25T12:11:38.000Z</time>
      </trkpt>
      <trkpt lat="45.69838" lon="6.19446">
        <ele>1636.4000244141</ele>
        <time>2013-01-25T12:11:44.000Z</time>
      </trkpt>
      <trkpt lat="45.69837" lon="6.1944">
        <ele>1635.5999755859</ele>
        <time>2013-01-25T12:11:50.000Z</time>
      </trkpt>
      <trkpt lat="45.69836" lon="6.19431">
        <ele>1636.4000244141</ele>
        <time>2013-01-25T12:11:59.000Z</time>
      </trkpt>
      <trkpt lat="45.69836" lon="6.19426">
        <ele>1638.5999755859</ele>
        <time>2013-01-25T12:12:03.000Z</time>
      </trkpt>
      <trkpt lat="45.69836" lon="6.19425">
        <ele>1638.8000488281</ele>
        <time>2013-01-25T12:12:04.000Z</time>
      </trkpt>
      <trkpt lat="45.69836" lon="6.19423">
        <ele>1640</ele>
        <time>2013-01-25T12:12:06.000Z</time>
      </trkpt>
      <trkpt lat="45.69837" lon="6.19419">
        <ele>1641</ele>
        <time>2013-01-25T12:12:11.000Z</time>
      </trkpt>
      <trkpt lat="45.69838" lon="6.19411">
        <ele>1643</ele>
        <time>2013-01-25T12:12:20.000Z</time>
      </trkpt>
      <trkpt lat="45.69838" lon="6.19406">
        <ele>1643.5999755859</ele>
        <time>2013-01-25T12:12:26.000Z</time>
      </trkpt>
      <trkpt lat="45.6984" lon="6.19405">
        <ele>1644.4000244141</ele>
        <time>2013-01-25T12:12:31.000Z</time>
      </trkpt>
      <trkpt lat="45.69843" lon="6.19403">
        <ele>1646.1999511719</ele>
        <time>2013-01-25T12:12:36.000Z</time>
      </trkpt>
      <trkpt lat="45.6985" lon="6.19399">
        <ele>1650.1999511719</ele>
        <time>2013-01-25T12:12:45.000Z</time>
      </trkpt>
      <trkpt lat="45.69853" lon="6.19394">
        <ele>1651.4000244141</ele>
        <time>2013-01-25T12:12:53.000Z</time>
      </trkpt>
      <trkpt lat="45.69856" lon="6.19386">
        <ele>1650.8000488281</ele>
        <time>2013-01-25T12:13:02.000Z</time>
      </trkpt>
      <trkpt lat="45.69859" lon="6.1938">
        <ele>1653</ele>
        <time>2013-01-25T12:13:09.000Z</time>
      </trkpt>
      <trkpt lat="45.6986" lon="6.19378">
        <ele>1654.4000244141</ele>
        <time>2013-01-25T12:13:12.000Z</time>
      </trkpt>
      <trkpt lat="45.69862" lon="6.19373">
        <ele>1656</ele>
        <time>2013-01-25T12:13:20.000Z</time>
      </trkpt>
      <trkpt lat="45.69863" lon="6.19371">
        <ele>1658</ele>
        <time>2013-01-25T12:13:24.000Z</time>
      </trkpt>
      <trkpt lat="45.69866" lon="6.19368">
        <ele>1659.5999755859</ele>
        <time>2013-01-25T12:13:30.000Z</time>
      </trkpt>
      <trkpt lat="45.6987" lon="6.19365">
        <ele>1662.8000488281</ele>
        <time>2013-01-25T12:13:36.000Z</time>
      </trkpt>
      <trkpt lat="45.69875" lon="6.19363">
        <ele>1662.8000488281</ele>
        <time>2013-01-25T12:13:42.000Z</time>
      </trkpt>
      <trkpt lat="45.69882" lon="6.19357">
        <ele>1667.1999511719</ele>
        <time>2013-01-25T12:13:53.000Z</time>
      </trkpt>
      <trkpt lat="45.69887" lon="6.1935">
        <ele>1668.5999755859</ele>
        <time>2013-01-25T12:14:02.000Z</time>
      </trkpt>
      <trkpt lat="45.69887" lon="6.19346">
        <ele>1667.4000244141</ele>
        <time>2013-01-25T12:14:07.000Z</time>
      </trkpt>
      <trkpt lat="45.69888" lon="6.1934">
        <ele>1672.1999511719</ele>
        <time>2013-01-25T12:14:14.000Z</time>
      </trkpt>
      <trkpt lat="45.69889" lon="6.19334">
        <ele>1673.4000244141</ele>
        <time>2013-01-25T12:14:20.000Z</time>
      </trkpt>
      <trkpt lat="45.6989" lon="6.19328">
        <ele>1673.5999755859</ele>
        <time>2013-01-25T12:14:25.000Z</time>
      </trkpt>
      <trkpt lat="45.6989" lon="6.19323">
        <ele>1674.8000488281</ele>
        <time>2013-01-25T12:14:29.000Z</time>
      </trkpt>
      <trkpt lat="45.69888" lon="6.19316">
        <ele>1675.1999511719</ele>
        <time>2013-01-25T12:14:33.000Z</time>
      </trkpt>
      <trkpt lat="45.69885" lon="6.19306">
        <ele>1675.5999755859</ele>
        <time>2013-01-25T12:14:42.000Z</time>
      </trkpt>
      <trkpt lat="45.69883" lon="6.19299">
        <ele>1675.1999511719</ele>
        <time>2013-01-25T12:14:49.000Z</time>
      </trkpt>
      <trkpt lat="45.69882" lon="6.1929">
        <ele>1678</ele>
        <time>2013-01-25T12:14:59.000Z</time>
      </trkpt>
      <trkpt lat="45.69881" lon="6.19281">
        <ele>1678.4000244141</ele>
        <time>2013-01-25T12:15:06.000Z</time>
      </trkpt>
      <trkpt lat="45.69882" lon="6.1927">
        <ele>1680.4000244141</ele>
        <time>2013-01-25T12:15:16.000Z</time>
      </trkpt>
      <trkpt lat="45.69883" lon="6.19263">
        <ele>1681.5999755859</ele>
        <time>2013-01-25T12:15:24.000Z</time>
      </trkpt>
      <trkpt lat="45.69883" lon="6.19259">
        <ele>1683.8000488281</ele>
        <time>2013-01-25T12:15:28.000Z</time>
      </trkpt>
      <trkpt lat="45.69884" lon="6.19248">
        <ele>1683.5999755859</ele>
        <time>2013-01-25T12:15:35.000Z</time>
      </trkpt>
      <trkpt lat="45.69885" lon="6.19244">
        <ele>1684.5999755859</ele>
        <time>2013-01-25T12:15:40.000Z</time>
      </trkpt>
      <trkpt lat="45.69887" lon="6.19234">
        <ele>1686.1999511719</ele>
        <time>2013-01-25T12:15:49.000Z</time>
      </trkpt>
      <trkpt lat="45.69891" lon="6.19225">
        <ele>1688.1999511719</ele>
        <time>2013-01-25T12:15:57.000Z</time>
      </trkpt>
      <trkpt lat="45.69894" lon="6.1922">
        <ele>1689.4000244141</ele>
        <time>2013-01-25T12:16:04.000Z</time>
      </trkpt>
      <trkpt lat="45.69899" lon="6.19215">
        <ele>1691.8000488281</ele>
        <time>2013-01-25T12:16:12.000Z</time>
      </trkpt>
      <trkpt lat="45.69903" lon="6.1921">
        <ele>1692.1999511719</ele>
        <time>2013-01-25T12:16:18.000Z</time>
      </trkpt>
      <trkpt lat="45.69909" lon="6.19207">
        <ele>1695.5999755859</ele>
        <time>2013-01-25T12:16:27.000Z</time>
      </trkpt>
      <trkpt lat="45.69911" lon="6.19205">
        <ele>1697.1999511719</ele>
        <time>2013-01-25T12:16:30.000Z</time>
      </trkpt>
      <trkpt lat="45.69917" lon="6.19202">
        <ele>1698.1999511719</ele>
        <time>2013-01-25T12:16:40.000Z</time>
      </trkpt>
      <trkpt lat="45.69924" lon="6.19198">
        <ele>1698.5999755859</ele>
        <time>2013-01-25T12:16:49.000Z</time>
      </trkpt>
      <trkpt lat="45.69928" lon="6.19196">
        <ele>1700.1999511719</ele>
        <time>2013-01-25T12:16:56.000Z</time>
      </trkpt>
      <trkpt lat="45.69931" lon="6.19194">
        <ele>1702.1999511719</ele>
        <time>2013-01-25T12:17:01.000Z</time>
      </trkpt>
      <trkpt lat="45.6994" lon="6.1919">
        <ele>1705.8000488281</ele>
        <time>2013-01-25T12:17:12.000Z</time>
      </trkpt>
      <trkpt lat="45.6995" lon="6.19189">
        <ele>1707</ele>
        <time>2013-01-25T12:17:23.000Z</time>
      </trkpt>
      <trkpt lat="45.69957" lon="6.19188">
        <ele>1709.4000244141</ele>
        <time>2013-01-25T12:17:34.000Z</time>
      </trkpt>
      <trkpt lat="45.69961" lon="6.19186">
        <ele>1709.1999511719</ele>
        <time>2013-01-25T12:17:41.000Z</time>
      </trkpt>
      <trkpt lat="45.69968" lon="6.19182">
        <ele>1711.5999755859</ele>
        <time>2013-01-25T12:17:51.000Z</time>
      </trkpt>
      <trkpt lat="45.69975" lon="6.19178">
        <ele>1713.8000488281</ele>
        <time>2013-01-25T12:18:01.000Z</time>
      </trkpt>
      <trkpt lat="45.69982" lon="6.19173">
        <ele>1714.8000488281</ele>
        <time>2013-01-25T12:18:11.000Z</time>
      </trkpt>
      <trkpt lat="45.69983" lon="6.19171">
        <ele>1714.5999755859</ele>
        <time>2013-01-25T12:18:13.000Z</time>
      </trkpt>
      <trkpt lat="45.69985" lon="6.19169">
        <ele>1715.8000488281</ele>
        <time>2013-01-25T12:18:18.000Z</time>
      </trkpt>
      <trkpt lat="45.69992" lon="6.19164">
        <ele>1716.8000488281</ele>
        <time>2013-01-25T12:18:28.000Z</time>
      </trkpt>
      <trkpt lat="45.7" lon="6.19161">
        <ele>1718.5999755859</ele>
        <time>2013-01-25T12:18:37.000Z</time>
      </trkpt>
      <trkpt lat="45.70003" lon="6.19161">
        <ele>1720.8000488281</ele>
        <time>2013-01-25T12:18:41.000Z</time>
      </trkpt>
      <trkpt lat="45.70004" lon="6.19161">
        <ele>1721.1999511719</ele>
        <time>2013-01-25T12:18:42.000Z</time>
      </trkpt>
      <trkpt lat="45.70013" lon="6.19162">
        <ele>1723.1999511719</ele>
        <time>2013-01-25T12:18:52.000Z</time>
      </trkpt>
      <trkpt lat="45.70021" lon="6.19164">
        <ele>1723.8000488281</ele>
        <time>2013-01-25T12:19:00.000Z</time>
      </trkpt>
      <trkpt lat="45.70029" lon="6.19164">
        <ele>1726.4000244141</ele>
        <time>2013-01-25T12:19:09.000Z</time>
      </trkpt>
      <trkpt lat="45.70036" lon="6.19163">
        <ele>1729.1999511719</ele>
        <time>2013-01-25T12:19:17.000Z</time>
      </trkpt>
      <trkpt lat="45.70043" lon="6.19161">
        <ele>1731.4000244141</ele>
        <time>2013-01-25T12:19:26.000Z</time>
      </trkpt>
      <trkpt lat="45.70045" lon="6.19161">
        <ele>1731.8000488281</ele>
        <time>2013-01-25T12:19:34.000Z</time>
      </trkpt>
      <trkpt lat="45.70051" lon="6.19159">
        <ele>1732.5999755859</ele>
        <time>2013-01-25T12:19:54.000Z</time>
      </trkpt>
      <trkpt lat="45.70057" lon="6.19156">
        <ele>1735.1999511719</ele>
        <time>2013-01-25T12:20:02.000Z</time>
      </trkpt>
      <trkpt lat="45.70065" lon="6.19153">
        <ele>1737</ele>
        <time>2013-01-25T12:20:11.000Z</time>
      </trkpt>
      <trkpt lat="45.70076" lon="6.19149">
        <ele>1738.4000244141</ele>
        <time>2013-01-25T12:20:21.000Z</time>
      </trkpt>
      <trkpt lat="45.70081" lon="6.19146">
        <ele>1741.1999511719</ele>
        <time>2013-01-25T12:20:27.000Z</time>
      </trkpt>
      <trkpt lat="45.70089" lon="6.19141">
        <ele>1742</ele>
        <time>2013-01-25T12:20:36.000Z</time>
      </trkpt>
      <trkpt lat="45.70091" lon="6.1914">
        <ele>1743.1999511719</ele>
        <time>2013-01-25T12:20:38.000Z</time>
      </trkpt>
      <trkpt lat="45.70097" lon="6.19136">
        <ele>1744.5999755859</ele>
        <time>2013-01-25T12:20:45.000Z</time>
      </trkpt>
      <trkpt lat="45.70104" lon="6.19135">
        <ele>1747.4000244141</ele>
        <time>2013-01-25T12:20:52.000Z</time>
      </trkpt>
      <trkpt lat="45.7011" lon="6.19132">
        <ele>1748.5999755859</ele>
        <time>2013-01-25T12:20:59.000Z</time>
      </trkpt>
      <trkpt lat="45.70113" lon="6.19131">
        <ele>1749</ele>
        <time>2013-01-25T12:21:06.000Z</time>
      </trkpt>
      <trkpt lat="45.70113" lon="6.1913">
        <ele>1749.5999755859</ele>
        <time>2013-01-25T12:21:25.000Z</time>
      </trkpt>
      <trkpt lat="45.70118" lon="6.1913">
        <ele>1749.4000244141</ele>
        <time>2013-01-25T12:21:30.000Z</time>
      </trkpt>
      <trkpt lat="45.70126" lon="6.1913">
        <ele>1750.4000244141</ele>
        <time>2013-01-25T12:21:37.000Z</time>
      </trkpt>
      <trkpt lat="45.70133" lon="6.1913">
        <ele>1751.4000244141</ele>
        <time>2013-01-25T12:21:43.000Z</time>
      </trkpt>
      <trkpt lat="45.70135" lon="6.1913">
        <ele>1752.5999755859</ele>
        <time>2013-01-25T12:21:45.000Z</time>
      </trkpt>
      <trkpt lat="45.70144" lon="6.19129">
        <ele>1754.5999755859</ele>
        <time>2013-01-25T12:21:54.000Z</time>
      </trkpt>
      <trkpt lat="45.70153" lon="6.19128">
        <ele>1756.8000488281</ele>
        <time>2013-01-25T12:22:04.000Z</time>
      </trkpt>
      <trkpt lat="45.70156" lon="6.19127">
        <ele>1757.1999511719</ele>
        <time>2013-01-25T12:22:14.000Z</time>
      </trkpt>
      <trkpt lat="45.70162" lon="6.19125">
        <ele>1758.8000488281</ele>
        <time>2013-01-25T12:22:22.000Z</time>
      </trkpt>
      <trkpt lat="45.70164" lon="6.19125">
        <ele>1760.1999511719</ele>
        <time>2013-01-25T12:22:25.000Z</time>
      </trkpt>
      <trkpt lat="45.70171" lon="6.19124">
        <ele>1761</ele>
        <time>2013-01-25T12:22:33.000Z</time>
      </trkpt>
      <trkpt lat="45.70179" lon="6.19123">
        <ele>1764.4000244141</ele>
        <time>2013-01-25T12:22:42.000Z</time>
      </trkpt>
      <trkpt lat="45.70186" lon="6.19122">
        <ele>1766.8000488281</ele>
        <time>2013-01-25T12:22:51.000Z</time>
      </trkpt>
      <trkpt lat="45.70195" lon="6.19118">
        <ele>1770.4000244141</ele>
        <time>2013-01-25T12:23:02.000Z</time>
      </trkpt>
      <trkpt lat="45.70201" lon="6.19115">
        <ele>1772.5999755859</ele>
        <time>2013-01-25T12:23:11.000Z</time>
      </trkpt>
      <trkpt lat="45.70204" lon="6.1911">
        <ele>1773</ele>
        <time>2013-01-25T12:23:25.000Z</time>
      </trkpt>
      <trkpt lat="45.70209" lon="6.19104">
        <ele>1775</ele>
        <time>2013-01-25T12:23:34.000Z</time>
      </trkpt>
      <trkpt lat="45.70214" lon="6.19098">
        <ele>1776.1999511719</ele>
        <time>2013-01-25T12:23:41.000Z</time>
      </trkpt>
      <trkpt lat="45.7022" lon="6.19092">
        <ele>1778.4000244141</ele>
        <time>2013-01-25T12:23:49.000Z</time>
      </trkpt>
      <trkpt lat="45.70225" lon="6.19088">
        <ele>1779.8000488281</ele>
        <time>2013-01-25T12:23:55.000Z</time>
      </trkpt>
      <trkpt lat="45.70229" lon="6.19081">
        <ele>1781.4000244141</ele>
        <time>2013-01-25T12:24:04.000Z</time>
      </trkpt>
      <trkpt lat="45.70237" lon="6.19078">
        <ele>1784.1999511719</ele>
        <time>2013-01-25T12:24:14.000Z</time>
      </trkpt>
      <trkpt lat="45.70245" lon="6.1908">
        <ele>1786.4000244141</ele>
        <time>2013-01-25T12:24:24.000Z</time>
      </trkpt>
      <trkpt lat="45.7025" lon="6.19083">
        <ele>1788.1999511719</ele>
        <time>2013-01-25T12:24:33.000Z</time>
      </trkpt>
      <trkpt lat="45.70255" lon="6.19087">
        <ele>1790.4000244141</ele>
        <time>2013-01-25T12:24:40.000Z</time>
      </trkpt>
      <trkpt lat="45.70259" lon="6.19089">
        <ele>1792.5999755859</ele>
        <time>2013-01-25T12:24:47.000Z</time>
      </trkpt>
      <trkpt lat="45.70265" lon="6.1909">
        <ele>1794</ele>
        <time>2013-01-25T12:24:55.000Z</time>
      </trkpt>
      <trkpt lat="45.70271" lon="6.19088">
        <ele>1795.8000488281</ele>
        <time>2013-01-25T12:25:02.000Z</time>
      </trkpt>
      <trkpt lat="45.70278" lon="6.19084">
        <ele>1796.4000244141</ele>
        <time>2013-01-25T12:25:11.000Z</time>
      </trkpt>
      <trkpt lat="45.70286" lon="6.1908">
        <ele>1797.8000488281</ele>
        <time>2013-01-25T12:25:21.000Z</time>
      </trkpt>
      <trkpt lat="45.70289" lon="6.1908">
        <ele>1799</ele>
        <time>2013-01-25T12:25:25.000Z</time>
      </trkpt>
      <trkpt lat="45.70297" lon="6.19086">
        <ele>1800.4000244141</ele>
        <time>2013-01-25T12:25:35.000Z</time>
      </trkpt>
      <trkpt lat="45.70301" lon="6.19089">
        <ele>1802</ele>
        <time>2013-01-25T12:25:41.000Z</time>
      </trkpt>
      <trkpt lat="45.70307" lon="6.19097">
        <ele>1803.4000244141</ele>
        <time>2013-01-25T12:25:50.000Z</time>
      </trkpt>
      <trkpt lat="45.70308" lon="6.19097">
        <ele>1803.1999511719</ele>
        <time>2013-01-25T12:25:51.000Z</time>
      </trkpt>
      <trkpt lat="45.70315" lon="6.19103">
        <ele>1804.8000488281</ele>
        <time>2013-01-25T12:26:01.000Z</time>
      </trkpt>
      <trkpt lat="45.70319" lon="6.19108">
        <ele>1807</ele>
        <time>2013-01-25T12:26:08.000Z</time>
      </trkpt>
      <trkpt lat="45.70323" lon="6.19115">
        <ele>1808.4000244141</ele>
        <time>2013-01-25T12:26:16.000Z</time>
      </trkpt>
      <trkpt lat="45.70328" lon="6.19122">
        <ele>1810.5999755859</ele>
        <time>2013-01-25T12:26:26.000Z</time>
      </trkpt>
      <trkpt lat="45.70332" lon="6.19126">
        <ele>1812.8000488281</ele>
        <time>2013-01-25T12:26:32.000Z</time>
      </trkpt>
      <trkpt lat="45.70337" lon="6.19132">
        <ele>1814.8000488281</ele>
        <time>2013-01-25T12:26:41.000Z</time>
      </trkpt>
      <trkpt lat="45.70339" lon="6.19138">
        <ele>1815.1999511719</ele>
        <time>2013-01-25T12:26:48.000Z</time>
      </trkpt>
      <trkpt lat="45.70342" lon="6.19141">
        <ele>1816</ele>
        <time>2013-01-25T12:26:56.000Z</time>
      </trkpt>
      <trkpt lat="45.70348" lon="6.19144">
        <ele>1815.5999755859</ele>
        <time>2013-01-25T12:27:36.000Z</time>
      </trkpt>
      <trkpt lat="45.70349" lon="6.19151">
        <ele>1814.4000244141</ele>
        <time>2013-01-25T12:27:42.000Z</time>
      </trkpt>
      <trkpt lat="45.70352" lon="6.19159">
        <ele>1815</ele>
        <time>2013-01-25T12:27:49.000Z</time>
      </trkpt>
      <trkpt lat="45.70356" lon="6.19168">
        <ele>1813</ele>
        <time>2013-01-25T12:27:59.000Z</time>
      </trkpt>
      <trkpt lat="45.70359" lon="6.19174">
        <ele>1813.8000488281</ele>
        <time>2013-01-25T12:28:07.000Z</time>
      </trkpt>
      <trkpt lat="45.7036" lon="6.19175">
        <ele>1814</ele>
        <time>2013-01-25T12:28:08.000Z</time>
      </trkpt>
      <trkpt lat="45.70365" lon="6.19183">
        <ele>1814.4000244141</ele>
        <time>2013-01-25T12:28:18.000Z</time>
      </trkpt>
      <trkpt lat="45.70367" lon="6.1919">
        <ele>1813.8000488281</ele>
        <time>2013-01-25T12:28:26.000Z</time>
      </trkpt>
      <trkpt lat="45.70369" lon="6.19194">
        <ele>1813</ele>
        <time>2013-01-25T12:28:31.000Z</time>
      </trkpt>
      <trkpt lat="45.7037" lon="6.19192">
        <ele>1812.5999755859</ele>
        <time>2013-01-25T12:30:15.000Z</time>
      </trkpt>
      <trkpt lat="45.70367" lon="6.19185">
        <ele>1814.4000244141</ele>
        <time>2013-01-25T12:30:28.000Z</time>
      </trkpt>
      <trkpt lat="45.70366" lon="6.19183">
        <ele>1813.5999755859</ele>
        <time>2013-01-25T12:30:37.000Z</time>
      </trkpt>
      <trkpt lat="45.70364" lon="6.19176">
        <ele>1813.8000488281</ele>
        <time>2013-01-25T12:30:52.000Z</time>
      </trkpt>
      <trkpt lat="45.70362" lon="6.19172">
        <ele>1814</ele>
        <time>2013-01-25T12:30:58.000Z</time>
      </trkpt>
      <trkpt lat="45.70358" lon="6.19166">
        <ele>1813.8000488281</ele>
        <time>2013-01-25T12:31:05.000Z</time>
      </trkpt>
      <trkpt lat="45.70356" lon="6.19161">
        <ele>1812.5999755859</ele>
        <time>2013-01-25T12:31:23.000Z</time>
      </trkpt>
      <trkpt lat="45.70354" lon="6.19157">
        <ele>1813.5999755859</ele>
        <time>2013-01-25T12:31:28.000Z</time>
      </trkpt>
      <trkpt lat="45.70352" lon="6.19155">
        <ele>1815.1999511719</ele>
        <time>2013-01-25T12:31:32.000Z</time>
      </trkpt>
      <trkpt lat="45.70348" lon="6.19149">
        <ele>1814.4000244141</ele>
        <time>2013-01-25T12:31:39.000Z</time>
      </trkpt>
      <trkpt lat="45.70345" lon="6.19142">
        <ele>1814.5999755859</ele>
        <time>2013-01-25T12:31:46.000Z</time>
      </trkpt>
      <trkpt lat="45.70342" lon="6.19138">
        <ele>1814.5999755859</ele>
        <time>2013-01-25T12:31:53.000Z</time>
      </trkpt>
      <trkpt lat="45.70343" lon="6.19136">
        <ele>1814</ele>
        <time>2013-01-25T12:32:12.000Z</time>
      </trkpt>
      <trkpt lat="45.70344" lon="6.19133">
        <ele>1816.5999755859</ele>
        <time>2013-01-25T12:32:16.000Z</time>
      </trkpt>
      <trkpt lat="45.70344" lon="6.19127">
        <ele>1815.8000488281</ele>
        <time>2013-01-25T12:32:26.000Z</time>
      </trkpt>
      <trkpt lat="45.70344" lon="6.19127">
        <ele>1816.4000244141</ele>
        <time>2013-01-25T12:32:28.000Z</time>
      </trkpt>
      <trkpt lat="45.70343" lon="6.19132">
        <ele>1815.1999511719</ele>
        <time>2013-01-25T12:32:57.000Z</time>
      </trkpt>
      <trkpt lat="45.70343" lon="6.19139">
        <ele>1814</ele>
        <time>2013-01-25T12:33:04.000Z</time>
      </trkpt>
      <trkpt lat="45.70345" lon="6.19142">
        <ele>1814</ele>
        <time>2013-01-25T12:33:29.000Z</time>
      </trkpt>
      <trkpt lat="45.70348" lon="6.19141">
        <ele>1816.8000488281</ele>
        <time>2013-01-25T12:34:00.000Z</time>
      </trkpt>
      <trkpt lat="45.70345" lon="6.19142">
        <ele>1814.4000244141</ele>
        <time>2013-01-25T12:34:04.000Z</time>
      </trkpt>
      <trkpt lat="45.70345" lon="6.19133">
        <ele>1815.4000244141</ele>
        <time>2013-01-25T12:34:48.000Z</time>
      </trkpt>
      <trkpt lat="45.70347" lon="6.19127">
        <ele>1815.1999511719</ele>
        <time>2013-01-25T12:34:55.000Z</time>
      </trkpt>
      <trkpt lat="45.70347" lon="6.19125">
        <ele>1815.4000244141</ele>
        <time>2013-01-25T12:34:57.000Z</time>
      </trkpt>
      <trkpt lat="45.7035" lon="6.19115">
        <ele>1818</ele>
        <time>2013-01-25T12:35:06.000Z</time>
      </trkpt>
      <trkpt lat="45.7035" lon="6.19106">
        <ele>1819.5999755859</ele>
        <time>2013-01-25T12:35:14.000Z</time>
      </trkpt>
      <trkpt lat="45.7035" lon="6.19102">
        <ele>1821.1999511719</ele>
        <time>2013-01-25T12:35:17.000Z</time>
      </trkpt>
      <trkpt lat="45.70349" lon="6.19091">
        <ele>1825.1999511719</ele>
        <time>2013-01-25T12:35:29.000Z</time>
      </trkpt>
      <trkpt lat="45.7035" lon="6.19089">
        <ele>1826</ele>
        <time>2013-01-25T12:35:31.000Z</time>
      </trkpt>
      <trkpt lat="45.7035" lon="6.19081">
        <ele>1827.4000244141</ele>
        <time>2013-01-25T12:35:41.000Z</time>
      </trkpt>
      <trkpt lat="45.7035" lon="6.1908">
        <ele>1827</ele>
        <time>2013-01-25T12:35:42.000Z</time>
      </trkpt>
      <trkpt lat="45.7035" lon="6.19073">
        <ele>1828.1999511719</ele>
        <time>2013-01-25T12:35:49.000Z</time>
      </trkpt>
      <trkpt lat="45.70351" lon="6.19068">
        <ele>1829.8000488281</ele>
        <time>2013-01-25T12:35:56.000Z</time>
      </trkpt>
      <trkpt lat="45.70352" lon="6.19066">
        <ele>1831</ele>
        <time>2013-01-25T12:35:58.000Z</time>
      </trkpt>
      <trkpt lat="45.70354" lon="6.19061">
        <ele>1831.8000488281</ele>
        <time>2013-01-25T12:36:04.000Z</time>
      </trkpt>
      <trkpt lat="45.70356" lon="6.19056">
        <ele>1832.1999511719</ele>
        <time>2013-01-25T12:36:11.000Z</time>
      </trkpt>
      <trkpt lat="45.70358" lon="6.19053">
        <ele>1835.5999755859</ele>
        <time>2013-01-25T12:36:16.000Z</time>
      </trkpt>
      <trkpt lat="45.70361" lon="6.19045">
        <ele>1835.8000488281</ele>
        <time>2013-01-25T12:36:25.000Z</time>
      </trkpt>
      <trkpt lat="45.70362" lon="6.19044">
        <ele>1837.5999755859</ele>
        <time>2013-01-25T12:36:27.000Z</time>
      </trkpt>
      <trkpt lat="45.70365" lon="6.1904">
        <ele>1837.4000244141</ele>
        <time>2013-01-25T12:36:34.000Z</time>
      </trkpt>
      <trkpt lat="45.70368" lon="6.19034">
        <ele>1841.4000244141</ele>
        <time>2013-01-25T12:36:42.000Z</time>
      </trkpt>
      <trkpt lat="45.70371" lon="6.19026">
        <ele>1844.1999511719</ele>
        <time>2013-01-25T12:36:52.000Z</time>
      </trkpt>
      <trkpt lat="45.70374" lon="6.19024">
        <ele>1845.5999755859</ele>
        <time>2013-01-25T12:37:01.000Z</time>
      </trkpt>
      <trkpt lat="45.70378" lon="6.19026">
        <ele>1844.8000488281</ele>
        <time>2013-01-25T12:37:08.000Z</time>
      </trkpt>
      <trkpt lat="45.70381" lon="6.19027">
        <ele>1846.8000488281</ele>
        <time>2013-01-25T12:37:14.000Z</time>
      </trkpt>
      <trkpt lat="45.70385" lon="6.19027">
        <ele>1847.4000244141</ele>
        <time>2013-01-25T12:37:20.000Z</time>
      </trkpt>
      <trkpt lat="45.70386" lon="6.19027">
        <ele>1848.4000244141</ele>
        <time>2013-01-25T12:37:22.000Z</time>
      </trkpt>
      <trkpt lat="45.7039" lon="6.19027">
        <ele>1850.5999755859</ele>
        <time>2013-01-25T12:37:27.000Z</time>
      </trkpt>
      <trkpt lat="45.70393" lon="6.19028">
        <ele>1852.5999755859</ele>
        <time>2013-01-25T12:37:33.000Z</time>
      </trkpt>
      <trkpt lat="45.70399" lon="6.19028">
        <ele>1852</ele>
        <time>2013-01-25T12:37:40.000Z</time>
      </trkpt>
      <trkpt lat="45.70404" lon="6.19028">
        <ele>1855</ele>
        <time>2013-01-25T12:37:48.000Z</time>
      </trkpt>
      <trkpt lat="45.7041" lon="6.19027">
        <ele>1856</ele>
        <time>2013-01-25T12:37:57.000Z</time>
      </trkpt>
      <trkpt lat="45.70412" lon="6.19026">
        <ele>1856.1999511719</ele>
        <time>2013-01-25T12:38:02.000Z</time>
      </trkpt>
      <trkpt lat="45.70416" lon="6.19024">
        <ele>1857.5999755859</ele>
        <time>2013-01-25T12:38:09.000Z</time>
      </trkpt>
      <trkpt lat="45.70418" lon="6.19023">
        <ele>1859.4000244141</ele>
        <time>2013-01-25T12:38:13.000Z</time>
      </trkpt>
      <trkpt lat="45.70421" lon="6.19021">
        <ele>1862.5999755859</ele>
        <time>2013-01-25T12:38:18.000Z</time>
      </trkpt>
      <trkpt lat="45.70424" lon="6.19019">
        <ele>1863.5999755859</ele>
        <time>2013-01-25T12:38:23.000Z</time>
      </trkpt>
      <trkpt lat="45.70427" lon="6.19015">
        <ele>1865</ele>
        <time>2013-01-25T12:38:30.000Z</time>
      </trkpt>
      <trkpt lat="45.7043" lon="6.19013">
        <ele>1866</ele>
        <time>2013-01-25T12:38:36.000Z</time>
      </trkpt>
      <trkpt lat="45.70435" lon="6.1901">
        <ele>1868.4000244141</ele>
        <time>2013-01-25T12:38:44.000Z</time>
      </trkpt>
      <trkpt lat="45.7044" lon="6.19008">
        <ele>1868</ele>
        <time>2013-01-25T12:38:52.000Z</time>
      </trkpt>
      <trkpt lat="45.70446" lon="6.1901">
        <ele>1868.1999511719</ele>
        <time>2013-01-25T12:38:59.000Z</time>
      </trkpt>
      <trkpt lat="45.70451" lon="6.19014">
        <ele>1870.5999755859</ele>
        <time>2013-01-25T12:39:06.000Z</time>
      </trkpt>
      <trkpt lat="45.70459" lon="6.1902">
        <ele>1871.8000488281</ele>
        <time>2013-01-25T12:39:16.000Z</time>
      </trkpt>
      <trkpt lat="45.70467" lon="6.19026">
        <ele>1871.4000244141</ele>
        <time>2013-01-25T12:39:26.000Z</time>
      </trkpt>
      <trkpt lat="45.70476" lon="6.19032">
        <ele>1872.5999755859</ele>
        <time>2013-01-25T12:39:36.000Z</time>
      </trkpt>
      <trkpt lat="45.70481" lon="6.19035">
        <ele>1874</ele>
        <time>2013-01-25T12:39:43.000Z</time>
      </trkpt>
      <trkpt lat="45.70484" lon="6.19037">
        <ele>1874.1999511719</ele>
        <time>2013-01-25T12:39:47.000Z</time>
      </trkpt>
      <trkpt lat="45.70489" lon="6.19041">
        <ele>1876.1999511719</ele>
        <time>2013-01-25T12:39:55.000Z</time>
      </trkpt>
      <trkpt lat="45.70494" lon="6.19045">
        <ele>1877.4000244141</ele>
        <time>2013-01-25T12:40:03.000Z</time>
      </trkpt>
      <trkpt lat="45.70497" lon="6.19047">
        <ele>1875.8000488281</ele>
        <time>2013-01-25T12:40:06.000Z</time>
      </trkpt>
      <trkpt lat="45.70498" lon="6.19047">
        <ele>1877.1999511719</ele>
        <time>2013-01-25T12:40:13.000Z</time>
      </trkpt>
      <trkpt lat="45.70503" lon="6.19049">
        <ele>1877.5999755859</ele>
        <time>2013-01-25T12:40:35.000Z</time>
      </trkpt>
      <trkpt lat="45.7051" lon="6.19053">
        <ele>1877.5999755859</ele>
        <time>2013-01-25T12:40:43.000Z</time>
      </trkpt>
      <trkpt lat="45.70512" lon="6.19054">
        <ele>1877.5999755859</ele>
        <time>2013-01-25T12:40:45.000Z</time>
      </trkpt>
      <trkpt lat="45.70518" lon="6.19057">
        <ele>1878.4000244141</ele>
        <time>2013-01-25T12:40:51.000Z</time>
      </trkpt>
      <trkpt lat="45.70524" lon="6.19061">
        <ele>1879.5999755859</ele>
        <time>2013-01-25T12:40:56.000Z</time>
      </trkpt>
      <trkpt lat="45.70526" lon="6.19064">
        <ele>1879.5999755859</ele>
        <time>2013-01-25T12:41:00.000Z</time>
      </trkpt>
      <trkpt lat="45.70533" lon="6.19068">
        <ele>1879.8000488281</ele>
        <time>2013-01-25T12:41:07.000Z</time>
      </trkpt>
      <trkpt lat="45.70543" lon="6.19072">
        <ele>1879.1999511719</ele>
        <time>2013-01-25T12:41:14.000Z</time>
      </trkpt>
      <trkpt lat="45.7055" lon="6.19077">
        <ele>1879.5999755859</ele>
        <time>2013-01-25T12:41:21.000Z</time>
      </trkpt>
      <trkpt lat="45.70559" lon="6.19084">
        <ele>1880</ele>
        <time>2013-01-25T12:41:30.000Z</time>
      </trkpt>
      <trkpt lat="45.70568" lon="6.1909">
        <ele>1882.1999511719</ele>
        <time>2013-01-25T12:41:39.000Z</time>
      </trkpt>
      <trkpt lat="45.70577" lon="6.19095">
        <ele>1882</ele>
        <time>2013-01-25T12:41:47.000Z</time>
      </trkpt>
      <trkpt lat="45.70586" lon="6.19098">
        <ele>1882.4000244141</ele>
        <time>2013-01-25T12:41:54.000Z</time>
      </trkpt>
      <trkpt lat="45.70593" lon="6.19104">
        <ele>1883.1999511719</ele>
        <time>2013-01-25T12:42:02.000Z</time>
      </trkpt>
      <trkpt lat="45.706" lon="6.19109">
        <ele>1884.1999511719</ele>
        <time>2013-01-25T12:42:09.000Z</time>
      </trkpt>
      <trkpt lat="45.70609" lon="6.19112">
        <ele>1884.4000244141</ele>
        <time>2013-01-25T12:42:17.000Z</time>
      </trkpt>
      <trkpt lat="45.70619" lon="6.19116">
        <ele>1884.4000244141</ele>
        <time>2013-01-25T12:42:25.000Z</time>
      </trkpt>
      <trkpt lat="45.7063" lon="6.19121">
        <ele>1883.5999755859</ele>
        <time>2013-01-25T12:42:33.000Z</time>
      </trkpt>
      <trkpt lat="45.70637" lon="6.19125">
        <ele>1883</ele>
        <time>2013-01-25T12:42:41.000Z</time>
      </trkpt>
      <trkpt lat="45.70641" lon="6.19127">
        <ele>1882.4000244141</ele>
        <time>2013-01-25T12:42:47.000Z</time>
      </trkpt>
      <trkpt lat="45.7065" lon="6.1913">
        <ele>1883.1999511719</ele>
        <time>2013-01-25T12:42:55.000Z</time>
      </trkpt>
      <trkpt lat="45.70658" lon="6.19131">
        <ele>1883</ele>
        <time>2013-01-25T12:43:02.000Z</time>
      </trkpt>
      <trkpt lat="45.70667" lon="6.19133">
        <ele>1882.1999511719</ele>
        <time>2013-01-25T12:43:09.000Z</time>
      </trkpt>
      <trkpt lat="45.70676" lon="6.19135">
        <ele>1882</ele>
        <time>2013-01-25T12:43:15.000Z</time>
      </trkpt>
      <trkpt lat="45.70685" lon="6.19137">
        <ele>1882.5999755859</ele>
        <time>2013-01-25T12:43:23.000Z</time>
      </trkpt>
      <trkpt lat="45.70698" lon="6.19139">
        <ele>1882.4000244141</ele>
        <time>2013-01-25T12:43:33.000Z</time>
      </trkpt>
      <trkpt lat="45.70706" lon="6.19141">
        <ele>1882.1999511719</ele>
        <time>2013-01-25T12:43:39.000Z</time>
      </trkpt>
      <trkpt lat="45.70714" lon="6.19144">
        <ele>1882.1999511719</ele>
        <time>2013-01-25T12:43:45.000Z</time>
      </trkpt>
      <trkpt lat="45.70718" lon="6.19145">
        <ele>1883.1999511719</ele>
        <time>2013-01-25T12:43:49.000Z</time>
      </trkpt>
      <trkpt lat="45.70732" lon="6.19147">
        <ele>1883.1999511719</ele>
        <time>2013-01-25T12:43:59.000Z</time>
      </trkpt>
      <trkpt lat="45.70743" lon="6.19148">
        <ele>1882</ele>
        <time>2013-01-25T12:44:06.000Z</time>
      </trkpt>
      <trkpt lat="45.70744" lon="6.19148">
        <ele>1881.8000488281</ele>
        <time>2013-01-25T12:44:07.000Z</time>
      </trkpt>
      <trkpt lat="45.70752" lon="6.19147">
        <ele>1882.4000244141</ele>
        <time>2013-01-25T12:44:13.000Z</time>
      </trkpt>
      <trkpt lat="45.70761" lon="6.19144">
        <ele>1882.4000244141</ele>
        <time>2013-01-25T12:44:20.000Z</time>
      </trkpt>
      <trkpt lat="45.70771" lon="6.19142">
        <ele>1882.5999755859</ele>
        <time>2013-01-25T12:44:29.000Z</time>
      </trkpt>
      <trkpt lat="45.7078" lon="6.19138">
        <ele>1883.1999511719</ele>
        <time>2013-01-25T12:44:37.000Z</time>
      </trkpt>
      <trkpt lat="45.70781" lon="6.19137">
        <ele>1883</ele>
        <time>2013-01-25T12:44:38.000Z</time>
      </trkpt>
      <trkpt lat="45.7079" lon="6.19133">
        <ele>1885.1999511719</ele>
        <time>2013-01-25T12:44:47.000Z</time>
      </trkpt>
      <trkpt lat="45.70798" lon="6.1913">
        <ele>1885.4000244141</ele>
        <time>2013-01-25T12:44:55.000Z</time>
      </trkpt>
      <trkpt lat="45.70807" lon="6.19126">
        <ele>1888.1999511719</ele>
        <time>2013-01-25T12:45:04.000Z</time>
      </trkpt>
      <trkpt lat="45.70813" lon="6.19123">
        <ele>1890</ele>
        <time>2013-01-25T12:45:11.000Z</time>
      </trkpt>
      <trkpt lat="45.70819" lon="6.1912">
        <ele>1892</ele>
        <time>2013-01-25T12:45:19.000Z</time>
      </trkpt>
      <trkpt lat="45.70824" lon="6.19118">
        <ele>1894</ele>
        <time>2013-01-25T12:45:27.000Z</time>
      </trkpt>
      <trkpt lat="45.70825" lon="6.19118">
        <ele>1894</ele>
        <time>2013-01-25T12:45:28.000Z</time>
      </trkpt>
      <trkpt lat="45.70828" lon="6.19118">
        <ele>1896.1999511719</ele>
        <time>2013-01-25T12:45:33.000Z</time>
      </trkpt>
      <trkpt lat="45.70829" lon="6.19119">
        <ele>1897.4000244141</ele>
        <time>2013-01-25T12:45:35.000Z</time>
      </trkpt>
      <trkpt lat="45.70831" lon="6.19119">
        <ele>1897.5999755859</ele>
        <time>2013-01-25T12:45:37.000Z</time>
      </trkpt>
      <trkpt lat="45.70835" lon="6.19122">
        <ele>1896.1999511719</ele>
        <time>2013-01-25T12:45:45.000Z</time>
      </trkpt>
      <trkpt lat="45.70841" lon="6.19121">
        <ele>1897.8000488281</ele>
        <time>2013-01-25T12:47:56.000Z</time>
      </trkpt>
      <trkpt lat="45.7084" lon="6.19121">
        <ele>1895.8000488281</ele>
        <time>2013-01-25T12:48:56.000Z</time>
      </trkpt>
      <trkpt lat="45.70839" lon="6.19119">
        <ele>1899</ele>
        <time>2013-01-25T12:51:49.000Z</time>
      </trkpt>
      <trkpt lat="45.70839" lon="6.19119">
        <ele>1897.8000488281</ele>
        <time>2013-01-25T12:51:54.000Z</time>
      </trkpt>
      <trkpt lat="45.70839" lon="6.19119">
        <ele>1900.1999511719</ele>
        <time>2013-01-25T12:52:59.000Z</time>
      </trkpt>
      <trkpt lat="45.70839" lon="6.19119">
        <ele>1898</ele>
        <time>2013-01-25T12:53:03.000Z</time>
      </trkpt>
      <trkpt lat="45.70838" lon="6.1912">
        <ele>1897.1999511719</ele>
        <time>2013-01-25T12:54:11.000Z</time>
      </trkpt>
      <trkpt lat="45.70838" lon="6.1912">
        <ele>1897.4000244141</ele>
        <time>2013-01-25T12:54:48.000Z</time>
      </trkpt>
      <trkpt lat="45.70843" lon="6.1912">
        <ele>1897.1999511719</ele>
        <time>2013-01-25T12:54:54.000Z</time>
      </trkpt>
      <trkpt lat="45.70847" lon="6.19123">
        <ele>1896.8000488281</ele>
        <time>2013-01-25T12:54:58.000Z</time>
      </trkpt>
      <trkpt lat="45.70861" lon="6.19129">
        <ele>1896.1999511719</ele>
        <time>2013-01-25T12:55:06.000Z</time>
      </trkpt>
      <trkpt lat="45.70864" lon="6.1913">
        <ele>1896</ele>
        <time>2013-01-25T12:55:07.000Z</time>
      </trkpt>
      <trkpt lat="45.70869" lon="6.19123">
        <ele>1893.5999755859</ele>
        <time>2013-01-25T12:55:10.000Z</time>
      </trkpt>
      <trkpt lat="45.70877" lon="6.19114">
        <ele>1892.5999755859</ele>
        <time>2013-01-25T12:55:12.000Z</time>
      </trkpt>
      <trkpt lat="45.70883" lon="6.19113">
        <ele>1892.4000244141</ele>
        <time>2013-01-25T12:55:13.000Z</time>
      </trkpt>
      <trkpt lat="45.70888" lon="6.19114">
        <ele>1891.4000244141</ele>
        <time>2013-01-25T12:55:14.000Z</time>
      </trkpt>
      <trkpt lat="45.70898" lon="6.19114">
        <ele>1888.5999755859</ele>
        <time>2013-01-25T12:55:16.000Z</time>
      </trkpt>
      <trkpt lat="45.70902" lon="6.19099">
        <ele>1881.8000488281</ele>
        <time>2013-01-25T12:55:20.000Z</time>
      </trkpt>
      <trkpt lat="45.70909" lon="6.19097">
        <ele>1878</ele>
        <time>2013-01-25T12:55:22.000Z</time>
      </trkpt>
      <trkpt lat="45.70925" lon="6.19095">
        <ele>1874.4000244141</ele>
        <time>2013-01-25T12:55:26.000Z</time>
      </trkpt>
      <trkpt lat="45.70923" lon="6.19087">
        <ele>1871.5999755859</ele>
        <time>2013-01-25T12:55:29.000Z</time>
      </trkpt>
      <trkpt lat="45.70922" lon="6.19079">
        <ele>1868.1999511719</ele>
        <time>2013-01-25T12:55:32.000Z</time>
      </trkpt>
      <trkpt lat="45.70922" lon="6.19079">
        <ele>1868.1999511719</ele>
        <time>2013-01-25T12:55:33.000Z</time>
      </trkpt>
      <trkpt lat="45.70924" lon="6.19078">
        <ele>1867.8000488281</ele>
        <time>2013-01-25T12:55:34.000Z</time>
      </trkpt>
      <trkpt lat="45.70923" lon="6.19063">
        <ele>1862.8000488281</ele>
        <time>2013-01-25T12:55:38.000Z</time>
      </trkpt>
      <trkpt lat="45.70924" lon="6.19048">
        <ele>1858.5999755859</ele>
        <time>2013-01-25T12:55:41.000Z</time>
      </trkpt>
      <trkpt lat="45.70926" lon="6.19037">
        <ele>1857.5999755859</ele>
        <time>2013-01-25T12:55:43.000Z</time>
      </trkpt>
      <trkpt lat="45.70928" lon="6.19023">
        <ele>1853.4000244141</ele>
        <time>2013-01-25T12:55:46.000Z</time>
      </trkpt>
      <trkpt lat="45.7093" lon="6.19011">
        <ele>1844.8000488281</ele>
        <time>2013-01-25T12:55:48.000Z</time>
      </trkpt>
      <trkpt lat="45.7093" lon="6.19009">
        <ele>1833.5999755859</ele>
        <time>2013-01-25T12:55:50.000Z</time>
      </trkpt>
      <trkpt lat="45.70927" lon="6.19015">
        <ele>1831.5999755859</ele>
        <time>2013-01-25T12:55:54.000Z</time>
      </trkpt>
      <trkpt lat="45.70926" lon="6.19015">
        <ele>1830.4000244141</ele>
        <time>2013-01-25T12:55:56.000Z</time>
      </trkpt>
      <trkpt lat="45.70924" lon="6.19015">
        <ele>1832.4000244141</ele>
        <time>2013-01-25T12:55:59.000Z</time>
      </trkpt>
      <trkpt lat="45.70922" lon="6.19004">
        <ele>1831.1999511719</ele>
        <time>2013-01-25T12:56:03.000Z</time>
      </trkpt>
      <trkpt lat="45.70927" lon="6.18985">
        <ele>1832.8000488281</ele>
        <time>2013-01-25T12:56:06.000Z</time>
      </trkpt>
      <trkpt lat="45.70935" lon="6.18985">
        <ele>1831.5999755859</ele>
        <time>2013-01-25T12:56:08.000Z</time>
      </trkpt>
      <trkpt lat="45.70936" lon="6.18983">
        <ele>1823.4000244141</ele>
        <time>2013-01-25T12:56:11.000Z</time>
      </trkpt>
      <trkpt lat="45.70937" lon="6.18986">
        <ele>1819.4000244141</ele>
        <time>2013-01-25T12:56:14.000Z</time>
      </trkpt>
      <trkpt lat="45.70939" lon="6.1899">
        <ele>1819.4000244141</ele>
        <time>2013-01-25T12:56:22.000Z</time>
      </trkpt>
      <trkpt lat="45.70939" lon="6.18983">
        <ele>1817.5999755859</ele>
        <time>2013-01-25T12:56:26.000Z</time>
      </trkpt>
      <trkpt lat="45.70937" lon="6.18977">
        <ele>1815.4000244141</ele>
        <time>2013-01-25T12:56:28.000Z</time>
      </trkpt>
      <trkpt lat="45.70938" lon="6.18971">
        <ele>1811.5999755859</ele>
        <time>2013-01-25T12:56:32.000Z</time>
      </trkpt>
      <trkpt lat="45.70939" lon="6.18968">
        <ele>1811</ele>
        <time>2013-01-25T12:56:34.000Z</time>
      </trkpt>
      <trkpt lat="45.7094" lon="6.18958">
        <ele>1811.5999755859</ele>
        <time>2013-01-25T12:56:37.000Z</time>
      </trkpt>
      <trkpt lat="45.70941" lon="6.18957">
        <ele>1807.8000488281</ele>
        <time>2013-01-25T12:56:40.000Z</time>
      </trkpt>
      <trkpt lat="45.70947" lon="6.1895">
        <ele>1807</ele>
        <time>2013-01-25T12:56:44.000Z</time>
      </trkpt>
      <trkpt lat="45.70956" lon="6.18936">
        <ele>1801.8000488281</ele>
        <time>2013-01-25T12:56:49.000Z</time>
      </trkpt>
      <trkpt lat="45.70961" lon="6.18924">
        <ele>1791.8000488281</ele>
        <time>2013-01-25T12:56:52.000Z</time>
      </trkpt>
      <trkpt lat="45.70965" lon="6.18925">
        <ele>1787</ele>
        <time>2013-01-25T12:56:55.000Z</time>
      </trkpt>
      <trkpt lat="45.70965" lon="6.18927">
        <ele>1786.4000244141</ele>
        <time>2013-01-25T12:57:00.000Z</time>
      </trkpt>
      <trkpt lat="45.7097" lon="6.18933">
        <ele>1784.8000488281</ele>
        <time>2013-01-25T12:57:05.000Z</time>
      </trkpt>
      <trkpt lat="45.70974" lon="6.18936">
        <ele>1784.1999511719</ele>
        <time>2013-01-25T12:57:09.000Z</time>
      </trkpt>
      <trkpt lat="45.70983" lon="6.18941">
        <ele>1784.4000244141</ele>
        <time>2013-01-25T12:57:13.000Z</time>
      </trkpt>
      <trkpt lat="45.70985" lon="6.18945">
        <ele>1783.8000488281</ele>
        <time>2013-01-25T12:57:16.000Z</time>
      </trkpt>
      <trkpt lat="45.70988" lon="6.18945">
        <ele>1783.5999755859</ele>
        <time>2013-01-25T12:57:18.000Z</time>
      </trkpt>
      <trkpt lat="45.70989" lon="6.18941">
        <ele>1778.8000488281</ele>
        <time>2013-01-25T12:57:22.000Z</time>
      </trkpt>
      <trkpt lat="45.70989" lon="6.1894">
        <ele>1774.4000244141</ele>
        <time>2013-01-25T12:57:25.000Z</time>
      </trkpt>
      <trkpt lat="45.70989" lon="6.18929">
        <ele>1772.1999511719</ele>
        <time>2013-01-25T12:57:45.000Z</time>
      </trkpt>
      <trkpt lat="45.70988" lon="6.1893">
        <ele>1776.4000244141</ele>
        <time>2013-01-25T12:57:51.000Z</time>
      </trkpt>
      <trkpt lat="45.70988" lon="6.18929">
        <ele>1774.4000244141</ele>
        <time>2013-01-25T12:57:55.000Z</time>
      </trkpt>
      <trkpt lat="45.70988" lon="6.18932">
        <ele>1771</ele>
        <time>2013-01-25T12:58:05.000Z</time>
      </trkpt>
      <trkpt lat="45.70985" lon="6.18944">
        <ele>1776.5999755859</ele>
        <time>2013-01-25T12:58:11.000Z</time>
      </trkpt>
      <trkpt lat="45.70985" lon="6.18942">
        <ele>1774.4000244141</ele>
        <time>2013-01-25T12:58:15.000Z</time>
      </trkpt>
      <trkpt lat="45.70985" lon="6.18945">
        <ele>1772.5999755859</ele>
        <time>2013-01-25T12:58:18.000Z</time>
      </trkpt>
      <trkpt lat="45.70986" lon="6.18939">
        <ele>1774.5999755859</ele>
        <time>2013-01-25T12:58:25.000Z</time>
      </trkpt>
      <trkpt lat="45.70987" lon="6.18917">
        <ele>1774</ele>
        <time>2013-01-25T12:58:49.000Z</time>
      </trkpt>
      <trkpt lat="45.70987" lon="6.18917">
        <ele>1773.5999755859</ele>
        <time>2013-01-25T12:58:50.000Z</time>
      </trkpt>
      <trkpt lat="45.70995" lon="6.18918">
        <ele>1772.8000488281</ele>
        <time>2013-01-25T12:58:54.000Z</time>
      </trkpt>
      <trkpt lat="45.71001" lon="6.18917">
        <ele>1770.4000244141</ele>
        <time>2013-01-25T12:58:57.000Z</time>
      </trkpt>
      <trkpt lat="45.71004" lon="6.18916">
        <ele>1769.4000244141</ele>
        <time>2013-01-25T12:58:58.000Z</time>
      </trkpt>
      <trkpt lat="45.71011" lon="6.18914">
        <ele>1768.5999755859</ele>
        <time>2013-01-25T12:59:00.000Z</time>
      </trkpt>
      <trkpt lat="45.71018" lon="6.18909">
        <ele>1766.5999755859</ele>
        <time>2013-01-25T12:59:03.000Z</time>
      </trkpt>
      <trkpt lat="45.71022" lon="6.18908">
        <ele>1763</ele>
        <time>2013-01-25T12:59:04.000Z</time>
      </trkpt>
      <trkpt lat="45.71024" lon="6.18904">
        <ele>1758</ele>
        <time>2013-01-25T12:59:09.000Z</time>
      </trkpt>
      <trkpt lat="45.71025" lon="6.18906">
        <ele>1755</ele>
        <time>2013-01-25T12:59:12.000Z</time>
      </trkpt>
      <trkpt lat="45.71024" lon="6.18912">
        <ele>1755</ele>
        <time>2013-01-25T12:59:19.000Z</time>
      </trkpt>
      <trkpt lat="45.71025" lon="6.18911">
        <ele>1755</ele>
        <time>2013-01-25T12:59:34.000Z</time>
      </trkpt>
      <trkpt lat="45.71028" lon="6.18909">
        <ele>1755.1999511719</ele>
        <time>2013-01-25T12:59:38.000Z</time>
      </trkpt>
      <trkpt lat="45.71043" lon="6.18901">
        <ele>1751.8000488281</ele>
        <time>2013-01-25T12:59:42.000Z</time>
      </trkpt>
      <trkpt lat="45.71062" lon="6.18904">
        <ele>1748</ele>
        <time>2013-01-25T12:59:48.000Z</time>
      </trkpt>
      <trkpt lat="45.71072" lon="6.18903">
        <ele>1744</ele>
        <time>2013-01-25T12:59:51.000Z</time>
      </trkpt>
      <trkpt lat="45.71074" lon="6.18902">
        <ele>1743.8000488281</ele>
        <time>2013-01-25T12:59:52.000Z</time>
      </trkpt>
      <trkpt lat="45.71084" lon="6.18896">
        <ele>1740</ele>
        <time>2013-01-25T12:59:56.000Z</time>
      </trkpt>
      <trkpt lat="45.71088" lon="6.18891">
        <ele>1735.5999755859</ele>
        <time>2013-01-25T12:59:59.000Z</time>
      </trkpt>
      <trkpt lat="45.71089" lon="6.18891">
        <ele>1735.5999755859</ele>
        <time>2013-01-25T13:00:01.000Z</time>
      </trkpt>
      <trkpt lat="45.71093" lon="6.18898">
        <ele>1735</ele>
        <time>2013-01-25T13:00:06.000Z</time>
      </trkpt>
      <trkpt lat="45.71099" lon="6.18898">
        <ele>1733.8000488281</ele>
        <time>2013-01-25T13:00:12.000Z</time>
      </trkpt>
      <trkpt lat="45.71106" lon="6.18893">
        <ele>1731.1999511719</ele>
        <time>2013-01-25T13:00:15.000Z</time>
      </trkpt>
      <trkpt lat="45.71107" lon="6.18891">
        <ele>1729.5999755859</ele>
        <time>2013-01-25T13:00:20.000Z</time>
      </trkpt>
      <trkpt lat="45.71107" lon="6.18891">
        <ele>1729.5999755859</ele>
        <time>2013-01-25T13:00:22.000Z</time>
      </trkpt>
      <trkpt lat="45.71106" lon="6.18884">
        <ele>1728.4000244141</ele>
        <time>2013-01-25T13:00:25.000Z</time>
      </trkpt>
      <trkpt lat="45.71099" lon="6.18885">
        <ele>1723.8000488281</ele>
        <time>2013-01-25T13:00:29.000Z</time>
      </trkpt>
      <trkpt lat="45.71099" lon="6.18885">
        <ele>1723.4000244141</ele>
        <time>2013-01-25T13:00:30.000Z</time>
      </trkpt>
      <trkpt lat="45.71104" lon="6.18879">
        <ele>1723.8000488281</ele>
        <time>2013-01-25T13:00:35.000Z</time>
      </trkpt>
      <trkpt lat="45.71115" lon="6.18869">
        <ele>1722</ele>
        <time>2013-01-25T13:00:41.000Z</time>
      </trkpt>
      <trkpt lat="45.71123" lon="6.18862">
        <ele>1711.5999755859</ele>
        <time>2013-01-25T13:00:45.000Z</time>
      </trkpt>
      <trkpt lat="45.71125" lon="6.18862">
        <ele>1711.5999755859</ele>
        <time>2013-01-25T13:00:46.000Z</time>
      </trkpt>
      <trkpt lat="45.71131" lon="6.18855">
        <ele>1711.4000244141</ele>
        <time>2013-01-25T13:00:50.000Z</time>
      </trkpt>
      <trkpt lat="45.71132" lon="6.18854">
        <ele>1708.5999755859</ele>
        <time>2013-01-25T13:00:54.000Z</time>
      </trkpt>
      <trkpt lat="45.71132" lon="6.18854">
        <ele>1707.1999511719</ele>
        <time>2013-01-25T13:01:06.000Z</time>
      </trkpt>
      <trkpt lat="45.71131" lon="6.18855">
        <ele>1707.4000244141</ele>
        <time>2013-01-25T13:01:23.000Z</time>
      </trkpt>
      <trkpt lat="45.71124" lon="6.1885">
        <ele>1704.4000244141</ele>
        <time>2013-01-25T13:01:28.000Z</time>
      </trkpt>
      <trkpt lat="45.71124" lon="6.1885">
        <ele>1704.1999511719</ele>
        <time>2013-01-25T13:01:29.000Z</time>
      </trkpt>
      <trkpt lat="45.71125" lon="6.18839">
        <ele>1703.4000244141</ele>
        <time>2013-01-25T13:01:55.000Z</time>
      </trkpt>
      <trkpt lat="45.71124" lon="6.18838">
        <ele>1703.4000244141</ele>
        <time>2013-01-25T13:01:57.000Z</time>
      </trkpt>
      <trkpt lat="45.7112" lon="6.18825">
        <ele>1703.8000488281</ele>
        <time>2013-01-25T13:02:01.000Z</time>
      </trkpt>
      <trkpt lat="45.71119" lon="6.18813">
        <ele>1698.5999755859</ele>
        <time>2013-01-25T13:02:04.000Z</time>
      </trkpt>
      <trkpt lat="45.71124" lon="6.18801">
        <ele>1688.8000488281</ele>
        <time>2013-01-25T13:02:09.000Z</time>
      </trkpt>
      <trkpt lat="45.71125" lon="6.18805">
        <ele>1684.5999755859</ele>
        <time>2013-01-25T13:02:14.000Z</time>
      </trkpt>
      <trkpt lat="45.71125" lon="6.18806">
        <ele>1684.4000244141</ele>
        <time>2013-01-25T13:02:15.000Z</time>
      </trkpt>
      <trkpt lat="45.7113" lon="6.18811">
        <ele>1683.4000244141</ele>
        <time>2013-01-25T13:02:45.000Z</time>
      </trkpt>
      <trkpt lat="45.71133" lon="6.1881">
        <ele>1683.4000244141</ele>
        <time>2013-01-25T13:02:55.000Z</time>
      </trkpt>
      <trkpt lat="45.71133" lon="6.18811">
        <ele>1683.8000488281</ele>
        <time>2013-01-25T13:03:30.000Z</time>
      </trkpt>
      <trkpt lat="45.7114" lon="6.18806">
        <ele>1681.5999755859</ele>
        <time>2013-01-25T13:03:35.000Z</time>
      </trkpt>
      <trkpt lat="45.71139" lon="6.1881">
        <ele>1680.8000488281</ele>
        <time>2013-01-25T13:03:57.000Z</time>
      </trkpt>
      <trkpt lat="45.71138" lon="6.1881">
        <ele>1681</ele>
        <time>2013-01-25T13:04:00.000Z</time>
      </trkpt>
      <trkpt lat="45.71127" lon="6.1881">
        <ele>1680</ele>
        <time>2013-01-25T13:04:08.000Z</time>
      </trkpt>
      <trkpt lat="45.71122" lon="6.18809">
        <ele>1679.4000244141</ele>
        <time>2013-01-25T13:04:15.000Z</time>
      </trkpt>
      <trkpt lat="45.71118" lon="6.1881">
        <ele>1679.1999511719</ele>
        <time>2013-01-25T13:04:20.000Z</time>
      </trkpt>
      <trkpt lat="45.71114" lon="6.18803">
        <ele>1679.4000244141</ele>
        <time>2013-01-25T13:05:15.000Z</time>
      </trkpt>
      <trkpt lat="45.71104" lon="6.18802">
        <ele>1678.5999755859</ele>
        <time>2013-01-25T13:05:21.000Z</time>
      </trkpt>
      <trkpt lat="45.71092" lon="6.18801">
        <ele>1677</ele>
        <time>2013-01-25T13:05:25.000Z</time>
      </trkpt>
      <trkpt lat="45.71083" lon="6.18801">
        <ele>1675.8000488281</ele>
        <time>2013-01-25T13:05:30.000Z</time>
      </trkpt>
      <trkpt lat="45.7107" lon="6.18802">
        <ele>1674</ele>
        <time>2013-01-25T13:05:37.000Z</time>
      </trkpt>
      <trkpt lat="45.71064" lon="6.18804">
        <ele>1673.1999511719</ele>
        <time>2013-01-25T13:05:43.000Z</time>
      </trkpt>
      <trkpt lat="45.71053" lon="6.18803">
        <ele>1671.5999755859</ele>
        <time>2013-01-25T13:05:49.000Z</time>
      </trkpt>
      <trkpt lat="45.71047" lon="6.18804">
        <ele>1669.5999755859</ele>
        <time>2013-01-25T13:05:51.000Z</time>
      </trkpt>
      <trkpt lat="45.7103" lon="6.18804">
        <ele>1664.5999755859</ele>
        <time>2013-01-25T13:05:55.000Z</time>
      </trkpt>
      <trkpt lat="45.71014" lon="6.18806">
        <ele>1658.5999755859</ele>
        <time>2013-01-25T13:05:59.000Z</time>
      </trkpt>
      <trkpt lat="45.71012" lon="6.18808">
        <ele>1656.8000488281</ele>
        <time>2013-01-25T13:06:02.000Z</time>
      </trkpt>
      <trkpt lat="45.71012" lon="6.18807">
        <ele>1656.4000244141</ele>
        <time>2013-01-25T13:06:05.000Z</time>
      </trkpt>
      <trkpt lat="45.71021" lon="6.18794">
        <ele>1656.4000244141</ele>
        <time>2013-01-25T13:06:09.000Z</time>
      </trkpt>
      <trkpt lat="45.71032" lon="6.18779">
        <ele>1649.1999511719</ele>
        <time>2013-01-25T13:06:13.000Z</time>
      </trkpt>
      <trkpt lat="45.71034" lon="6.18774">
        <ele>1648</ele>
        <time>2013-01-25T13:06:15.000Z</time>
      </trkpt>
      <trkpt lat="45.71026" lon="6.18765">
        <ele>1644.5999755859</ele>
        <time>2013-01-25T13:06:19.000Z</time>
      </trkpt>
      <trkpt lat="45.71024" lon="6.18767">
        <ele>1642.8000488281</ele>
        <time>2013-01-25T13:06:20.000Z</time>
      </trkpt>
      <trkpt lat="45.71017" lon="6.18771">
        <ele>1639</ele>
        <time>2013-01-25T13:06:27.000Z</time>
      </trkpt>
      <trkpt lat="45.71016" lon="6.1877">
        <ele>1639.1999511719</ele>
        <time>2013-01-25T13:06:37.000Z</time>
      </trkpt>
      <trkpt lat="45.71005" lon="6.18774">
        <ele>1636.8000488281</ele>
        <time>2013-01-25T13:06:42.000Z</time>
      </trkpt>
      <trkpt lat="45.71003" lon="6.18776">
        <ele>1636</ele>
        <time>2013-01-25T13:06:43.000Z</time>
      </trkpt>
      <trkpt lat="45.71" lon="6.18778">
        <ele>1634.1999511719</ele>
        <time>2013-01-25T13:06:46.000Z</time>
      </trkpt>
      <trkpt lat="45.71002" lon="6.18771">
        <ele>1630.8000488281</ele>
        <time>2013-01-25T13:06:51.000Z</time>
      </trkpt>
      <trkpt lat="45.71003" lon="6.1877">
        <ele>1630</ele>
        <time>2013-01-25T13:07:05.000Z</time>
      </trkpt>
      <trkpt lat="45.70999" lon="6.18764">
        <ele>1628.1999511719</ele>
        <time>2013-01-25T13:07:09.000Z</time>
      </trkpt>
      <trkpt lat="45.70999" lon="6.1876">
        <ele>1627.5999755859</ele>
        <time>2013-01-25T13:07:10.000Z</time>
      </trkpt>
      <trkpt lat="45.70996" lon="6.18749">
        <ele>1626.8000488281</ele>
        <time>2013-01-25T13:07:13.000Z</time>
      </trkpt>
      <trkpt lat="45.70992" lon="6.18736">
        <ele>1624.1999511719</ele>
        <time>2013-01-25T13:07:17.000Z</time>
      </trkpt>
      <trkpt lat="45.70988" lon="6.18742">
        <ele>1615.4000244141</ele>
        <time>2013-01-25T13:07:20.000Z</time>
      </trkpt>
      <trkpt lat="45.70983" lon="6.18747">
        <ele>1612.1999511719</ele>
        <time>2013-01-25T13:07:27.000Z</time>
      </trkpt>
      <trkpt lat="45.70981" lon="6.18747">
        <ele>1612.1999511719</ele>
        <time>2013-01-25T13:07:31.000Z</time>
      </trkpt>
      <trkpt lat="45.70975" lon="6.18744">
        <ele>1611</ele>
        <time>2013-01-25T13:07:35.000Z</time>
      </trkpt>
      <trkpt lat="45.70968" lon="6.18738">
        <ele>1607.8000488281</ele>
        <time>2013-01-25T13:07:40.000Z</time>
      </trkpt>
      <trkpt lat="45.70967" lon="6.18737">
        <ele>1607.4000244141</ele>
        <time>2013-01-25T13:07:41.000Z</time>
      </trkpt>
      <trkpt lat="45.70966" lon="6.18729">
        <ele>1604.5999755859</ele>
        <time>2013-01-25T13:07:45.000Z</time>
      </trkpt>
      <trkpt lat="45.70962" lon="6.18729">
        <ele>1601.8000488281</ele>
        <time>2013-01-25T13:07:48.000Z</time>
      </trkpt>
      <trkpt lat="45.70961" lon="6.18736">
        <ele>1601.4000244141</ele>
        <time>2013-01-25T13:07:56.000Z</time>
      </trkpt>
      <trkpt lat="45.70961" lon="6.18728">
        <ele>1601.5999755859</ele>
        <time>2013-01-25T13:08:00.000Z</time>
      </trkpt>
      <trkpt lat="45.70957" lon="6.18716">
        <ele>1598.4000244141</ele>
        <time>2013-01-25T13:08:03.000Z</time>
      </trkpt>
      <trkpt lat="45.70954" lon="6.18707">
        <ele>1590.5999755859</ele>
        <time>2013-01-25T13:08:06.000Z</time>
      </trkpt>
      <trkpt lat="45.7095" lon="6.18702">
        <ele>1588.4000244141</ele>
        <time>2013-01-25T13:08:08.000Z</time>
      </trkpt>
      <trkpt lat="45.70955" lon="6.18692">
        <ele>1583.5999755859</ele>
        <time>2013-01-25T13:08:11.000Z</time>
      </trkpt>
      <trkpt lat="45.70951" lon="6.18682">
        <ele>1579.4000244141</ele>
        <time>2013-01-25T13:08:14.000Z</time>
      </trkpt>
      <trkpt lat="45.70948" lon="6.18669">
        <ele>1574.1999511719</ele>
        <time>2013-01-25T13:08:18.000Z</time>
      </trkpt>
      <trkpt lat="45.70937" lon="6.1866">
        <ele>1570</ele>
        <time>2013-01-25T13:08:21.000Z</time>
      </trkpt>
      <trkpt lat="45.7093" lon="6.18658">
        <ele>1565.4000244141</ele>
        <time>2013-01-25T13:08:28.000Z</time>
      </trkpt>
      <trkpt lat="45.70929" lon="6.18654">
        <ele>1565.4000244141</ele>
        <time>2013-01-25T13:08:32.000Z</time>
      </trkpt>
      <trkpt lat="45.70928" lon="6.18645">
        <ele>1563.4000244141</ele>
        <time>2013-01-25T13:08:36.000Z</time>
      </trkpt>
      <trkpt lat="45.70926" lon="6.18631">
        <ele>1559</ele>
        <time>2013-01-25T13:08:39.000Z</time>
      </trkpt>
      <trkpt lat="45.70928" lon="6.1862">
        <ele>1557.4000244141</ele>
        <time>2013-01-25T13:08:41.000Z</time>
      </trkpt>
      <trkpt lat="45.70929" lon="6.18596">
        <ele>1550.1999511719</ele>
        <time>2013-01-25T13:08:45.000Z</time>
      </trkpt>
      <trkpt lat="45.70929" lon="6.1859">
        <ele>1547.5999755859</ele>
        <time>2013-01-25T13:08:46.000Z</time>
      </trkpt>
      <trkpt lat="45.70929" lon="6.18575">
        <ele>1541.5999755859</ele>
        <time>2013-01-25T13:08:49.000Z</time>
      </trkpt>
      <trkpt lat="45.70928" lon="6.18553">
        <ele>1526.1999511719</ele>
        <time>2013-01-25T13:08:52.000Z</time>
      </trkpt>
      <trkpt lat="45.70938" lon="6.1854">
        <ele>1519.1999511719</ele>
        <time>2013-01-25T13:08:55.000Z</time>
      </trkpt>
      <trkpt lat="45.70931" lon="6.18502">
        <ele>1506.1999511719</ele>
        <time>2013-01-25T13:09:00.000Z</time>
      </trkpt>
      <trkpt lat="45.70937" lon="6.18489">
        <ele>1501.8000488281</ele>
        <time>2013-01-25T13:09:02.000Z</time>
      </trkpt>
      <trkpt lat="45.70936" lon="6.18472">
        <ele>1496</ele>
        <time>2013-01-25T13:09:05.000Z</time>
      </trkpt>
      <trkpt lat="45.70936" lon="6.18467">
        <ele>1494</ele>
        <time>2013-01-25T13:09:07.000Z</time>
      </trkpt>
      <trkpt lat="45.70937" lon="6.1847">
        <ele>1489</ele>
        <time>2013-01-25T13:09:12.000Z</time>
      </trkpt>
      <trkpt lat="45.70938" lon="6.18471">
        <ele>1488.5999755859</ele>
        <time>2013-01-25T13:09:19.000Z</time>
      </trkpt>
      <trkpt lat="45.70939" lon="6.1847">
        <ele>1486.8000488281</ele>
        <time>2013-01-25T13:09:23.000Z</time>
      </trkpt>
      <trkpt lat="45.70936" lon="6.18461">
        <ele>1480.8000488281</ele>
        <time>2013-01-25T13:09:27.000Z</time>
      </trkpt>
      <trkpt lat="45.70935" lon="6.1846">
        <ele>1481.1999511719</ele>
        <time>2013-01-25T13:09:28.000Z</time>
      </trkpt>
      <trkpt lat="45.70935" lon="6.18459">
        <ele>1483.8000488281</ele>
        <time>2013-01-25T13:09:32.000Z</time>
      </trkpt>
      <trkpt lat="45.70933" lon="6.18458">
        <ele>1484</ele>
        <time>2013-01-25T13:09:40.000Z</time>
      </trkpt>
      <trkpt lat="45.70929" lon="6.18447">
        <ele>1481.5999755859</ele>
        <time>2013-01-25T13:09:45.000Z</time>
      </trkpt>
      <trkpt lat="45.70938" lon="6.18438">
        <ele>1477.4000244141</ele>
        <time>2013-01-25T13:09:48.000Z</time>
      </trkpt>
      <trkpt lat="45.70934" lon="6.1843">
        <ele>1475.5999755859</ele>
        <time>2013-01-25T13:09:50.000Z</time>
      </trkpt>
      <trkpt lat="45.70925" lon="6.18416">
        <ele>1470.5999755859</ele>
        <time>2013-01-25T13:09:54.000Z</time>
      </trkpt>
      <trkpt lat="45.7093" lon="6.18411">
        <ele>1470.4000244141</ele>
        <time>2013-01-25T13:09:57.000Z</time>
      </trkpt>
      <trkpt lat="45.70935" lon="6.18408">
        <ele>1468.8000488281</ele>
        <time>2013-01-25T13:09:59.000Z</time>
      </trkpt>
      <trkpt lat="45.70937" lon="6.18398">
        <ele>1465.4000244141</ele>
        <time>2013-01-25T13:10:01.000Z</time>
      </trkpt>
      <trkpt lat="45.70936" lon="6.18381">
        <ele>1461.8000488281</ele>
        <time>2013-01-25T13:10:04.000Z</time>
      </trkpt>
      <trkpt lat="45.70932" lon="6.18363">
        <ele>1455</ele>
        <time>2013-01-25T13:10:08.000Z</time>
      </trkpt>
      <trkpt lat="45.70939" lon="6.18355">
        <ele>1446.5999755859</ele>
        <time>2013-01-25T13:10:11.000Z</time>
      </trkpt>
      <trkpt lat="45.7094" lon="6.18346">
        <ele>1443.4000244141</ele>
        <time>2013-01-25T13:10:14.000Z</time>
      </trkpt>
      <trkpt lat="45.70936" lon="6.18343">
        <ele>1441.5999755859</ele>
        <time>2013-01-25T13:10:21.000Z</time>
      </trkpt>
      <trkpt lat="45.70935" lon="6.18342">
        <ele>1441.4000244141</ele>
        <time>2013-01-25T13:10:24.000Z</time>
      </trkpt>
      <trkpt lat="45.70927" lon="6.18336">
        <ele>1440.4000244141</ele>
        <time>2013-01-25T13:10:28.000Z</time>
      </trkpt>
      <trkpt lat="45.70924" lon="6.18332">
        <ele>1438.8000488281</ele>
        <time>2013-01-25T13:10:31.000Z</time>
      </trkpt>
      <trkpt lat="45.70925" lon="6.18329">
        <ele>1438.4000244141</ele>
        <time>2013-01-25T13:10:34.000Z</time>
      </trkpt>
      <trkpt lat="45.70929" lon="6.18326">
        <ele>1437</ele>
        <time>2013-01-25T13:10:36.000Z</time>
      </trkpt>
      <trkpt lat="45.7094" lon="6.18322">
        <ele>1434.8000488281</ele>
        <time>2013-01-25T13:10:41.000Z</time>
      </trkpt>
      <trkpt lat="45.70939" lon="6.18311">
        <ele>1433</ele>
        <time>2013-01-25T13:10:45.000Z</time>
      </trkpt>
      <trkpt lat="45.70939" lon="6.18296">
        <ele>1430</ele>
        <time>2013-01-25T13:10:48.000Z</time>
      </trkpt>
      <trkpt lat="45.70935" lon="6.18284">
        <ele>1425.8000488281</ele>
        <time>2013-01-25T13:10:51.000Z</time>
      </trkpt>
      <trkpt lat="45.70932" lon="6.18283">
        <ele>1421.8000488281</ele>
        <time>2013-01-25T13:10:54.000Z</time>
      </trkpt>
      <trkpt lat="45.70931" lon="6.18282">
        <ele>1421.5999755859</ele>
        <time>2013-01-25T13:10:55.000Z</time>
      </trkpt>
      <trkpt lat="45.70931" lon="6.18281">
        <ele>1420.8000488281</ele>
        <time>2013-01-25T13:10:56.000Z</time>
      </trkpt>
      <trkpt lat="45.70933" lon="6.1827">
        <ele>1418</ele>
        <time>2013-01-25T13:11:01.000Z</time>
      </trkpt>
      <trkpt lat="45.70933" lon="6.18261">
        <ele>1414.8000488281</ele>
        <time>2013-01-25T13:11:05.000Z</time>
      </trkpt>
      <trkpt lat="45.70928" lon="6.18258">
        <ele>1411.1999511719</ele>
        <time>2013-01-25T13:11:08.000Z</time>
      </trkpt>
      <trkpt lat="45.70925" lon="6.18252">
        <ele>1412.5999755859</ele>
        <time>2013-01-25T13:11:11.000Z</time>
      </trkpt>
      <trkpt lat="45.70926" lon="6.18235">
        <ele>1411.8000488281</ele>
        <time>2013-01-25T13:11:14.000Z</time>
      </trkpt>
      <trkpt lat="45.70922" lon="6.18233">
        <ele>1406.8000488281</ele>
        <time>2013-01-25T13:11:17.000Z</time>
      </trkpt>
      <trkpt lat="45.7092" lon="6.18233">
        <ele>1403.8000488281</ele>
        <time>2013-01-25T13:11:20.000Z</time>
      </trkpt>
      <trkpt lat="45.7092" lon="6.18229">
        <ele>1404.1999511719</ele>
        <time>2013-01-25T13:11:57.000Z</time>
      </trkpt>
      <trkpt lat="45.70918" lon="6.18226">
        <ele>1403.5999755859</ele>
        <time>2013-01-25T13:12:00.000Z</time>
      </trkpt>
      <trkpt lat="45.70918" lon="6.18223">
        <ele>1402</ele>
        <time>2013-01-25T13:12:02.000Z</time>
      </trkpt>
      <trkpt lat="45.7092" lon="6.18214">
        <ele>1400.5999755859</ele>
        <time>2013-01-25T13:12:06.000Z</time>
      </trkpt>
      <trkpt lat="45.70922" lon="6.18201">
        <ele>1400</ele>
        <time>2013-01-25T13:12:09.000Z</time>
      </trkpt>
      <trkpt lat="45.70922" lon="6.18198">
        <ele>1399</ele>
        <time>2013-01-25T13:12:12.000Z</time>
      </trkpt>
      <trkpt lat="45.70922" lon="6.18188">
        <ele>1391.1999511719</ele>
        <time>2013-01-25T13:12:16.000Z</time>
      </trkpt>
      <trkpt lat="45.70922" lon="6.18188">
        <ele>1391</ele>
        <time>2013-01-25T13:12:17.000Z</time>
      </trkpt>
      <trkpt lat="45.70926" lon="6.18181">
        <ele>1388.8000488281</ele>
        <time>2013-01-25T13:12:24.000Z</time>
      </trkpt>
      <trkpt lat="45.70924" lon="6.18177">
        <ele>1387</ele>
        <time>2013-01-25T13:12:28.000Z</time>
      </trkpt>
      <trkpt lat="45.70923" lon="6.18177">
        <ele>1385.5999755859</ele>
        <time>2013-01-25T13:12:30.000Z</time>
      </trkpt>
      <trkpt lat="45.7092" lon="6.18175">
        <ele>1385</ele>
        <time>2013-01-25T13:12:34.000Z</time>
      </trkpt>
      <trkpt lat="45.7092" lon="6.18168">
        <ele>1384</ele>
        <time>2013-01-25T13:12:38.000Z</time>
      </trkpt>
      <trkpt lat="45.70919" lon="6.18168">
        <ele>1380.4000244141</ele>
        <time>2013-01-25T13:12:43.000Z</time>
      </trkpt>
      <trkpt lat="45.70918" lon="6.18165">
        <ele>1379.5999755859</ele>
        <time>2013-01-25T13:12:47.000Z</time>
      </trkpt>
      <trkpt lat="45.70915" lon="6.18162">
        <ele>1380</ele>
        <time>2013-01-25T13:13:28.000Z</time>
      </trkpt>
      <trkpt lat="45.70916" lon="6.18162">
        <ele>1379.8000488281</ele>
        <time>2013-01-25T13:13:35.000Z</time>
      </trkpt>
      <trkpt lat="45.70915" lon="6.18156">
        <ele>1378.4000244141</ele>
        <time>2013-01-25T13:13:39.000Z</time>
      </trkpt>
      <trkpt lat="45.70912" lon="6.18154">
        <ele>1376.1999511719</ele>
        <time>2013-01-25T13:13:42.000Z</time>
      </trkpt>
      <trkpt lat="45.70911" lon="6.18152">
        <ele>1376.1999511719</ele>
        <time>2013-01-25T13:13:46.000Z</time>
      </trkpt>
      <trkpt lat="45.70907" lon="6.18153">
        <ele>1375.1999511719</ele>
        <time>2013-01-25T13:13:52.000Z</time>
      </trkpt>
      <trkpt lat="45.709" lon="6.18154">
        <ele>1374.5999755859</ele>
        <time>2013-01-25T13:13:58.000Z</time>
      </trkpt>
      <trkpt lat="45.70896" lon="6.18154">
        <ele>1374.4000244141</ele>
        <time>2013-01-25T13:14:04.000Z</time>
      </trkpt>
      <trkpt lat="45.70891" lon="6.18155">
        <ele>1374</ele>
        <time>2013-01-25T13:14:15.000Z</time>
      </trkpt>
      <trkpt lat="45.70887" lon="6.18154">
        <ele>1374.1999511719</ele>
        <time>2013-01-25T13:14:23.000Z</time>
      </trkpt>
      <trkpt lat="45.70881" lon="6.18151">
        <ele>1373.5999755859</ele>
        <time>2013-01-25T13:14:29.000Z</time>
      </trkpt>
      <trkpt lat="45.70875" lon="6.1815">
        <ele>1372.8000488281</ele>
        <time>2013-01-25T13:14:32.000Z</time>
      </trkpt>
      <trkpt lat="45.70869" lon="6.18146">
        <ele>1371.4000244141</ele>
        <time>2013-01-25T13:14:35.000Z</time>
      </trkpt>
      <trkpt lat="45.70859" lon="6.18143">
        <ele>1369.5999755859</ele>
        <time>2013-01-25T13:14:40.000Z</time>
      </trkpt>
      <trkpt lat="45.70855" lon="6.18134">
        <ele>1371.8000488281</ele>
        <time>2013-01-25T13:14:44.000Z</time>
      </trkpt>
      <trkpt lat="45.70854" lon="6.18123">
        <ele>1371.8000488281</ele>
        <time>2013-01-25T13:14:48.000Z</time>
      </trkpt>
      <trkpt lat="45.70848" lon="6.18109">
        <ele>1358.8000488281</ele>
        <time>2013-01-25T13:14:52.000Z</time>
      </trkpt>
      <trkpt lat="45.70842" lon="6.18102">
        <ele>1353</ele>
        <time>2013-01-25T13:14:57.000Z</time>
      </trkpt>
      <trkpt lat="45.70842" lon="6.181">
        <ele>1352.1999511719</ele>
        <time>2013-01-25T13:14:59.000Z</time>
      </trkpt>
      <trkpt lat="45.7084" lon="6.181">
        <ele>1352.1999511719</ele>
        <time>2013-01-25T13:15:01.000Z</time>
      </trkpt>
      <trkpt lat="45.7084" lon="6.18092">
        <ele>1351.1999511719</ele>
        <time>2013-01-25T13:15:06.000Z</time>
      </trkpt>
      <trkpt lat="45.70841" lon="6.18088">
        <ele>1350.5999755859</ele>
        <time>2013-01-25T13:15:07.000Z</time>
      </trkpt>
      <trkpt lat="45.70843" lon="6.1808">
        <ele>1349</ele>
        <time>2013-01-25T13:15:09.000Z</time>
      </trkpt>
      <trkpt lat="45.70836" lon="6.18068">
        <ele>1344.1999511719</ele>
        <time>2013-01-25T13:15:14.000Z</time>
      </trkpt>
      <trkpt lat="45.70827" lon="6.1805">
        <ele>1339.8000488281</ele>
        <time>2013-01-25T13:15:19.000Z</time>
      </trkpt>
      <trkpt lat="45.70828" lon="6.18041">
        <ele>1336</ele>
        <time>2013-01-25T13:15:23.000Z</time>
      </trkpt>
      <trkpt lat="45.70834" lon="6.1802">
        <ele>1331.4000244141</ele>
        <time>2013-01-25T13:15:28.000Z</time>
      </trkpt>
      <trkpt lat="45.7083" lon="6.18001">
        <ele>1325.5999755859</ele>
        <time>2013-01-25T13:15:32.000Z</time>
      </trkpt>
      <trkpt lat="45.70827" lon="6.17994">
        <ele>1323.1999511719</ele>
        <time>2013-01-25T13:15:34.000Z</time>
      </trkpt>
      <trkpt lat="45.70818" lon="6.17979">
        <ele>1317.8000488281</ele>
        <time>2013-01-25T13:15:39.000Z</time>
      </trkpt>
      <trkpt lat="45.70814" lon="6.17973">
        <ele>1317.1999511719</ele>
        <time>2013-01-25T13:15:46.000Z</time>
      </trkpt>
      <trkpt lat="45.70807" lon="6.17973">
        <ele>1316.4000244141</ele>
        <time>2013-01-25T13:15:55.000Z</time>
      </trkpt>
      <trkpt lat="45.70796" lon="6.17967">
        <ele>1316.1999511719</ele>
        <time>2013-01-25T13:16:28.000Z</time>
      </trkpt>
      <trkpt lat="45.70797" lon="6.17963">
        <ele>1314.1999511719</ele>
        <time>2013-01-25T13:16:33.000Z</time>
      </trkpt>
      <trkpt lat="45.70798" lon="6.17964">
        <ele>1314</ele>
        <time>2013-01-25T13:16:34.000Z</time>
      </trkpt>
      <trkpt lat="45.70799" lon="6.17963">
        <ele>1314</ele>
        <time>2013-01-25T13:16:37.000Z</time>
      </trkpt>
      <trkpt lat="45.70794" lon="6.17953">
        <ele>1311.5999755859</ele>
        <time>2013-01-25T13:16:42.000Z</time>
      </trkpt>
      <trkpt lat="45.70789" lon="6.17939">
        <ele>1309.8000488281</ele>
        <time>2013-01-25T13:16:46.000Z</time>
      </trkpt>
      <trkpt lat="45.70783" lon="6.17919">
        <ele>1304.5999755859</ele>
        <time>2013-01-25T13:16:50.000Z</time>
      </trkpt>
      <trkpt lat="45.70782" lon="6.17915">
        <ele>1300.5999755859</ele>
        <time>2013-01-25T13:16:53.000Z</time>
      </trkpt>
      <trkpt lat="45.70781" lon="6.17913">
        <ele>1300.5999755859</ele>
        <time>2013-01-25T13:16:58.000Z</time>
      </trkpt>
      <trkpt lat="45.70778" lon="6.17906">
        <ele>1300.4000244141</ele>
        <time>2013-01-25T13:17:03.000Z</time>
      </trkpt>
      <trkpt lat="45.70768" lon="6.17897">
        <ele>1297.5999755859</ele>
        <time>2013-01-25T13:17:07.000Z</time>
      </trkpt>
      <trkpt lat="45.70756" lon="6.17879">
        <ele>1293.4000244141</ele>
        <time>2013-01-25T13:17:12.000Z</time>
      </trkpt>
      <trkpt lat="45.70756" lon="6.17877">
        <ele>1289.5999755859</ele>
        <time>2013-01-25T13:17:16.000Z</time>
      </trkpt>
      <trkpt lat="45.70751" lon="6.17864">
        <ele>1290.5999755859</ele>
        <time>2013-01-25T13:17:20.000Z</time>
      </trkpt>
      <trkpt lat="45.70747" lon="6.1785">
        <ele>1288</ele>
        <time>2013-01-25T13:17:22.000Z</time>
      </trkpt>
      <trkpt lat="45.70737" lon="6.1783">
        <ele>1287.4000244141</ele>
        <time>2013-01-25T13:17:26.000Z</time>
      </trkpt>
      <trkpt lat="45.70732" lon="6.1781">
        <ele>1281.1999511719</ele>
        <time>2013-01-25T13:17:29.000Z</time>
      </trkpt>
      <trkpt lat="45.70731" lon="6.1779">
        <ele>1275.5999755859</ele>
        <time>2013-01-25T13:17:31.000Z</time>
      </trkpt>
      <trkpt lat="45.70724" lon="6.17781">
        <ele>1274.4000244141</ele>
        <time>2013-01-25T13:17:33.000Z</time>
      </trkpt>
      <trkpt lat="45.70709" lon="6.17742">
        <ele>1266.8000488281</ele>
        <time>2013-01-25T13:17:38.000Z</time>
      </trkpt>
      <trkpt lat="45.70701" lon="6.17712">
        <ele>1264.1999511719</ele>
        <time>2013-01-25T13:17:41.000Z</time>
      </trkpt>
      <trkpt lat="45.70696" lon="6.17682">
        <ele>1260.1999511719</ele>
        <time>2013-01-25T13:17:44.000Z</time>
      </trkpt>
      <trkpt lat="45.7069" lon="6.1766">
        <ele>1257.4000244141</ele>
        <time>2013-01-25T13:17:47.000Z</time>
      </trkpt>
      <trkpt lat="45.70679" lon="6.17645">
        <ele>1253.4000244141</ele>
        <time>2013-01-25T13:17:50.000Z</time>
      </trkpt>
      <trkpt lat="45.70682" lon="6.1763">
        <ele>1250.8000488281</ele>
        <time>2013-01-25T13:17:53.000Z</time>
      </trkpt>
      <trkpt lat="45.70676" lon="6.17619">
        <ele>1249.4000244141</ele>
        <time>2013-01-25T13:17:56.000Z</time>
      </trkpt>
      <trkpt lat="45.70668" lon="6.17605">
        <ele>1246.8000488281</ele>
        <time>2013-01-25T13:17:59.000Z</time>
      </trkpt>
      <trkpt lat="45.70664" lon="6.17595">
        <ele>1244.8000488281</ele>
        <time>2013-01-25T13:18:01.000Z</time>
      </trkpt>
      <trkpt lat="45.70646" lon="6.17577">
        <ele>1239.5999755859</ele>
        <time>2013-01-25T13:18:06.000Z</time>
      </trkpt>
      <trkpt lat="45.70641" lon="6.17573">
        <ele>1238.1999511719</ele>
        <time>2013-01-25T13:18:07.000Z</time>
      </trkpt>
      <trkpt lat="45.70624" lon="6.17571">
        <ele>1233.4000244141</ele>
        <time>2013-01-25T13:18:12.000Z</time>
      </trkpt>
      <trkpt lat="45.70624" lon="6.17572">
        <ele>1233.1999511719</ele>
        <time>2013-01-25T13:18:13.000Z</time>
      </trkpt>
      <trkpt lat="45.70619" lon="6.17578">
        <ele>1230.8000488281</ele>
        <time>2013-01-25T13:18:54.000Z</time>
      </trkpt>
      <trkpt lat="45.70622" lon="6.17578">
        <ele>1233</ele>
        <time>2013-01-25T13:19:01.000Z</time>
      </trkpt>
      <trkpt lat="45.70625" lon="6.17577">
        <ele>1233.4000244141</ele>
        <time>2013-01-25T13:19:21.000Z</time>
      </trkpt>
      <trkpt lat="45.70623" lon="6.17574">
        <ele>1232.8000488281</ele>
        <time>2013-01-25T13:19:23.000Z</time>
      </trkpt>
      <trkpt lat="45.70612" lon="6.17562">
        <ele>1230.8000488281</ele>
        <time>2013-01-25T13:19:26.000Z</time>
      </trkpt>
      <trkpt lat="45.70603" lon="6.1753">
        <ele>1226.5999755859</ele>
        <time>2013-01-25T13:19:30.000Z</time>
      </trkpt>
      <trkpt lat="45.70593" lon="6.17493">
        <ele>1222.4000244141</ele>
        <time>2013-01-25T13:19:35.000Z</time>
      </trkpt>
      <trkpt lat="45.70596" lon="6.17486">
        <ele>1221</ele>
        <time>2013-01-25T13:19:38.000Z</time>
      </trkpt>
      <trkpt lat="45.706" lon="6.17477">
        <ele>1220</ele>
        <time>2013-01-25T13:19:45.000Z</time>
      </trkpt>
      <trkpt lat="45.70601" lon="6.17476">
        <ele>1219.8000488281</ele>
        <time>2013-01-25T13:19:47.000Z</time>
      </trkpt>
      <trkpt lat="45.70602" lon="6.17464">
        <ele>1219</ele>
        <time>2013-01-25T13:19:51.000Z</time>
      </trkpt>
      <trkpt lat="45.70598" lon="6.17447">
        <ele>1217</ele>
        <time>2013-01-25T13:19:54.000Z</time>
      </trkpt>
      <trkpt lat="45.70589" lon="6.17414">
        <ele>1211.4000244141</ele>
        <time>2013-01-25T13:19:59.000Z</time>
      </trkpt>
      <trkpt lat="45.70587" lon="6.17407">
        <ele>1209</ele>
        <time>2013-01-25T13:20:02.000Z</time>
      </trkpt>
      <trkpt lat="45.70587" lon="6.17407">
        <ele>1201.4000244141</ele>
        <time>2013-01-25T13:20:06.000Z</time>
      </trkpt>
      <trkpt lat="45.70586" lon="6.17402">
        <ele>1202</ele>
        <time>2013-01-25T13:20:08.000Z</time>
      </trkpt>
      <trkpt lat="45.70589" lon="6.17392">
        <ele>1204.1999511719</ele>
        <time>2013-01-25T13:20:10.000Z</time>
      </trkpt>
      <trkpt lat="45.70587" lon="6.17381">
        <ele>1199</ele>
        <time>2013-01-25T13:20:12.000Z</time>
      </trkpt>
      <trkpt lat="45.7058" lon="6.17361">
        <ele>1196</ele>
        <time>2013-01-25T13:20:15.000Z</time>
      </trkpt>
      <trkpt lat="45.70576" lon="6.17338">
        <ele>1187.8000488281</ele>
        <time>2013-01-25T13:20:18.000Z</time>
      </trkpt>
      <trkpt lat="45.70575" lon="6.1732">
        <ele>1182.1999511719</ele>
        <time>2013-01-25T13:20:20.000Z</time>
      </trkpt>
      <trkpt lat="45.70561" lon="6.17311">
        <ele>1177.1999511719</ele>
        <time>2013-01-25T13:20:22.000Z</time>
      </trkpt>
      <trkpt lat="45.70553" lon="6.17303">
        <ele>1174</ele>
        <time>2013-01-25T13:20:24.000Z</time>
      </trkpt>
      <trkpt lat="45.70544" lon="6.17298">
        <ele>1173.4000244141</ele>
        <time>2013-01-25T13:20:26.000Z</time>
      </trkpt>
      <trkpt lat="45.70531" lon="6.17286">
        <ele>1169</ele>
        <time>2013-01-25T13:20:29.000Z</time>
      </trkpt>
      <trkpt lat="45.7052" lon="6.17274">
        <ele>1163.8000488281</ele>
        <time>2013-01-25T13:20:31.000Z</time>
      </trkpt>
      <trkpt lat="45.70511" lon="6.17273">
        <ele>1158.1999511719</ele>
        <time>2013-01-25T13:20:35.000Z</time>
      </trkpt>
      <trkpt lat="45.70512" lon="6.17274">
        <ele>1157.1999511719</ele>
        <time>2013-01-25T13:20:37.000Z</time>
      </trkpt>
      <trkpt lat="45.70512" lon="6.1727">
        <ele>1157.4000244141</ele>
        <time>2013-01-25T13:21:03.000Z</time>
      </trkpt>
      <trkpt lat="45.70502" lon="6.17263">
        <ele>1156.4000244141</ele>
        <time>2013-01-25T13:21:08.000Z</time>
      </trkpt>
      <trkpt lat="45.70481" lon="6.17263">
        <ele>1153.1999511719</ele>
        <time>2013-01-25T13:21:13.000Z</time>
      </trkpt>
      <trkpt lat="45.70465" lon="6.17266">
        <ele>1151.1999511719</ele>
        <time>2013-01-25T13:21:16.000Z</time>
      </trkpt>
      <trkpt lat="45.70448" lon="6.17273">
        <ele>1149.5999755859</ele>
        <time>2013-01-25T13:21:19.000Z</time>
      </trkpt>
      <trkpt lat="45.7043" lon="6.17284">
        <ele>1147</ele>
        <time>2013-01-25T13:21:23.000Z</time>
      </trkpt>
      <trkpt lat="45.70416" lon="6.1729">
        <ele>1145.1999511719</ele>
        <time>2013-01-25T13:21:26.000Z</time>
      </trkpt>
      <trkpt lat="45.70399" lon="6.17294">
        <ele>1143</ele>
        <time>2013-01-25T13:21:29.000Z</time>
      </trkpt>
      <trkpt lat="45.70372" lon="6.17301">
        <ele>1139.8000488281</ele>
        <time>2013-01-25T13:21:33.000Z</time>
      </trkpt>
      <trkpt lat="45.70359" lon="6.17302">
        <ele>1138.5999755859</ele>
        <time>2013-01-25T13:21:35.000Z</time>
      </trkpt>
      <trkpt lat="45.70339" lon="6.17303">
        <ele>1136.8000488281</ele>
        <time>2013-01-25T13:21:38.000Z</time>
      </trkpt>
      <trkpt lat="45.70306" lon="6.17305">
        <ele>1133.4000244141</ele>
        <time>2013-01-25T13:21:43.000Z</time>
      </trkpt>
      <trkpt lat="45.70285" lon="6.17322">
        <ele>1130.5999755859</ele>
        <time>2013-01-25T13:21:47.000Z</time>
      </trkpt>
      <trkpt lat="45.70259" lon="6.1734">
        <ele>1128</ele>
        <time>2013-01-25T13:21:51.000Z</time>
      </trkpt>
      <trkpt lat="45.70238" lon="6.17332">
        <ele>1126</ele>
        <time>2013-01-25T13:21:54.000Z</time>
      </trkpt>
      <trkpt lat="45.7022" lon="6.17328">
        <ele>1123.1999511719</ele>
        <time>2013-01-25T13:21:57.000Z</time>
      </trkpt>
      <trkpt lat="45.70199" lon="6.17346">
        <ele>1120.4000244141</ele>
        <time>2013-01-25T13:22:01.000Z</time>
      </trkpt>
      <trkpt lat="45.70168" lon="6.1735">
        <ele>1116.8000488281</ele>
        <time>2013-01-25T13:22:06.000Z</time>
      </trkpt>
      <trkpt lat="45.70155" lon="6.17346">
        <ele>1115.4000244141</ele>
        <time>2013-01-25T13:22:08.000Z</time>
      </trkpt>
      <trkpt lat="45.70142" lon="6.17345">
        <ele>1114.1999511719</ele>
        <time>2013-01-25T13:22:10.000Z</time>
      </trkpt>
      <trkpt lat="45.7013" lon="6.17346">
        <ele>1112.8000488281</ele>
        <time>2013-01-25T13:22:12.000Z</time>
      </trkpt>
      <trkpt lat="45.70098" lon="6.17338">
        <ele>1109.4000244141</ele>
        <time>2013-01-25T13:22:17.000Z</time>
      </trkpt>
      <trkpt lat="45.70093" lon="6.17332">
        <ele>1108.4000244141</ele>
        <time>2013-01-25T13:22:18.000Z</time>
      </trkpt>
      <trkpt lat="45.7006" lon="6.17318">
        <ele>1104.1999511719</ele>
        <time>2013-01-25T13:22:23.000Z</time>
      </trkpt>
      <trkpt lat="45.70035" lon="6.17306">
        <ele>1101.1999511719</ele>
        <time>2013-01-25T13:22:27.000Z</time>
      </trkpt>
      <trkpt lat="45.70015" lon="6.17289">
        <ele>1099</ele>
        <time>2013-01-25T13:22:30.000Z</time>
      </trkpt>
      <trkpt lat="45.69997" lon="6.17273">
        <ele>1096.8000488281</ele>
        <time>2013-01-25T13:22:33.000Z</time>
      </trkpt>
      <trkpt lat="45.6998" lon="6.17266">
        <ele>1094.4000244141</ele>
        <time>2013-01-25T13:22:36.000Z</time>
      </trkpt>
      <trkpt lat="45.6997" lon="6.17264">
        <ele>1091.5999755859</ele>
        <time>2013-01-25T13:22:40.000Z</time>
      </trkpt>
      <trkpt lat="45.69967" lon="6.17263">
        <ele>1091</ele>
        <time>2013-01-25T13:22:57.000Z</time>
      </trkpt>
      <trkpt lat="45.69967" lon="6.1726">
        <ele>1091.1999511719</ele>
        <time>2013-01-25T13:22:59.000Z</time>
      </trkpt>
      <trkpt lat="45.6996" lon="6.17238">
        <ele>1089.5999755859</ele>
        <time>2013-01-25T13:23:03.000Z</time>
      </trkpt>
      <trkpt lat="45.69946" lon="6.17221">
        <ele>1083.5999755859</ele>
        <time>2013-01-25T13:23:07.000Z</time>
      </trkpt>
      <trkpt lat="45.69944" lon="6.17214">
        <ele>1083.4000244141</ele>
        <time>2013-01-25T13:23:08.000Z</time>
      </trkpt>
      <trkpt lat="45.69941" lon="6.172">
        <ele>1080.1999511719</ele>
        <time>2013-01-25T13:23:10.000Z</time>
      </trkpt>
      <trkpt lat="45.69939" lon="6.17194">
        <ele>1077.8000488281</ele>
        <time>2013-01-25T13:23:12.000Z</time>
      </trkpt>
      <trkpt lat="45.69932" lon="6.17181">
        <ele>1074.5999755859</ele>
        <time>2013-01-25T13:23:16.000Z</time>
      </trkpt>
      <trkpt lat="45.69924" lon="6.17174">
        <ele>1071.5999755859</ele>
        <time>2013-01-25T13:23:18.000Z</time>
      </trkpt>
      <trkpt lat="45.69917" lon="6.17155">
        <ele>1068.8000488281</ele>
        <time>2013-01-25T13:23:21.000Z</time>
      </trkpt>
      <trkpt lat="45.69908" lon="6.17143">
        <ele>1065.5999755859</ele>
        <time>2013-01-25T13:23:24.000Z</time>
      </trkpt>
      <trkpt lat="45.69904" lon="6.17142">
        <ele>1065.1999511719</ele>
        <time>2013-01-25T13:23:25.000Z</time>
      </trkpt>
      <trkpt lat="45.69882" lon="6.17137">
        <ele>1060.4000244141</ele>
        <time>2013-01-25T13:23:29.000Z</time>
      </trkpt>
      <trkpt lat="45.69861" lon="6.17135">
        <ele>1055.8000488281</ele>
        <time>2013-01-25T13:23:33.000Z</time>
      </trkpt>
      <trkpt lat="45.6985" lon="6.17138">
        <ele>1054.5999755859</ele>
        <time>2013-01-25T13:23:35.000Z</time>
      </trkpt>
      <trkpt lat="45.69836" lon="6.17135">
        <ele>1053</ele>
        <time>2013-01-25T13:23:38.000Z</time>
      </trkpt>
      <trkpt lat="45.69829" lon="6.17131">
        <ele>1049.8000488281</ele>
        <time>2013-01-25T13:23:40.000Z</time>
      </trkpt>
      <trkpt lat="45.69819" lon="6.1711">
        <ele>1049.4000244141</ele>
        <time>2013-01-25T13:23:44.000Z</time>
      </trkpt>
      <trkpt lat="45.69813" lon="6.17087">
        <ele>1043.8000488281</ele>
        <time>2013-01-25T13:23:47.000Z</time>
      </trkpt>
      <trkpt lat="45.69801" lon="6.17074">
        <ele>1039.5999755859</ele>
        <time>2013-01-25T13:23:50.000Z</time>
      </trkpt>
      <trkpt lat="45.69795" lon="6.17065">
        <ele>1035.1999511719</ele>
        <time>2013-01-25T13:23:53.000Z</time>
      </trkpt>
      <trkpt lat="45.69789" lon="6.17068">
        <ele>1032.8000488281</ele>
        <time>2013-01-25T13:23:59.000Z</time>
      </trkpt>
      <trkpt lat="45.69783" lon="6.1706">
        <ele>1032</ele>
        <time>2013-01-25T13:24:03.000Z</time>
      </trkpt>
      <trkpt lat="45.69771" lon="6.17054">
        <ele>1030.8000488281</ele>
        <time>2013-01-25T13:24:07.000Z</time>
      </trkpt>
      <trkpt lat="45.69734" lon="6.17066">
        <ele>1027</ele>
        <time>2013-01-25T13:24:13.000Z</time>
      </trkpt>
      <trkpt lat="45.69715" lon="6.17069">
        <ele>1025.1999511719</ele>
        <time>2013-01-25T13:24:16.000Z</time>
      </trkpt>
      <trkpt lat="45.69683" lon="6.17066">
        <ele>1021.5999755859</ele>
        <time>2013-01-25T13:24:21.000Z</time>
      </trkpt>
      <trkpt lat="45.69652" lon="6.17071">
        <ele>1017</ele>
        <time>2013-01-25T13:24:26.000Z</time>
      </trkpt>
      <trkpt lat="45.6964" lon="6.1707">
        <ele>1014.799987793</ele>
        <time>2013-01-25T13:24:28.000Z</time>
      </trkpt>
      <trkpt lat="45.69631" lon="6.17067">
        <ele>1013</ele>
        <time>2013-01-25T13:24:30.000Z</time>
      </trkpt>
      <trkpt lat="45.69617" lon="6.17065">
        <ele>1011.200012207</ele>
        <time>2013-01-25T13:24:34.000Z</time>
      </trkpt>
      <trkpt lat="45.69603" lon="6.17057">
        <ele>1009.5999755859</ele>
        <time>2013-01-25T13:24:37.000Z</time>
      </trkpt>
      <trkpt lat="45.69579" lon="6.17046">
        <ele>1007.4000244141</ele>
        <time>2013-01-25T13:24:42.000Z</time>
      </trkpt>
      <trkpt lat="45.6956" lon="6.17041">
        <ele>1006</ele>
        <time>2013-01-25T13:24:47.000Z</time>
      </trkpt>
      <trkpt lat="45.69545" lon="6.1704">
        <ele>1003.5999755859</ele>
        <time>2013-01-25T13:24:52.000Z</time>
      </trkpt>
      <trkpt lat="45.69542" lon="6.17043">
        <ele>1002.799987793</ele>
        <time>2013-01-25T13:24:56.000Z</time>
      </trkpt>
      <trkpt lat="45.6954" lon="6.17044">
        <ele>1002.5999755859</ele>
        <time>2013-01-25T13:25:04.000Z</time>
      </trkpt>
      <trkpt lat="45.69536" lon="6.17049">
        <ele>1007</ele>
        <time>2013-01-25T13:25:34.000Z</time>
      </trkpt>
      <trkpt lat="45.69536" lon="6.17047">
        <ele>1003.4000244141</ele>
        <time>2013-01-25T13:26:23.000Z</time>
      </trkpt>
      <trkpt lat="45.6954" lon="6.17047">
        <ele>1004</ele>
        <time>2013-01-25T13:26:41.000Z</time>
      </trkpt>
      <trkpt lat="45.6954" lon="6.17045">
        <ele>1007</ele>
        <time>2013-01-25T13:26:58.000Z</time>
      </trkpt>
      <trkpt lat="45.69537" lon="6.17046">
        <ele>1006.4000244141</ele>
        <time>2013-01-25T13:27:40.000Z</time>
      </trkpt>
      <trkpt lat="45.69531" lon="6.17051">
        <ele>1004.799987793</ele>
        <time>2013-01-25T13:28:22.000Z</time>
      </trkpt>
      <trkpt lat="45.69528" lon="6.17053">
        <ele>1004.5999755859</ele>
        <time>2013-01-25T13:28:27.000Z</time>
      </trkpt>
      <trkpt lat="45.69528" lon="6.17054">
        <ele>1004.5999755859</ele>
        <time>2013-01-25T13:28:28.000Z</time>
      </trkpt>
      <trkpt lat="45.69523" lon="6.17056">
        <ele>1004</ele>
        <time>2013-01-25T13:28:33.000Z</time>
      </trkpt>
      <trkpt lat="45.69518" lon="6.17057">
        <ele>1003.5999755859</ele>
        <time>2013-01-25T13:28:40.000Z</time>
      </trkpt>
      <trkpt lat="45.69509" lon="6.17059">
        <ele>1003</ele>
        <time>2013-01-25T13:29:10.000Z</time>
      </trkpt>
      <trkpt lat="45.69502" lon="6.17059">
        <ele>1002.200012207</ele>
        <time>2013-01-25T13:29:18.000Z</time>
      </trkpt>
      <trkpt lat="45.69501" lon="6.17059">
        <ele>1002.4000244141</ele>
        <time>2013-01-25T13:29:19.000Z</time>
      </trkpt>
      <trkpt lat="45.6949" lon="6.17057">
        <ele>1002.5999755859</ele>
        <time>2013-01-25T13:29:30.000Z</time>
      </trkpt>
      <trkpt lat="45.69479" lon="6.17054">
        <ele>1002.5999755859</ele>
        <time>2013-01-25T13:29:39.000Z</time>
      </trkpt>
      <trkpt lat="45.69471" lon="6.17055">
        <ele>1000.799987793</ele>
        <time>2013-01-25T13:29:47.000Z</time>
      </trkpt>
      <trkpt lat="45.6946" lon="6.17059">
        <ele>999</ele>
        <time>2013-01-25T13:29:56.000Z</time>
      </trkpt>
      <trkpt lat="45.69451" lon="6.17061">
        <ele>997.79998779297</ele>
        <time>2013-01-25T13:30:04.000Z</time>
      </trkpt>
      <trkpt lat="45.69439" lon="6.17059">
        <ele>996.79998779297</ele>
        <time>2013-01-25T13:30:13.000Z</time>
      </trkpt>
      <trkpt lat="45.69427" lon="6.17055">
        <ele>995.79998779297</ele>
        <time>2013-01-25T13:30:23.000Z</time>
      </trkpt>
      <trkpt lat="45.69413" lon="6.1705">
        <ele>995.20001220703</ele>
        <time>2013-01-25T13:30:33.000Z</time>
      </trkpt>
      <trkpt lat="45.69402" lon="6.17048">
        <ele>996.59997558594</ele>
        <time>2013-01-25T13:30:42.000Z</time>
      </trkpt>
      <trkpt lat="45.6939" lon="6.17041">
        <ele>994.79998779297</ele>
        <time>2013-01-25T13:30:51.000Z</time>
      </trkpt>
      <trkpt lat="45.69378" lon="6.17037">
        <ele>996</ele>
        <time>2013-01-25T13:31:02.000Z</time>
      </trkpt>
      <trkpt lat="45.69369" lon="6.17033">
        <ele>997</ele>
        <time>2013-01-25T13:31:10.000Z</time>
      </trkpt>
      <trkpt lat="45.69359" lon="6.17027">
        <ele>996.40002441406</ele>
        <time>2013-01-25T13:31:20.000Z</time>
      </trkpt>
      <trkpt lat="45.69351" lon="6.17019">
        <ele>996.40002441406</ele>
        <time>2013-01-25T13:31:29.000Z</time>
      </trkpt>
      <trkpt lat="45.69348" lon="6.17013">
        <ele>997.20001220703</ele>
        <time>2013-01-25T13:31:36.000Z</time>
      </trkpt>
      <trkpt lat="45.69348" lon="6.17013">
        <ele>997.20001220703</ele>
        <time>2013-01-25T13:31:37.000Z</time>
      </trkpt>
      <trkpt lat="45.69346" lon="6.17013">
        <ele>995.79998779297</ele>
        <time>2013-01-25T13:31:46.000Z</time>
      </trkpt>
    </trkseg>
  </trk>
</gpx>